<?xml version="1.0" encoding="UTF-8" standalone="no" ?>
<gpx xmlns="http://www.topografix.com/GPX/1/1" xmlns:xsi="http://www.w3.org/2001/XMLSchema-instance" xsi:schemaLocation="http://www.topografix.com/GPX/1/1 http://www.topografix.com/GPX/1/1/gpx.xsd" version="1.1" creator="VisuGPX - https://www.visugpx.com">
  <metadata>
    <name>Morlaix à Plouguerneau</name>
    <desc><![CDATA[7 jours 130 km]]></desc>
  </metadata>
  <wpt lat="48.67429" lon="-3.91956">
    <ele>11</ele>
    <name><![CDATA[1ere étape]]></name>
  </wpt>
  <wpt lat="48.72781" lon="-3.98638">
    <ele>4</ele>
    <name><![CDATA[2eme etape]]></name>
  </wpt>
  <wpt lat="48.69398" lon="-4.08299">
    <ele>6</ele>
    <name><![CDATA[3eme étape]]></name>
  </wpt>
  <wpt lat="48.65231" lon="-4.19579">
    <ele>1.3</ele>
    <name><![CDATA[4eme étape]]></name>
  </wpt>
  <wpt lat="48.66559" lon="-4.32716">
    <ele>11.5</ele>
    <name><![CDATA[5eme étape]]></name>
  </wpt>
  <wpt lat="48.6398" lon="-4.39967">
    <ele>4.7</ele>
    <name><![CDATA[6eme étape]]></name>
  </wpt>
  <trk>
    <name><![CDATA[Morlaix à Plouguerneau_1]]></name>
    <extensions>
      <line xmlns="http://www.topografix.com/GPX/gpx_style/0/2">
        <color>0000FF</color>
        <width>4</width>
      </line>
    </extensions>
    <trkseg>
      <trkpt lat="48.58181" lon="-3.83279">
        <ele>10.137</ele>
        <time>2017-04-22T18:00:21Z</time>
      </trkpt>
      <trkpt lat="48.58181" lon="-3.83279">
        <ele>10.137</ele>
        <time>2017-04-22T18:00:21Z</time>
      </trkpt>
      <trkpt lat="48.58218" lon="-3.83326">
        <ele>11.17</ele>
        <time>2017-04-22T18:00:41Z</time>
      </trkpt>
      <trkpt lat="48.58429" lon="-3.83511">
        <ele>6.297</ele>
        <time>2017-04-22T18:01:01Z</time>
      </trkpt>
      <trkpt lat="48.58437" lon="-3.8361">
        <ele>8.583</ele>
        <time>2017-04-22T18:01:21Z</time>
      </trkpt>
      <trkpt lat="48.5849" lon="-3.8365">
        <ele>5.825</ele>
        <time>2017-04-22T18:01:41Z</time>
      </trkpt>
      <trkpt lat="48.58483" lon="-3.83671">
        <ele>7.817</ele>
        <time>2017-04-22T18:02:01Z</time>
      </trkpt>
      <trkpt lat="48.58469" lon="-3.83681">
        <ele>10.108</ele>
        <time>2017-04-22T18:02:21Z</time>
      </trkpt>
      <trkpt lat="48.58345" lon="-3.83644">
        <ele>18.494</ele>
        <time>2017-04-22T18:02:41Z</time>
      </trkpt>
      <trkpt lat="48.58319" lon="-3.83688">
        <ele>26.24</ele>
        <time>2017-04-22T18:03:01Z</time>
      </trkpt>
      <trkpt lat="48.5841" lon="-3.83744">
        <ele>36.551</ele>
        <time>2017-04-22T18:03:21Z</time>
      </trkpt>
      <trkpt lat="48.58465" lon="-3.83764">
        <ele>32.762</ele>
        <time>2017-04-22T18:03:41Z</time>
      </trkpt>
      <trkpt lat="48.58506" lon="-3.83757">
        <ele>26.133</ele>
        <time>2017-04-22T18:04:01Z</time>
      </trkpt>
      <trkpt lat="48.58524" lon="-3.83777">
        <ele>32.683</ele>
        <time>2017-04-22T18:04:21Z</time>
      </trkpt>
      <trkpt lat="48.58559" lon="-3.83766">
        <ele>35.496</ele>
        <time>2017-04-22T18:04:41Z</time>
      </trkpt>
      <trkpt lat="48.58582" lon="-3.83763">
        <ele>36.133</ele>
        <time>2017-04-22T18:05:01Z</time>
      </trkpt>
      <trkpt lat="48.58607" lon="-3.83768">
        <ele>34.234</ele>
        <time>2017-04-22T18:05:21Z</time>
      </trkpt>
      <trkpt lat="48.58623" lon="-3.83786">
        <ele>33.455</ele>
        <time>2017-04-22T18:05:41Z</time>
      </trkpt>
      <trkpt lat="48.58609" lon="-3.83825">
        <ele>44.31</ele>
        <time>2017-04-22T18:06:01Z</time>
      </trkpt>
      <trkpt lat="48.58568" lon="-3.839">
        <ele>48.408</ele>
        <time>2017-04-22T18:06:21Z</time>
      </trkpt>
      <trkpt lat="48.58572" lon="-3.83992">
        <ele>42.269</ele>
        <time>2017-04-22T18:06:41Z</time>
      </trkpt>
      <trkpt lat="48.58565" lon="-3.84033">
        <ele>42.625</ele>
        <time>2017-04-22T18:07:01Z</time>
      </trkpt>
      <trkpt lat="48.58539" lon="-3.84106">
        <ele>45.096</ele>
        <time>2017-04-22T18:07:21Z</time>
      </trkpt>
      <trkpt lat="48.58486" lon="-3.84191">
        <ele>47.797</ele>
        <time>2017-04-22T18:07:41Z</time>
      </trkpt>
      <trkpt lat="48.58517" lon="-3.84225">
        <ele>42.148</ele>
        <time>2017-04-22T18:08:01Z</time>
      </trkpt>
      <trkpt lat="48.58552" lon="-3.84244">
        <ele>39.288</ele>
        <time>2017-04-22T18:08:21Z</time>
      </trkpt>
      <trkpt lat="48.58585" lon="-3.84248">
        <ele>38.981</ele>
        <time>2017-04-22T18:08:41Z</time>
      </trkpt>
      <trkpt lat="48.58624" lon="-3.84237">
        <ele>38.948</ele>
        <time>2017-04-22T18:09:01Z</time>
      </trkpt>
      <trkpt lat="48.58651" lon="-3.84216">
        <ele>40.389</ele>
        <time>2017-04-22T18:09:21Z</time>
      </trkpt>
      <trkpt lat="48.58685" lon="-3.84168">
        <ele>40.706</ele>
        <time>2017-04-22T18:09:41Z</time>
      </trkpt>
      <trkpt lat="48.58725" lon="-3.84079">
        <ele>40.126</ele>
        <time>2017-04-22T18:14:21Z</time>
      </trkpt>
      <trkpt lat="48.58762" lon="-3.84021">
        <ele>38.808</ele>
        <time>2017-04-22T18:14:41Z</time>
      </trkpt>
      <trkpt lat="48.58813" lon="-3.83992">
        <ele>39.484</ele>
        <time>2017-04-22T18:15:01Z</time>
      </trkpt>
      <trkpt lat="48.58862" lon="-3.83989">
        <ele>39.05</ele>
        <time>2017-04-22T18:15:21Z</time>
      </trkpt>
      <trkpt lat="48.59028" lon="-3.84095">
        <ele>35.121</ele>
        <time>2017-04-22T18:15:41Z</time>
      </trkpt>
      <trkpt lat="48.59125" lon="-3.842">
        <ele>39.232</ele>
        <time>2017-04-22T18:16:01Z</time>
      </trkpt>
      <trkpt lat="48.59215" lon="-3.84222">
        <ele>36.883</ele>
        <time>2017-04-22T18:16:21Z</time>
      </trkpt>
      <trkpt lat="48.59358" lon="-3.84216">
        <ele>37.493</ele>
        <time>2017-04-22T18:16:41Z</time>
      </trkpt>
      <trkpt lat="48.59486" lon="-3.84243">
        <ele>28.436</ele>
        <time>2017-04-22T18:17:01Z</time>
      </trkpt>
      <trkpt lat="48.59531" lon="-3.84242">
        <ele>25.173</ele>
        <time>2017-04-22T18:17:21Z</time>
      </trkpt>
      <trkpt lat="48.59604" lon="-3.84218">
        <ele>22.757</ele>
        <time>2017-04-22T18:17:41Z</time>
      </trkpt>
      <trkpt lat="48.59657" lon="-3.84219">
        <ele>24.4</ele>
        <time>2017-04-22T18:18:01Z</time>
      </trkpt>
      <trkpt lat="48.59709" lon="-3.84231">
        <ele>23.82</ele>
        <time>2017-04-22T18:18:21Z</time>
      </trkpt>
      <trkpt lat="48.59787" lon="-3.84299">
        <ele>20.408</ele>
        <time>2017-04-22T18:18:41Z</time>
      </trkpt>
      <trkpt lat="48.59847" lon="-3.84386">
        <ele>16.641</ele>
        <time>2017-04-22T18:19:01Z</time>
      </trkpt>
      <trkpt lat="48.59955" lon="-3.84481">
        <ele>11.717</ele>
        <time>2017-04-22T18:19:21Z</time>
      </trkpt>
      <trkpt lat="48.5997" lon="-3.84452">
        <ele>6.638</ele>
        <time>2017-04-22T18:19:41Z</time>
      </trkpt>
      <trkpt lat="48.60045" lon="-3.84546">
        <ele>3.919</ele>
        <time>2017-04-22T18:20:01Z</time>
      </trkpt>
      <trkpt lat="48.601" lon="-3.8467">
        <ele>4.42</ele>
        <time>2017-04-22T18:20:21Z</time>
      </trkpt>
      <trkpt lat="48.6009" lon="-3.84682">
        <ele>6.12</ele>
        <time>2017-04-22T18:20:41Z</time>
      </trkpt>
      <trkpt lat="48.60132" lon="-3.8479">
        <ele>6.523</ele>
        <time>2017-04-22T18:21:01Z</time>
      </trkpt>
      <trkpt lat="48.60124" lon="-3.84816">
        <ele>9.33</ele>
        <time>2017-04-22T18:21:21Z</time>
      </trkpt>
      <trkpt lat="48.60135" lon="-3.84914">
        <ele>26.526</ele>
        <time>2017-04-22T18:21:41Z</time>
      </trkpt>
      <trkpt lat="48.60132" lon="-3.84998">
        <ele>38.447</ele>
        <time>2017-04-22T18:22:01Z</time>
      </trkpt>
      <trkpt lat="48.59952" lon="-3.85183">
        <ele>54.811</ele>
        <time>2017-04-22T18:22:21Z</time>
      </trkpt>
      <trkpt lat="48.59872" lon="-3.85267">
        <ele>62.808</ele>
        <time>2017-04-22T18:22:41Z</time>
      </trkpt>
      <trkpt lat="48.59849" lon="-3.85287">
        <ele>64.328</ele>
        <time>2017-04-22T18:23:01Z</time>
      </trkpt>
      <trkpt lat="48.59693" lon="-3.85592">
        <ele>60.784</ele>
        <time>2017-04-22T18:23:21Z</time>
      </trkpt>
      <trkpt lat="48.59667" lon="-3.85621">
        <ele>61.025</ele>
        <time>2017-04-22T18:23:41Z</time>
      </trkpt>
      <trkpt lat="48.59624" lon="-3.8574">
        <ele>66.026</ele>
        <time>2017-04-22T18:24:01Z</time>
      </trkpt>
      <trkpt lat="48.59639" lon="-3.85757">
        <ele>66.547</ele>
        <time>2017-04-22T18:24:21Z</time>
      </trkpt>
      <trkpt lat="48.59654" lon="-3.85803">
        <ele>69.897</ele>
        <time>2017-04-22T18:24:41Z</time>
      </trkpt>
      <trkpt lat="48.59682" lon="-3.85849">
        <ele>71.67</ele>
        <time>2017-04-22T18:25:01Z</time>
      </trkpt>
      <trkpt lat="48.59713" lon="-3.85878">
        <ele>70.667</ele>
        <time>2017-04-22T18:25:21Z</time>
      </trkpt>
      <trkpt lat="48.59736" lon="-3.85936">
        <ele>71.746</ele>
        <time>2017-04-22T18:25:41Z</time>
      </trkpt>
      <trkpt lat="48.59732" lon="-3.85978">
        <ele>75.188</ele>
        <time>2017-04-22T18:26:01Z</time>
      </trkpt>
      <trkpt lat="48.59705" lon="-3.86044">
        <ele>76.416</ele>
        <time>2017-04-22T18:26:21Z</time>
      </trkpt>
      <trkpt lat="48.59674" lon="-3.86142">
        <ele>83.908</ele>
        <time>2017-04-22T18:26:41Z</time>
      </trkpt>
      <trkpt lat="48.59559" lon="-3.86221">
        <ele>87.27</ele>
        <time>2017-04-22T18:27:01Z</time>
      </trkpt>
      <trkpt lat="48.59631" lon="-3.86323">
        <ele>84.466</ele>
        <time>2017-04-22T18:27:21Z</time>
      </trkpt>
      <trkpt lat="48.5966" lon="-3.86384">
        <ele>83.857</ele>
        <time>2017-04-22T18:27:41Z</time>
      </trkpt>
      <trkpt lat="48.59736" lon="-3.86496">
        <ele>81.978</ele>
        <time>2017-04-22T18:28:01Z</time>
      </trkpt>
      <trkpt lat="48.59759" lon="-3.86591">
        <ele>75.029</ele>
        <time>2017-04-22T18:28:21Z</time>
      </trkpt>
      <trkpt lat="48.59777" lon="-3.86715">
        <ele>72.679</ele>
        <time>2017-04-22T18:28:41Z</time>
      </trkpt>
      <trkpt lat="48.59824" lon="-3.86906">
        <ele>65.582</ele>
        <time>2017-04-22T18:29:01Z</time>
      </trkpt>
      <trkpt lat="48.59844" lon="-3.87013">
        <ele>50.599</ele>
        <time>2017-04-22T18:29:21Z</time>
      </trkpt>
      <trkpt lat="48.59882" lon="-3.87075">
        <ele>43.752</ele>
        <time>2017-04-22T18:29:41Z</time>
      </trkpt>
      <trkpt lat="48.59907" lon="-3.87094">
        <ele>40.953</ele>
        <time>2017-04-22T18:30:01Z</time>
      </trkpt>
      <trkpt lat="48.60021" lon="-3.87155">
        <ele>33.808</ele>
        <time>2017-04-22T18:30:21Z</time>
      </trkpt>
      <trkpt lat="48.60174" lon="-3.87231">
        <ele>25.608</ele>
        <time>2017-04-22T18:30:41Z</time>
      </trkpt>
      <trkpt lat="48.60213" lon="-3.87261">
        <ele>20.931</ele>
        <time>2017-04-22T18:31:01Z</time>
      </trkpt>
      <trkpt lat="48.60237" lon="-3.87301">
        <ele>15.537</ele>
        <time>2017-04-22T18:31:21Z</time>
      </trkpt>
      <trkpt lat="48.60253" lon="-3.87314">
        <ele>17.668</ele>
        <time>2017-04-22T18:31:41Z</time>
      </trkpt>
      <trkpt lat="48.6025" lon="-3.87363">
        <ele>28.759</ele>
        <time>2017-04-22T18:32:01Z</time>
      </trkpt>
      <trkpt lat="48.60235" lon="-3.87387">
        <ele>35.83</ele>
        <time>2017-04-22T18:32:21Z</time>
      </trkpt>
      <trkpt lat="48.60208" lon="-3.874">
        <ele>37.28</ele>
        <time>2017-04-22T18:32:41Z</time>
      </trkpt>
      <trkpt lat="48.6018" lon="-3.87395">
        <ele>34.613</ele>
        <time>2017-04-22T18:33:01Z</time>
      </trkpt>
      <trkpt lat="48.60152" lon="-3.87378">
        <ele>30.07</ele>
        <time>2017-04-22T18:33:21Z</time>
      </trkpt>
      <trkpt lat="48.60066" lon="-3.87301">
        <ele>23.419</ele>
        <time>2017-04-22T18:33:41Z</time>
      </trkpt>
      <trkpt lat="48.60012" lon="-3.87277">
        <ele>25.109</ele>
        <time>2017-04-22T18:34:01Z</time>
      </trkpt>
      <trkpt lat="48.59946" lon="-3.87216">
        <ele>24.319</ele>
        <time>2017-04-22T18:34:21Z</time>
      </trkpt>
      <trkpt lat="48.59896" lon="-3.87205">
        <ele>21.908</ele>
        <time>2017-04-22T18:34:41Z</time>
      </trkpt>
      <trkpt lat="48.59839" lon="-3.87204">
        <ele>21.117</ele>
        <time>2017-04-22T18:35:01Z</time>
      </trkpt>
      <trkpt lat="48.59795" lon="-3.87217">
        <ele>20.393</ele>
        <time>2017-04-22T18:35:21Z</time>
      </trkpt>
      <trkpt lat="48.59751" lon="-3.87287">
        <ele>28.124</ele>
        <time>2017-04-22T18:35:41Z</time>
      </trkpt>
      <trkpt lat="48.59718" lon="-3.87319">
        <ele>29.195</ele>
        <time>2017-04-22T18:36:01Z</time>
      </trkpt>
      <trkpt lat="48.59682" lon="-3.87331">
        <ele>27.286</ele>
        <time>2017-04-22T18:36:21Z</time>
      </trkpt>
      <trkpt lat="48.59559" lon="-3.87435">
        <ele>31.796</ele>
        <time>2017-04-22T18:36:41Z</time>
      </trkpt>
      <trkpt lat="48.59591" lon="-3.87484">
        <ele>47.969</ele>
        <time>2017-04-22T18:37:01Z</time>
      </trkpt>
      <trkpt lat="48.59629" lon="-3.87498">
        <ele>52.796</ele>
        <time>2017-04-22T18:37:21Z</time>
      </trkpt>
      <trkpt lat="48.59676" lon="-3.87462">
        <ele>51.237</ele>
        <time>2017-04-22T18:37:41Z</time>
      </trkpt>
      <trkpt lat="48.59697" lon="-3.8746">
        <ele>53.449</ele>
        <time>2017-04-22T18:38:01Z</time>
      </trkpt>
      <trkpt lat="48.59718" lon="-3.87474">
        <ele>56.813</ele>
        <time>2017-04-22T18:38:21Z</time>
      </trkpt>
      <trkpt lat="48.59723" lon="-3.87535">
        <ele>62.508</ele>
        <time>2017-04-22T18:38:41Z</time>
      </trkpt>
      <trkpt lat="48.59729" lon="-3.87596">
        <ele>66.639</ele>
        <time>2017-04-22T18:39:01Z</time>
      </trkpt>
      <trkpt lat="48.59736" lon="-3.87618">
        <ele>67.885</ele>
        <time>2017-04-22T18:39:21Z</time>
      </trkpt>
      <trkpt lat="48.59746" lon="-3.87664">
        <ele>69.746</ele>
        <time>2017-04-22T18:39:41Z</time>
      </trkpt>
      <trkpt lat="48.59777" lon="-3.8773">
        <ele>72.097</ele>
        <time>2017-04-22T18:40:01Z</time>
      </trkpt>
      <trkpt lat="48.59814" lon="-3.87751">
        <ele>72.058</ele>
        <time>2017-04-22T18:40:21Z</time>
      </trkpt>
      <trkpt lat="48.59815" lon="-3.87785">
        <ele>73.058</ele>
        <time>2017-04-22T18:40:41Z</time>
      </trkpt>
      <trkpt lat="48.59838" lon="-3.87808">
        <ele>72.871</ele>
        <time>2017-04-22T18:41:01Z</time>
      </trkpt>
      <trkpt lat="48.59866" lon="-3.87813">
        <ele>72.128</ele>
        <time>2017-04-22T18:41:21Z</time>
      </trkpt>
      <trkpt lat="48.599" lon="-3.87838">
        <ele>71.491</ele>
        <time>2017-04-22T18:41:41Z</time>
      </trkpt>
      <trkpt lat="48.59952" lon="-3.87913">
        <ele>70.681</ele>
        <time>2017-04-22T18:42:01Z</time>
      </trkpt>
      <trkpt lat="48.60005" lon="-3.87976">
        <ele>71.019</ele>
        <time>2017-04-22T18:42:21Z</time>
      </trkpt>
      <trkpt lat="48.60042" lon="-3.88027">
        <ele>70.508</ele>
        <time>2017-04-22T18:42:41Z</time>
      </trkpt>
      <trkpt lat="48.60192" lon="-3.87999">
        <ele>71.935</ele>
        <time>2017-04-22T18:43:01Z</time>
      </trkpt>
      <trkpt lat="48.60295" lon="-3.87972">
        <ele>71.031</ele>
        <time>2017-04-22T18:43:21Z</time>
      </trkpt>
      <trkpt lat="48.60323" lon="-3.87972">
        <ele>71.082</ele>
        <time>2017-04-22T18:43:41Z</time>
      </trkpt>
      <trkpt lat="48.60373" lon="-3.87961">
        <ele>70.243</ele>
        <time>2017-04-22T18:44:01Z</time>
      </trkpt>
      <trkpt lat="48.60409" lon="-3.87927">
        <ele>70.024</ele>
        <time>2017-04-22T18:44:21Z</time>
      </trkpt>
      <trkpt lat="48.60443" lon="-3.87887">
        <ele>69.994</ele>
        <time>2017-04-22T18:44:41Z</time>
      </trkpt>
      <trkpt lat="48.60466" lon="-3.8788">
        <ele>70.747</ele>
        <time>2017-04-22T18:45:01Z</time>
      </trkpt>
      <trkpt lat="48.60489" lon="-3.87883">
        <ele>71.014</ele>
        <time>2017-04-22T18:45:21Z</time>
      </trkpt>
      <trkpt lat="48.60503" lon="-3.8784">
        <ele>71.019</ele>
        <time>2017-04-22T18:45:41Z</time>
      </trkpt>
      <trkpt lat="48.60571" lon="-3.87808">
        <ele>70.409</ele>
        <time>2017-04-22T18:46:01Z</time>
      </trkpt>
      <trkpt lat="48.60598" lon="-3.87777">
        <ele>70.519</ele>
        <time>2017-04-22T18:46:21Z</time>
      </trkpt>
      <trkpt lat="48.60648" lon="-3.87699">
        <ele>70.308</ele>
        <time>2017-04-22T18:46:41Z</time>
      </trkpt>
      <trkpt lat="48.60727" lon="-3.87584">
        <ele>70.067</ele>
        <time>2017-04-22T18:47:01Z</time>
      </trkpt>
      <trkpt lat="48.60773" lon="-3.875">
        <ele>70.893</ele>
        <time>2017-04-22T18:47:21Z</time>
      </trkpt>
      <trkpt lat="48.60788" lon="-3.87459">
        <ele>69.944</ele>
        <time>2017-04-22T18:47:41Z</time>
      </trkpt>
      <trkpt lat="48.60796" lon="-3.87412">
        <ele>68.645</ele>
        <time>2017-04-22T18:48:01Z</time>
      </trkpt>
      <trkpt lat="48.60807" lon="-3.87386">
        <ele>68.076</ele>
        <time>2017-04-22T18:48:21Z</time>
      </trkpt>
      <trkpt lat="48.60859" lon="-3.87402">
        <ele>71.986</ele>
        <time>2017-04-22T18:48:41Z</time>
      </trkpt>
      <trkpt lat="48.61004" lon="-3.87424">
        <ele>77.069</ele>
        <time>2017-04-22T18:49:01Z</time>
      </trkpt>
      <trkpt lat="48.61031" lon="-3.87362">
        <ele>77.066</ele>
        <time>2017-04-22T18:49:21Z</time>
      </trkpt>
      <trkpt lat="48.61157" lon="-3.87263">
        <ele>80.684</ele>
        <time>2017-04-22T18:49:41Z</time>
      </trkpt>
      <trkpt lat="48.61292" lon="-3.8717">
        <ele>81.007</ele>
        <time>2017-04-22T18:50:01Z</time>
      </trkpt>
      <trkpt lat="48.6125" lon="-3.87043">
        <ele>79.517</ele>
        <time>2017-04-22T18:50:21Z</time>
      </trkpt>
      <trkpt lat="48.61269" lon="-3.87025">
        <ele>78.908</ele>
        <time>2017-04-22T18:50:41Z</time>
      </trkpt>
      <trkpt lat="48.61309" lon="-3.86966">
        <ele>78.014</ele>
        <time>2017-04-22T18:51:01Z</time>
      </trkpt>
      <trkpt lat="48.6135" lon="-3.86924">
        <ele>77.05</ele>
        <time>2017-04-22T18:51:21Z</time>
      </trkpt>
      <trkpt lat="48.61352" lon="-3.86845">
        <ele>71.531</ele>
        <time>2017-04-22T18:51:41Z</time>
      </trkpt>
      <trkpt lat="48.61342" lon="-3.86794">
        <ele>69.862</ele>
        <time>2017-04-22T18:52:01Z</time>
      </trkpt>
      <trkpt lat="48.61326" lon="-3.86741">
        <ele>69.023</ele>
        <time>2017-04-22T18:58:41Z</time>
      </trkpt>
      <trkpt lat="48.61319" lon="-3.86689">
        <ele>66.623</ele>
        <time>2017-04-22T18:59:01Z</time>
      </trkpt>
      <trkpt lat="48.61327" lon="-3.86637">
        <ele>60.966</ele>
        <time>2017-04-22T18:59:21Z</time>
      </trkpt>
      <trkpt lat="48.6131" lon="-3.86566">
        <ele>53.343</ele>
        <time>2017-04-22T18:59:41Z</time>
      </trkpt>
      <trkpt lat="48.61258" lon="-3.86445">
        <ele>47.698</ele>
        <time>2017-04-22T19:00:01Z</time>
      </trkpt>
      <trkpt lat="48.61237" lon="-3.86415">
        <ele>49.115</ele>
        <time>2017-04-22T19:00:21Z</time>
      </trkpt>
      <trkpt lat="48.61173" lon="-3.8648">
        <ele>59.226</ele>
        <time>2020-12-19T13:39:27Z</time>
      </trkpt>
      <trkpt lat="48.61126" lon="-3.86467">
        <ele>58.108</ele>
        <time>2020-12-19T13:39:47Z</time>
      </trkpt>
      <trkpt lat="48.61089" lon="-3.86489">
        <ele>55.115</ele>
        <time>2020-12-19T13:40:07Z</time>
      </trkpt>
      <trkpt lat="48.61092" lon="-3.86415">
        <ele>53.981</ele>
        <time>2020-12-19T13:40:27Z</time>
      </trkpt>
      <trkpt lat="48.61109" lon="-3.86335">
        <ele>54.192</ele>
        <time>2020-12-19T13:40:47Z</time>
      </trkpt>
      <trkpt lat="48.61078" lon="-3.86313">
        <ele>58.423</ele>
        <time>2020-12-19T13:41:07Z</time>
      </trkpt>
      <trkpt lat="48.61031" lon="-3.86309">
        <ele>55.814</ele>
        <time>2020-12-19T13:41:27Z</time>
      </trkpt>
      <trkpt lat="48.61011" lon="-3.86287">
        <ele>58.354</ele>
        <time>2020-12-19T13:41:47Z</time>
      </trkpt>
      <trkpt lat="48.61007" lon="-3.8625">
        <ele>60.527</ele>
        <time>2020-12-19T13:42:07Z</time>
      </trkpt>
      <trkpt lat="48.60967" lon="-3.86265">
        <ele>57.184</ele>
        <time>2020-12-19T13:42:27Z</time>
      </trkpt>
      <trkpt lat="48.60933" lon="-3.86255">
        <ele>50.374</ele>
        <time>2020-12-19T13:42:47Z</time>
      </trkpt>
      <trkpt lat="48.60906" lon="-3.86265">
        <ele>39.256</ele>
        <time>2020-12-19T13:43:07Z</time>
      </trkpt>
      <trkpt lat="48.60898" lon="-3.86243">
        <ele>35.921</ele>
        <time>2017-04-22T19:03:01Z</time>
      </trkpt>
      <trkpt lat="48.60906" lon="-3.86166">
        <ele>31.808</ele>
        <time>2017-04-22T19:03:21Z</time>
      </trkpt>
      <trkpt lat="48.60952" lon="-3.86058">
        <ele>28.763</ele>
        <time>2017-04-22T19:03:41Z</time>
      </trkpt>
      <trkpt lat="48.60982" lon="-3.86013">
        <ele>28.239</ele>
        <time>2017-04-22T19:04:01Z</time>
      </trkpt>
      <trkpt lat="48.61013" lon="-3.86003">
        <ele>29.81</ele>
        <time>2017-04-22T19:04:21Z</time>
      </trkpt>
      <trkpt lat="48.61045" lon="-3.86012">
        <ele>31.561</ele>
        <time>2017-04-22T19:04:41Z</time>
      </trkpt>
      <trkpt lat="48.61094" lon="-3.86064">
        <ele>40.182</ele>
        <time>2017-04-22T19:05:01Z</time>
      </trkpt>
      <trkpt lat="48.61168" lon="-3.86158">
        <ele>51.232</ele>
        <time>2017-04-22T19:05:21Z</time>
      </trkpt>
      <trkpt lat="48.61262" lon="-3.86258">
        <ele>21.225</ele>
        <time>2017-04-22T19:05:41Z</time>
      </trkpt>
      <trkpt lat="48.61253" lon="-3.86186">
        <ele>14.742</ele>
        <time>2017-04-22T19:06:01Z</time>
      </trkpt>
      <trkpt lat="48.61271" lon="-3.86235">
        <ele>15.719</ele>
        <time>2017-04-22T19:06:21Z</time>
      </trkpt>
      <trkpt lat="48.61299" lon="-3.86257">
        <ele>16.309</ele>
        <time>2017-04-22T19:06:41Z</time>
      </trkpt>
      <trkpt lat="48.61327" lon="-3.86259">
        <ele>17.319</ele>
        <time>2017-04-22T19:07:01Z</time>
      </trkpt>
      <trkpt lat="48.61348" lon="-3.86296">
        <ele>26.708</ele>
        <time>2020-12-19T13:47:47Z</time>
      </trkpt>
      <trkpt lat="48.61371" lon="-3.86295">
        <ele>31.477</ele>
        <time>2020-12-19T13:48:07Z</time>
      </trkpt>
      <trkpt lat="48.61415" lon="-3.86273">
        <ele>38.983</ele>
        <time>2020-12-19T13:48:27Z</time>
      </trkpt>
      <trkpt lat="48.61474" lon="-3.86196">
        <ele>33.894</ele>
        <time>2020-12-19T13:48:47Z</time>
      </trkpt>
      <trkpt lat="48.61482" lon="-3.86216">
        <ele>41.525</ele>
        <time>2020-12-19T13:49:07Z</time>
      </trkpt>
      <trkpt lat="48.61494" lon="-3.86204">
        <ele>40.296</ele>
        <time>2020-12-19T13:49:27Z</time>
      </trkpt>
      <trkpt lat="48.61536" lon="-3.86226">
        <ele>59.076</ele>
        <time>2020-12-19T13:49:47Z</time>
      </trkpt>
      <trkpt lat="48.61562" lon="-3.8625">
        <ele>68.289</ele>
        <time>2020-12-19T13:50:07Z</time>
      </trkpt>
      <trkpt lat="48.61658" lon="-3.86185">
        <ele>59.986</ele>
        <time>2020-12-19T13:50:27Z</time>
      </trkpt>
      <trkpt lat="48.61674" lon="-3.86133">
        <ele>55.355</ele>
        <time>2020-12-19T13:50:47Z</time>
      </trkpt>
      <trkpt lat="48.61677" lon="-3.86065">
        <ele>38.107</ele>
        <time>2020-12-19T13:51:07Z</time>
      </trkpt>
      <trkpt lat="48.61701" lon="-3.86007">
        <ele>24.017</ele>
        <time>2020-12-19T13:51:27Z</time>
      </trkpt>
      <trkpt lat="48.61733" lon="-3.85983">
        <ele>23.408</ele>
        <time>2020-12-19T13:51:47Z</time>
      </trkpt>
      <trkpt lat="48.61756" lon="-3.85949">
        <ele>23.531</ele>
        <time>2020-12-19T13:52:07Z</time>
      </trkpt>
      <trkpt lat="48.61781" lon="-3.85946">
        <ele>26.727</ele>
        <time>2020-12-19T13:52:27Z</time>
      </trkpt>
      <trkpt lat="48.61808" lon="-3.85965">
        <ele>33.658</ele>
        <time>2020-12-19T13:52:47Z</time>
      </trkpt>
      <trkpt lat="48.61833" lon="-3.8597">
        <ele>38.799</ele>
        <time>2020-12-19T13:53:07Z</time>
      </trkpt>
      <trkpt lat="48.61865" lon="-3.86016">
        <ele>49.19</ele>
        <time>2020-12-19T13:53:27Z</time>
      </trkpt>
      <trkpt lat="48.61921" lon="-3.86044">
        <ele>53.95</ele>
        <time>2020-12-19T13:53:47Z</time>
      </trkpt>
      <trkpt lat="48.61942" lon="-3.86109">
        <ele>64.363</ele>
        <time>2020-12-19T13:54:07Z</time>
      </trkpt>
      <trkpt lat="48.61952" lon="-3.86103">
        <ele>62.81</ele>
        <time>2017-04-22T19:14:41Z</time>
      </trkpt>
      <trkpt lat="48.62015" lon="-3.86102">
        <ele>58.215</ele>
        <time>2017-04-22T19:15:01Z</time>
      </trkpt>
      <trkpt lat="48.62009" lon="-3.8593">
        <ele>48.865</ele>
        <time>2017-04-22T19:15:21Z</time>
      </trkpt>
      <trkpt lat="48.61978" lon="-3.85925">
        <ele>45.111</ele>
        <time>2017-04-22T19:15:41Z</time>
      </trkpt>
      <trkpt lat="48.61957" lon="-3.85864">
        <ele>39.008</ele>
        <time>2017-04-22T19:16:01Z</time>
      </trkpt>
      <trkpt lat="48.61997" lon="-3.8579">
        <ele>36.417</ele>
        <time>2020-12-19T13:56:07Z</time>
      </trkpt>
      <trkpt lat="48.62031" lon="-3.85766">
        <ele>35.883</ele>
        <time>2017-04-22T19:17:01Z</time>
      </trkpt>
      <trkpt lat="48.62085" lon="-3.85753">
        <ele>31.584</ele>
        <time>2017-04-22T19:17:21Z</time>
      </trkpt>
      <trkpt lat="48.62152" lon="-3.85761">
        <ele>24.915</ele>
        <time>2017-04-22T19:17:41Z</time>
      </trkpt>
      <trkpt lat="48.62192" lon="-3.85805">
        <ele>24.426</ele>
        <time>2020-12-19T13:57:27Z</time>
      </trkpt>
      <trkpt lat="48.62198" lon="-3.85781">
        <ele>21.976</ele>
        <time>2020-12-19T13:57:47Z</time>
      </trkpt>
      <trkpt lat="48.62325" lon="-3.85906">
        <ele>22.259</ele>
        <time>2017-04-22T19:18:41Z</time>
      </trkpt>
      <trkpt lat="48.62344" lon="-3.85928">
        <ele>23.246</ele>
        <time>2017-04-22T19:19:01Z</time>
      </trkpt>
      <trkpt lat="48.6236" lon="-3.85879">
        <ele>20.034</ele>
        <time>2017-04-22T19:19:21Z</time>
      </trkpt>
      <trkpt lat="48.62383" lon="-3.8588">
        <ele>20.355</ele>
        <time>2017-04-22T19:19:41Z</time>
      </trkpt>
      <trkpt lat="48.62392" lon="-3.85836">
        <ele>16.11</ele>
        <time>2017-04-22T19:20:01Z</time>
      </trkpt>
      <trkpt lat="48.62418" lon="-3.85745">
        <ele>6.408</ele>
        <time>2017-04-22T19:20:21Z</time>
      </trkpt>
      <trkpt lat="48.62453" lon="-3.85744">
        <ele>5.869</ele>
        <time>2017-04-22T19:20:41Z</time>
      </trkpt>
      <trkpt lat="48.62542" lon="-3.85849">
        <ele>10.125</ele>
        <time>2020-12-19T14:00:27Z</time>
      </trkpt>
      <trkpt lat="48.62527" lon="-3.85993">
        <ele>16.446</ele>
        <time>2020-12-19T14:00:47Z</time>
      </trkpt>
      <trkpt lat="48.62479" lon="-3.86044">
        <ele>18.617</ele>
        <time>2017-04-22T19:22:41Z</time>
      </trkpt>
      <trkpt lat="48.62463" lon="-3.86055">
        <ele>20.088</ele>
        <time>2020-12-19T14:01:27Z</time>
      </trkpt>
      <trkpt lat="48.62455" lon="-3.86097">
        <ele>19.848</ele>
        <time>2020-12-19T14:01:47Z</time>
      </trkpt>
      <trkpt lat="48.62442" lon="-3.8612">
        <ele>20.821</ele>
        <time>2020-12-19T14:02:07Z</time>
      </trkpt>
      <trkpt lat="48.62452" lon="-3.86143">
        <ele>21.188</ele>
        <time>2020-12-19T14:02:27Z</time>
      </trkpt>
      <trkpt lat="48.62446" lon="-3.86264">
        <ele>31.168</ele>
        <time>2017-04-22T19:24:41Z</time>
      </trkpt>
      <trkpt lat="48.62459" lon="-3.86298">
        <ele>34.042</ele>
        <time>2017-04-22T19:25:01Z</time>
      </trkpt>
      <trkpt lat="48.62474" lon="-3.86304">
        <ele>34.926</ele>
        <time>2017-04-22T19:25:21Z</time>
      </trkpt>
      <trkpt lat="48.62465" lon="-3.86349">
        <ele>37.808</ele>
        <time>2020-12-19T14:03:47Z</time>
      </trkpt>
      <trkpt lat="48.62497" lon="-3.86377">
        <ele>41.522</ele>
        <time>2020-12-19T14:04:07Z</time>
      </trkpt>
      <trkpt lat="48.62535" lon="-3.8636">
        <ele>41.998</ele>
        <time>2020-12-19T14:04:27Z</time>
      </trkpt>
      <trkpt lat="48.62548" lon="-3.86372">
        <ele>42.499</ele>
        <time>2020-12-19T14:04:47Z</time>
      </trkpt>
      <trkpt lat="48.62525" lon="-3.86441">
        <ele>46.88</ele>
        <time>2020-12-19T14:05:07Z</time>
      </trkpt>
      <trkpt lat="48.6252" lon="-3.86483">
        <ele>50.881</ele>
        <time>2017-04-22T19:26:41Z</time>
      </trkpt>
      <trkpt lat="48.62591" lon="-3.86516">
        <ele>53.781</ele>
        <time>2017-04-22T19:27:01Z</time>
      </trkpt>
      <trkpt lat="48.62669" lon="-3.86544">
        <ele>53.674</ele>
        <time>2017-04-22T19:27:21Z</time>
      </trkpt>
      <trkpt lat="48.6282" lon="-3.86625">
        <ele>51.091</ele>
        <time>2017-04-22T19:27:41Z</time>
      </trkpt>
      <trkpt lat="48.62826" lon="-3.86654">
        <ele>53.874</ele>
        <time>2017-04-22T19:28:01Z</time>
      </trkpt>
      <trkpt lat="48.62816" lon="-3.86659">
        <ele>55.356</ele>
        <time>2017-04-22T19:28:21Z</time>
      </trkpt>
      <trkpt lat="48.62718" lon="-3.86822">
        <ele>69.521</ele>
        <time>2017-04-22T19:28:41Z</time>
      </trkpt>
      <trkpt lat="48.62706" lon="-3.86863">
        <ele>71.108</ele>
        <time>2017-04-22T19:29:01Z</time>
      </trkpt>
      <trkpt lat="48.62692" lon="-3.86969">
        <ele>74.123</ele>
        <time>2017-04-22T19:29:21Z</time>
      </trkpt>
      <trkpt lat="48.62678" lon="-3.87039">
        <ele>74.849</ele>
        <time>2017-04-22T19:29:41Z</time>
      </trkpt>
      <trkpt lat="48.62642" lon="-3.87125">
        <ele>78.47</ele>
        <time>2017-04-22T19:30:01Z</time>
      </trkpt>
      <trkpt lat="48.62614" lon="-3.87112">
        <ele>78.931</ele>
        <time>2017-04-22T19:30:21Z</time>
      </trkpt>
      <trkpt lat="48.62499" lon="-3.871">
        <ele>80.912</ele>
        <time>2017-04-22T19:30:41Z</time>
      </trkpt>
      <trkpt lat="48.62514" lon="-3.87251">
        <ele>80.092</ele>
        <time>2017-04-22T19:31:01Z</time>
      </trkpt>
      <trkpt lat="48.62533" lon="-3.87315">
        <ele>79.355</ele>
        <time>2017-04-22T19:31:21Z</time>
      </trkpt>
      <trkpt lat="48.62564" lon="-3.87384">
        <ele>80.592</ele>
        <time>2017-04-22T19:31:41Z</time>
      </trkpt>
      <trkpt lat="48.626" lon="-3.8741">
        <ele>81.723</ele>
        <time>2017-04-22T19:32:01Z</time>
      </trkpt>
      <trkpt lat="48.62644" lon="-3.87454">
        <ele>82.783</ele>
        <time>2017-04-22T19:32:21Z</time>
      </trkpt>
      <trkpt lat="48.62669" lon="-3.87489">
        <ele>82.111</ele>
        <time>2017-04-22T19:32:41Z</time>
      </trkpt>
      <trkpt lat="48.62682" lon="-3.87522">
        <ele>81.408</ele>
        <time>2017-04-22T19:33:01Z</time>
      </trkpt>
      <trkpt lat="48.62923" lon="-3.87624">
        <ele>77.868</ele>
        <time>2017-04-22T19:33:21Z</time>
      </trkpt>
      <trkpt lat="48.62946" lon="-3.87618">
        <ele>76.924</ele>
        <time>2017-04-22T19:33:41Z</time>
      </trkpt>
      <trkpt lat="48.63032" lon="-3.87494">
        <ele>73.085</ele>
        <time>2017-04-22T19:34:01Z</time>
      </trkpt>
      <trkpt lat="48.63139" lon="-3.87473">
        <ele>68.056</ele>
        <time>2017-04-22T19:34:21Z</time>
      </trkpt>
      <trkpt lat="48.63156" lon="-3.87512">
        <ele>69.497</ele>
        <time>2017-04-22T19:34:41Z</time>
      </trkpt>
      <trkpt lat="48.63201" lon="-3.87522">
        <ele>69.387</ele>
        <time>2017-04-22T19:35:01Z</time>
      </trkpt>
      <trkpt lat="48.63234" lon="-3.87519">
        <ele>66.51</ele>
        <time>2017-04-22T19:35:21Z</time>
      </trkpt>
      <trkpt lat="48.63257" lon="-3.87506">
        <ele>63.677</ele>
        <time>2017-04-22T19:35:41Z</time>
      </trkpt>
      <trkpt lat="48.63289" lon="-3.87512">
        <ele>60.978</ele>
        <time>2017-04-22T19:39:21Z</time>
      </trkpt>
      <trkpt lat="48.63379" lon="-3.87565">
        <ele>57.233</ele>
        <time>2017-04-22T19:39:41Z</time>
      </trkpt>
      <trkpt lat="48.63442" lon="-3.87589">
        <ele>51.326</ele>
        <time>2017-04-22T19:40:01Z</time>
      </trkpt>
      <trkpt lat="48.63536" lon="-3.87621">
        <ele>43.408</ele>
        <time>2017-04-22T19:40:21Z</time>
      </trkpt>
      <trkpt lat="48.6355" lon="-3.8764">
        <ele>42.573</ele>
        <time>2017-04-22T19:40:41Z</time>
      </trkpt>
      <trkpt lat="48.6353" lon="-3.87805">
        <ele>51.669</ele>
        <time>2017-04-22T19:41:01Z</time>
      </trkpt>
      <trkpt lat="48.63499" lon="-3.87911">
        <ele>58.12</ele>
        <time>2017-04-22T19:41:21Z</time>
      </trkpt>
      <trkpt lat="48.63477" lon="-3.87913">
        <ele>61.131</ele>
        <time>2017-04-22T19:41:41Z</time>
      </trkpt>
      <trkpt lat="48.63468" lon="-3.87999">
        <ele>64.722</ele>
        <time>2017-04-22T19:42:01Z</time>
      </trkpt>
      <trkpt lat="48.63622" lon="-3.87986">
        <ele>49.442</ele>
        <time>2017-04-22T19:42:21Z</time>
      </trkpt>
      <trkpt lat="48.63682" lon="-3.87989">
        <ele>45.975</ele>
        <time>2017-04-22T19:42:41Z</time>
      </trkpt>
      <trkpt lat="48.63705" lon="-3.88006">
        <ele>45.712</ele>
        <time>2017-04-22T19:43:21Z</time>
      </trkpt>
      <trkpt lat="48.63737" lon="-3.88055">
        <ele>48.398</ele>
        <time>2017-04-22T19:44:01Z</time>
      </trkpt>
      <trkpt lat="48.63741" lon="-3.88226">
        <ele>56.415</ele>
        <time>2020-12-19T14:19:07Z</time>
      </trkpt>
      <trkpt lat="48.63738" lon="-3.88297">
        <ele>57.826</ele>
        <time>2020-12-19T14:19:27Z</time>
      </trkpt>
      <trkpt lat="48.63661" lon="-3.88385">
        <ele>66.408</ele>
        <time>2017-04-22T19:45:21Z</time>
      </trkpt>
      <trkpt lat="48.63596" lon="-3.88444">
        <ele>71.065</ele>
        <time>2017-04-22T19:45:41Z</time>
      </trkpt>
      <trkpt lat="48.63625" lon="-3.88481">
        <ele>71.781</ele>
        <time>2017-04-22T19:46:01Z</time>
      </trkpt>
      <trkpt lat="48.63689" lon="-3.88578">
        <ele>69.492</ele>
        <time>2017-04-22T19:46:21Z</time>
      </trkpt>
      <trkpt lat="48.63759" lon="-3.8866">
        <ele>71.763</ele>
        <time>2017-04-22T19:46:41Z</time>
      </trkpt>
      <trkpt lat="48.63819" lon="-3.8871">
        <ele>67.634</ele>
        <time>2017-04-22T19:47:01Z</time>
      </trkpt>
      <trkpt lat="48.63873" lon="-3.8874">
        <ele>60.954</ele>
        <time>2017-04-22T19:47:21Z</time>
      </trkpt>
      <trkpt lat="48.63934" lon="-3.88797">
        <ele>55.357</ele>
        <time>2017-04-22T19:47:41Z</time>
      </trkpt>
      <trkpt lat="48.63953" lon="-3.88882">
        <ele>52.664</ele>
        <time>2017-04-22T19:48:01Z</time>
      </trkpt>
      <trkpt lat="48.63978" lon="-3.88914">
        <ele>51.951</ele>
        <time>2017-04-22T19:48:21Z</time>
      </trkpt>
      <trkpt lat="48.64036" lon="-3.88928">
        <ele>37.101</ele>
        <time>2017-04-22T19:48:41Z</time>
      </trkpt>
      <trkpt lat="48.64073" lon="-3.88955">
        <ele>27.111</ele>
        <time>2017-04-22T19:49:01Z</time>
      </trkpt>
      <trkpt lat="48.6408" lon="-3.89007">
        <ele>33.108</ele>
        <time>2017-04-22T19:49:21Z</time>
      </trkpt>
      <trkpt lat="48.64102" lon="-3.89053">
        <ele>35.241</ele>
        <time>2017-04-22T19:49:41Z</time>
      </trkpt>
      <trkpt lat="48.64147" lon="-3.89101">
        <ele>26.097</ele>
        <time>2017-04-22T19:50:01Z</time>
      </trkpt>
      <trkpt lat="48.64187" lon="-3.89208">
        <ele>18.838</ele>
        <time>2017-04-22T19:50:21Z</time>
      </trkpt>
      <trkpt lat="48.64296" lon="-3.89309">
        <ele>5.749</ele>
        <time>2017-04-22T19:50:41Z</time>
      </trkpt>
      <trkpt lat="48.6431" lon="-3.89298">
        <ele>4.85</ele>
        <time>2017-04-22T19:51:01Z</time>
      </trkpt>
      <trkpt lat="48.6432" lon="-3.89332">
        <ele>4.52</ele>
        <time>2017-04-22T19:51:21Z</time>
      </trkpt>
      <trkpt lat="48.6434" lon="-3.89349">
        <ele>4.063</ele>
        <time>2017-04-22T19:51:41Z</time>
      </trkpt>
      <trkpt lat="48.64411" lon="-3.89441">
        <ele>3.01</ele>
        <time>2017-04-22T19:52:01Z</time>
      </trkpt>
      <trkpt lat="48.6444" lon="-3.89509">
        <ele>9.131</ele>
        <time>2017-04-22T19:52:21Z</time>
      </trkpt>
      <trkpt lat="48.64461" lon="-3.8951">
        <ele>8.161</ele>
        <time>2017-04-22T19:52:41Z</time>
      </trkpt>
      <trkpt lat="48.64486" lon="-3.89526">
        <ele>10.107</ele>
        <time>2017-04-22T19:53:01Z</time>
      </trkpt>
      <trkpt lat="48.64558" lon="-3.89652">
        <ele>13.908</ele>
        <time>2017-04-22T19:53:21Z</time>
      </trkpt>
      <trkpt lat="48.64645" lon="-3.89789">
        <ele>17.119</ele>
        <time>2017-04-22T19:53:41Z</time>
      </trkpt>
      <trkpt lat="48.64733" lon="-3.89851">
        <ele>17.835</ele>
        <time>2017-04-22T19:54:01Z</time>
      </trkpt>
      <trkpt lat="48.64778" lon="-3.89851">
        <ele>12.426</ele>
        <time>2017-04-22T19:54:21Z</time>
      </trkpt>
      <trkpt lat="48.64798" lon="-3.89843">
        <ele>9.787</ele>
        <time>2017-04-22T19:54:41Z</time>
      </trkpt>
      <trkpt lat="48.64827" lon="-3.89842">
        <ele>9.058</ele>
        <time>2017-04-22T19:55:01Z</time>
      </trkpt>
      <trkpt lat="48.64881" lon="-3.89834">
        <ele>4.658</ele>
        <time>2017-04-22T19:55:21Z</time>
      </trkpt>
      <trkpt lat="48.64893" lon="-3.89824">
        <ele>3.281</ele>
        <time>2017-04-22T19:55:41Z</time>
      </trkpt>
      <trkpt lat="48.64933" lon="-3.8991">
        <ele>16.218</ele>
        <time>2017-04-22T19:56:01Z</time>
      </trkpt>
      <trkpt lat="48.64955" lon="-3.89919">
        <ele>13.835</ele>
        <time>2017-04-22T19:56:21Z</time>
      </trkpt>
      <trkpt lat="48.64964" lon="-3.89938">
        <ele>14.986</ele>
        <time>2017-04-22T19:56:41Z</time>
      </trkpt>
      <trkpt lat="48.65028" lon="-3.89988">
        <ele>13.114</ele>
        <time>2017-04-22T19:57:01Z</time>
      </trkpt>
      <trkpt lat="48.65058" lon="-3.90016">
        <ele>15.408</ele>
        <time>2017-04-22T19:57:21Z</time>
      </trkpt>
      <trkpt lat="48.65081" lon="-3.90024">
        <ele>13.619</ele>
        <time>2017-04-22T19:57:41Z</time>
      </trkpt>
      <trkpt lat="48.65113" lon="-3.90053">
        <ele>11.415</ele>
        <time>2017-04-22T19:58:01Z</time>
      </trkpt>
      <trkpt lat="48.65114" lon="-3.90071">
        <ele>13.796</ele>
        <time>2017-04-22T19:58:21Z</time>
      </trkpt>
      <trkpt lat="48.65243" lon="-3.90172">
        <ele>8.527</ele>
        <time>2017-04-22T19:58:41Z</time>
      </trkpt>
      <trkpt lat="48.65301" lon="-3.90221">
        <ele>13.848</ele>
        <time>2017-04-22T19:59:01Z</time>
      </trkpt>
      <trkpt lat="48.65336" lon="-3.90232">
        <ele>14.878</ele>
        <time>2017-04-22T19:59:21Z</time>
      </trkpt>
      <trkpt lat="48.65381" lon="-3.90222">
        <ele>11.231</ele>
        <time>2017-04-22T19:59:41Z</time>
      </trkpt>
      <trkpt lat="48.65443" lon="-3.90239">
        <ele>12.888</ele>
        <time>2017-04-22T20:00:01Z</time>
      </trkpt>
      <trkpt lat="48.65506" lon="-3.90267">
        <ele>6.587</ele>
        <time>2017-04-22T20:00:21Z</time>
      </trkpt>
      <trkpt lat="48.65598" lon="-3.90374">
        <ele>6.542</ele>
        <time>2017-04-22T20:00:41Z</time>
      </trkpt>
      <trkpt lat="48.65656" lon="-3.90428">
        <ele>4.526</ele>
        <time>2017-04-22T20:01:01Z</time>
      </trkpt>
      <trkpt lat="48.6572" lon="-3.90479">
        <ele>5.008</ele>
        <time>2017-04-22T20:01:21Z</time>
      </trkpt>
      <trkpt lat="48.65832" lon="-3.90546">
        <ele>2.364</ele>
        <time>2017-04-22T20:01:41Z</time>
      </trkpt>
      <trkpt lat="48.65925" lon="-3.90587">
        <ele>6.52</ele>
        <time>2017-04-22T20:02:01Z</time>
      </trkpt>
      <trkpt lat="48.66039" lon="-3.90613">
        <ele>4.431</ele>
        <time>2017-04-22T20:02:21Z</time>
      </trkpt>
      <trkpt lat="48.66203" lon="-3.90614">
        <ele>6.432</ele>
        <time>2017-04-22T20:02:41Z</time>
      </trkpt>
      <trkpt lat="48.66206" lon="-3.90602">
        <ele>6.123</ele>
        <time>2017-04-22T20:03:01Z</time>
      </trkpt>
      <trkpt lat="48.66272" lon="-3.90574">
        <ele>8.273</ele>
        <time>2017-04-22T20:03:21Z</time>
      </trkpt>
      <trkpt lat="48.66287" lon="-3.90571">
        <ele>9.576</ele>
        <time>2017-04-22T20:03:41Z</time>
      </trkpt>
      <trkpt lat="48.66295" lon="-3.90585">
        <ele>10.273</ele>
        <time>2017-04-22T20:04:01Z</time>
      </trkpt>
      <trkpt lat="48.66325" lon="-3.90567">
        <ele>10.645</ele>
        <time>2017-04-22T20:04:21Z</time>
      </trkpt>
      <trkpt lat="48.66432" lon="-3.90439">
        <ele>5.547</ele>
        <time>2017-04-22T20:04:41Z</time>
      </trkpt>
      <trkpt lat="48.66465" lon="-3.9037">
        <ele>5.611</ele>
        <time>2017-04-22T20:05:01Z</time>
      </trkpt>
      <trkpt lat="48.66493" lon="-3.90271">
        <ele>6.208</ele>
        <time>2017-04-22T20:05:21Z</time>
      </trkpt>
      <trkpt lat="48.6648" lon="-3.90186">
        <ele>7.19</ele>
        <time>2017-04-22T20:05:41Z</time>
      </trkpt>
      <trkpt lat="48.66482" lon="-3.9014">
        <ele>8.086</ele>
        <time>2017-04-22T20:06:01Z</time>
      </trkpt>
      <trkpt lat="48.665" lon="-3.90108">
        <ele>8.857</ele>
        <time>2017-04-22T20:06:21Z</time>
      </trkpt>
      <trkpt lat="48.66525" lon="-3.90035">
        <ele>9.878</ele>
        <time>2017-04-22T20:06:41Z</time>
      </trkpt>
      <trkpt lat="48.66563" lon="-3.9009">
        <ele>18.619</ele>
        <time>2017-04-22T20:07:01Z</time>
      </trkpt>
      <trkpt lat="48.66581" lon="-3.90131">
        <ele>23.219</ele>
        <time>2017-04-22T20:07:21Z</time>
      </trkpt>
      <trkpt lat="48.66646" lon="-3.90215">
        <ele>30.542</ele>
        <time>2017-04-22T20:07:41Z</time>
      </trkpt>
      <trkpt lat="48.66666" lon="-3.90054">
        <ele>33.919</ele>
        <time>2017-04-22T20:08:01Z</time>
      </trkpt>
      <trkpt lat="48.66687" lon="-3.89867">
        <ele>39.859</ele>
        <time>2017-04-22T20:08:21Z</time>
      </trkpt>
      <trkpt lat="48.6675" lon="-3.89756">
        <ele>39.803</ele>
        <time>2017-04-22T20:08:41Z</time>
      </trkpt>
      <trkpt lat="48.66785" lon="-3.89674">
        <ele>39.723</ele>
        <time>2017-04-22T20:09:01Z</time>
      </trkpt>
      <trkpt lat="48.66839" lon="-3.89492">
        <ele>45.208</ele>
        <time>2017-04-22T20:09:21Z</time>
      </trkpt>
      <trkpt lat="48.6681" lon="-3.89414">
        <ele>45.371</ele>
        <time>2017-04-22T20:09:41Z</time>
      </trkpt>
      <trkpt lat="48.66779" lon="-3.89411">
        <ele>40.057</ele>
        <time>2017-04-22T20:10:01Z</time>
      </trkpt>
      <trkpt lat="48.66768" lon="-3.89383">
        <ele>36.918</ele>
        <time>2017-04-22T20:10:21Z</time>
      </trkpt>
      <trkpt lat="48.66743" lon="-3.89404">
        <ele>31.849</ele>
        <time>2017-04-22T20:10:41Z</time>
      </trkpt>
      <trkpt lat="48.66715" lon="-3.89385">
        <ele>25.29</ele>
        <time>2017-04-22T20:11:01Z</time>
      </trkpt>
      <trkpt lat="48.66692" lon="-3.89389">
        <ele>19.34</ele>
        <time>2017-04-22T20:11:21Z</time>
      </trkpt>
      <trkpt lat="48.66685" lon="-3.8937">
        <ele>16.983</ele>
        <time>2017-04-22T20:11:41Z</time>
      </trkpt>
      <trkpt lat="48.66675" lon="-3.89362">
        <ele>13.95</ele>
        <time>2017-04-22T20:12:01Z</time>
      </trkpt>
      <trkpt lat="48.66673" lon="-3.89438">
        <ele>15.432</ele>
        <time>2017-04-22T20:12:21Z</time>
      </trkpt>
      <trkpt lat="48.66667" lon="-3.89372">
        <ele>11.692</ele>
        <time>2017-04-22T20:12:41Z</time>
      </trkpt>
      <trkpt lat="48.66659" lon="-3.89344">
        <ele>9.711</ele>
        <time>2017-04-22T20:13:01Z</time>
      </trkpt>
      <trkpt lat="48.66648" lon="-3.89327">
        <ele>7.608</ele>
        <time>2017-04-22T20:13:21Z</time>
      </trkpt>
      <trkpt lat="48.6665" lon="-3.8928">
        <ele>8.199</ele>
        <time>2017-04-22T20:13:41Z</time>
      </trkpt>
      <trkpt lat="48.66655" lon="-3.89254">
        <ele>8.775</ele>
        <time>2017-04-22T20:14:01Z</time>
      </trkpt>
      <trkpt lat="48.66666" lon="-3.89249">
        <ele>10.036</ele>
        <time>2017-04-22T20:14:21Z</time>
      </trkpt>
      <trkpt lat="48.66678" lon="-3.89219">
        <ele>12.877</ele>
        <time>2017-04-22T20:14:41Z</time>
      </trkpt>
      <trkpt lat="48.66697" lon="-3.89175">
        <ele>15.778</ele>
        <time>2017-04-22T20:15:01Z</time>
      </trkpt>
      <trkpt lat="48.66698" lon="-3.89136">
        <ele>11.578</ele>
        <time>2017-04-22T20:15:21Z</time>
      </trkpt>
      <trkpt lat="48.6671" lon="-3.89118">
        <ele>11.991</ele>
        <time>2017-04-22T20:15:41Z</time>
      </trkpt>
      <trkpt lat="48.66709" lon="-3.89098">
        <ele>9.138</ele>
        <time>2017-04-22T20:16:01Z</time>
      </trkpt>
      <trkpt lat="48.66731" lon="-3.89092">
        <ele>11.624</ele>
        <time>2017-04-22T20:16:21Z</time>
      </trkpt>
      <trkpt lat="48.66758" lon="-3.89072">
        <ele>13.804</ele>
        <time>2017-04-22T20:16:41Z</time>
      </trkpt>
      <trkpt lat="48.66771" lon="-3.89038">
        <ele>8.814</ele>
        <time>2017-04-22T20:17:01Z</time>
      </trkpt>
      <trkpt lat="48.66807" lon="-3.89025">
        <ele>14.508</ele>
        <time>2017-04-22T20:17:21Z</time>
      </trkpt>
      <trkpt lat="48.66824" lon="-3.89012">
        <ele>13.128</ele>
        <time>2017-04-22T20:17:41Z</time>
      </trkpt>
      <trkpt lat="48.66857" lon="-3.89022">
        <ele>17.154</ele>
        <time>2017-04-22T20:18:01Z</time>
      </trkpt>
      <trkpt lat="48.66888" lon="-3.89012">
        <ele>9.735</ele>
        <time>2017-04-22T20:18:21Z</time>
      </trkpt>
      <trkpt lat="48.66913" lon="-3.89056">
        <ele>17.016</ele>
        <time>2017-04-22T20:18:41Z</time>
      </trkpt>
      <trkpt lat="48.66941" lon="-3.89084">
        <ele>24.627</ele>
        <time>2017-04-22T20:19:01Z</time>
      </trkpt>
      <trkpt lat="48.66981" lon="-3.89074">
        <ele>15.297</ele>
        <time>2017-04-22T20:19:21Z</time>
      </trkpt>
      <trkpt lat="48.67001" lon="-3.89053">
        <ele>8.76</ele>
        <time>2017-04-22T20:19:41Z</time>
      </trkpt>
      <trkpt lat="48.67021" lon="-3.89061">
        <ele>10.847</ele>
        <time>2017-04-22T20:20:01Z</time>
      </trkpt>
      <trkpt lat="48.6703" lon="-3.89076">
        <ele>13.823</ele>
        <time>2017-04-22T20:20:21Z</time>
      </trkpt>
      <trkpt lat="48.67042" lon="-3.89055">
        <ele>10.483</ele>
        <time>2017-04-22T20:20:41Z</time>
      </trkpt>
      <trkpt lat="48.67082" lon="-3.89065">
        <ele>10.211</ele>
        <time>2017-04-22T20:21:01Z</time>
      </trkpt>
      <trkpt lat="48.67089" lon="-3.8907">
        <ele>9.508</ele>
        <time>2017-04-22T20:21:21Z</time>
      </trkpt>
      <trkpt lat="48.67095" lon="-3.89104">
        <ele>12.168</ele>
        <time>2017-04-22T20:21:41Z</time>
      </trkpt>
      <trkpt lat="48.67093" lon="-3.89142">
        <ele>16.234</ele>
        <time>2017-04-22T20:22:01Z</time>
      </trkpt>
      <trkpt lat="48.67096" lon="-3.8916">
        <ele>16.425</ele>
        <time>2017-04-22T20:22:21Z</time>
      </trkpt>
      <trkpt lat="48.67095" lon="-3.89195">
        <ele>16.786</ele>
        <time>2017-04-22T20:22:41Z</time>
      </trkpt>
      <trkpt lat="48.6709" lon="-3.89228">
        <ele>16.487</ele>
        <time>2017-04-22T20:23:01Z</time>
      </trkpt>
      <trkpt lat="48.67091" lon="-3.89247">
        <ele>15.057</ele>
        <time>2017-04-22T20:23:21Z</time>
      </trkpt>
      <trkpt lat="48.67086" lon="-3.89268">
        <ele>18.16</ele>
        <time>2017-04-22T20:23:41Z</time>
      </trkpt>
      <trkpt lat="48.67101" lon="-3.89383">
        <ele>18.537</ele>
        <time>2017-04-22T20:24:01Z</time>
      </trkpt>
      <trkpt lat="48.67123" lon="-3.89409">
        <ele>10.231</ele>
        <time>2017-04-22T20:24:21Z</time>
      </trkpt>
      <trkpt lat="48.67142" lon="-3.89463">
        <ele>7.861</ele>
        <time>2017-04-22T20:24:41Z</time>
      </trkpt>
      <trkpt lat="48.67143" lon="-3.8948">
        <ele>9.607</ele>
        <time>2017-04-22T20:25:01Z</time>
      </trkpt>
      <trkpt lat="48.67151" lon="-3.89503">
        <ele>9.008</ele>
        <time>2017-04-22T20:25:21Z</time>
      </trkpt>
      <trkpt lat="48.67142" lon="-3.89581">
        <ele>26.049</ele>
        <time>2017-04-22T20:25:41Z</time>
      </trkpt>
      <trkpt lat="48.67152" lon="-3.89624">
        <ele>27.975</ele>
        <time>2017-04-22T20:26:01Z</time>
      </trkpt>
      <trkpt lat="48.67176" lon="-3.89646">
        <ele>20.336</ele>
        <time>2017-04-22T20:26:21Z</time>
      </trkpt>
      <trkpt lat="48.67182" lon="-3.89681">
        <ele>22.857</ele>
        <time>2017-04-22T20:26:41Z</time>
      </trkpt>
      <trkpt lat="48.67206" lon="-3.89736">
        <ele>20.248</ele>
        <time>2017-04-22T20:27:01Z</time>
      </trkpt>
      <trkpt lat="48.67229" lon="-3.8975">
        <ele>15.318</ele>
        <time>2017-04-22T20:27:21Z</time>
      </trkpt>
      <trkpt lat="48.67241" lon="-3.89765">
        <ele>14.631</ele>
        <time>2017-04-22T20:27:41Z</time>
      </trkpt>
      <trkpt lat="48.67222" lon="-3.898">
        <ele>20.028</ele>
        <time>2017-04-22T20:28:01Z</time>
      </trkpt>
      <trkpt lat="48.67229" lon="-3.89827">
        <ele>15.524</ele>
        <time>2017-04-22T20:28:21Z</time>
      </trkpt>
      <trkpt lat="48.67223" lon="-3.89846">
        <ele>12.304</ele>
        <time>2017-04-22T20:28:41Z</time>
      </trkpt>
      <trkpt lat="48.6718" lon="-3.89855">
        <ele>12.814</ele>
        <time>2017-04-22T20:29:01Z</time>
      </trkpt>
      <trkpt lat="48.67148" lon="-3.89856">
        <ele>12.808</ele>
        <time>2017-04-22T20:29:21Z</time>
      </trkpt>
      <trkpt lat="48.67135" lon="-3.89849">
        <ele>13.788</ele>
        <time>2017-04-22T20:29:41Z</time>
      </trkpt>
      <trkpt lat="48.67104" lon="-3.8988">
        <ele>11.264</ele>
        <time>2017-04-22T20:30:01Z</time>
      </trkpt>
      <trkpt lat="48.67073" lon="-3.89937">
        <ele>6.485</ele>
        <time>2017-04-22T20:30:21Z</time>
      </trkpt>
      <trkpt lat="48.67032" lon="-3.90114">
        <ele>12.126</ele>
        <time>2017-04-22T20:30:41Z</time>
      </trkpt>
      <trkpt lat="48.67029" lon="-3.90175">
        <ele>14.327</ele>
        <time>2017-04-22T20:31:01Z</time>
      </trkpt>
      <trkpt lat="48.67041" lon="-3.9022">
        <ele>13.167</ele>
        <time>2017-04-22T20:31:21Z</time>
      </trkpt>
      <trkpt lat="48.67043" lon="-3.90251">
        <ele>13.58</ele>
        <time>2017-04-22T20:31:41Z</time>
      </trkpt>
      <trkpt lat="48.67037" lon="-3.90353">
        <ele>11.927</ele>
        <time>2017-04-22T20:32:01Z</time>
      </trkpt>
      <trkpt lat="48.67006" lon="-3.90381">
        <ele>15.547</ele>
        <time>2017-04-22T20:32:21Z</time>
      </trkpt>
      <trkpt lat="48.66992" lon="-3.90463">
        <ele>12.029</ele>
        <time>2017-04-22T20:32:41Z</time>
      </trkpt>
      <trkpt lat="48.66998" lon="-3.90538">
        <ele>13.221</ele>
        <time>2017-04-22T20:33:01Z</time>
      </trkpt>
      <trkpt lat="48.66995" lon="-3.90569">
        <ele>13.508</ele>
        <time>2017-04-22T20:33:21Z</time>
      </trkpt>
      <trkpt lat="48.66985" lon="-3.90589">
        <ele>13.21</ele>
        <time>2017-04-22T20:33:41Z</time>
      </trkpt>
      <trkpt lat="48.66984" lon="-3.90609">
        <ele>11.766</ele>
        <time>2017-04-22T20:34:01Z</time>
      </trkpt>
      <trkpt lat="48.6695" lon="-3.90669">
        <ele>3.157</ele>
        <time>2017-04-22T20:34:21Z</time>
      </trkpt>
      <trkpt lat="48.66943" lon="-3.90723">
        <ele>2.288</ele>
        <time>2017-04-22T20:34:41Z</time>
      </trkpt>
      <trkpt lat="48.66912" lon="-3.90742">
        <ele>4.879</ele>
        <time>2017-04-22T20:35:01Z</time>
      </trkpt>
      <trkpt lat="48.66926" lon="-3.90786">
        <ele>4.779</ele>
        <time>2017-04-22T20:35:21Z</time>
      </trkpt>
      <trkpt lat="48.6694" lon="-3.90983">
        <ele>8.492</ele>
        <time>2017-04-22T20:35:41Z</time>
      </trkpt>
      <trkpt lat="48.66987" lon="-3.91119">
        <ele>10.099</ele>
        <time>2017-04-22T20:36:01Z</time>
      </trkpt>
      <trkpt lat="48.67012" lon="-3.91172">
        <ele>15.473</ele>
        <time>2017-04-22T20:36:21Z</time>
      </trkpt>
      <trkpt lat="48.67032" lon="-3.91173">
        <ele>17.085</ele>
        <time>2017-04-22T20:36:41Z</time>
      </trkpt>
      <trkpt lat="48.67044" lon="-3.91194">
        <ele>21.513</ele>
        <time>2017-04-22T20:37:01Z</time>
      </trkpt>
      <trkpt lat="48.67102" lon="-3.91208">
        <ele>15.008</ele>
        <time>2017-04-22T20:37:21Z</time>
      </trkpt>
      <trkpt lat="48.67135" lon="-3.91251">
        <ele>20.763</ele>
        <time>2017-04-22T20:37:41Z</time>
      </trkpt>
      <trkpt lat="48.6717" lon="-3.91265">
        <ele>21.849</ele>
        <time>2017-04-22T20:38:01Z</time>
      </trkpt>
      <trkpt lat="48.67188" lon="-3.91254">
        <ele>20.79</ele>
        <time>2017-04-22T20:38:21Z</time>
      </trkpt>
      <trkpt lat="48.67196" lon="-3.91235">
        <ele>15.091</ele>
        <time>2017-04-22T20:38:41Z</time>
      </trkpt>
      <trkpt lat="48.67222" lon="-3.91224">
        <ele>12.492</ele>
        <time>2017-04-22T20:39:01Z</time>
      </trkpt>
      <trkpt lat="48.67233" lon="-3.91228">
        <ele>13.272</ele>
        <time>2017-04-22T20:39:21Z</time>
      </trkpt>
      <trkpt lat="48.67241" lon="-3.91223">
        <ele>11.615</ele>
        <time>2017-04-22T20:39:41Z</time>
      </trkpt>
      <trkpt lat="48.67287" lon="-3.9127">
        <ele>15.112</ele>
        <time>2017-04-22T20:40:01Z</time>
      </trkpt>
      <trkpt lat="48.67341" lon="-3.91339">
        <ele>3.093</ele>
        <time>2017-04-22T20:40:21Z</time>
      </trkpt>
      <trkpt lat="48.67355" lon="-3.91376">
        <ele>4.865</ele>
        <time>2017-04-22T20:40:41Z</time>
      </trkpt>
      <trkpt lat="48.67357" lon="-3.91444">
        <ele>2.621</ele>
        <time>2017-04-22T20:41:01Z</time>
      </trkpt>
      <trkpt lat="48.67324" lon="-3.91482">
        <ele>16.308</ele>
        <time>2017-04-22T20:41:21Z</time>
      </trkpt>
      <trkpt lat="48.67314" lon="-3.91515">
        <ele>17.035</ele>
        <time>2017-04-22T20:41:41Z</time>
      </trkpt>
      <trkpt lat="48.67316" lon="-3.91566">
        <ele>11.121</ele>
        <time>2017-04-22T20:42:01Z</time>
      </trkpt>
      <trkpt lat="48.67291" lon="-3.91611">
        <ele>22.412</ele>
        <time>2017-04-22T20:42:21Z</time>
      </trkpt>
      <trkpt lat="48.67287" lon="-3.91636">
        <ele>22.393</ele>
        <time>2017-04-22T20:42:41Z</time>
      </trkpt>
      <trkpt lat="48.67298" lon="-3.91661">
        <ele>18.474</ele>
        <time>2017-04-22T20:43:01Z</time>
      </trkpt>
      <trkpt lat="48.67294" lon="-3.91691">
        <ele>19.484</ele>
        <time>2017-04-22T20:43:21Z</time>
      </trkpt>
      <trkpt lat="48.67279" lon="-3.91733">
        <ele>21.517</ele>
        <time>2017-04-22T20:43:41Z</time>
      </trkpt>
      <trkpt lat="48.67307" lon="-3.91757">
        <ele>18.874</ele>
        <time>2017-04-22T20:44:01Z</time>
      </trkpt>
      <trkpt lat="48.67339" lon="-3.91773">
        <ele>13.323</ele>
        <time>2017-04-22T20:44:21Z</time>
      </trkpt>
      <trkpt lat="48.67344" lon="-3.9182">
        <ele>12.783</ele>
        <time>2017-04-22T20:44:41Z</time>
      </trkpt>
      <trkpt lat="48.67366" lon="-3.91883">
        <ele>9.311</ele>
        <time>2017-04-22T20:45:01Z</time>
      </trkpt>
      <trkpt lat="48.674" lon="-3.91936">
        <ele>10.408</ele>
        <time>2017-04-22T20:45:21Z</time>
      </trkpt>
      <trkpt lat="48.67409" lon="-3.91939">
        <ele>8.468</ele>
        <time>2017-04-22T20:45:41Z</time>
      </trkpt>
      <trkpt lat="48.67418" lon="-3.91952">
        <ele>8.024</ele>
        <time>2017-04-22T20:46:01Z</time>
      </trkpt>
      <trkpt lat="48.6741" lon="-3.91973">
        <ele>11.735</ele>
        <time>2017-04-22T20:46:21Z</time>
      </trkpt>
      <trkpt lat="48.67424" lon="-3.92007">
        <ele>10.646</ele>
        <time>2017-04-22T20:46:41Z</time>
      </trkpt>
      <trkpt lat="48.6753" lon="-3.92179">
        <ele>6.117</ele>
        <time>2017-04-22T20:47:01Z</time>
      </trkpt>
      <trkpt lat="48.67533" lon="-3.92202">
        <ele>5.867</ele>
        <time>2017-04-22T20:47:21Z</time>
      </trkpt>
      <trkpt lat="48.67523" lon="-3.92229">
        <ele>5.83</ele>
        <time>2017-04-22T20:47:41Z</time>
      </trkpt>
      <trkpt lat="48.67491" lon="-3.92252">
        <ele>5.167</ele>
        <time>2017-04-22T20:48:01Z</time>
      </trkpt>
      <trkpt lat="48.67476" lon="-3.92244">
        <ele>6.842</ele>
        <time>2017-04-22T20:48:21Z</time>
      </trkpt>
      <trkpt lat="48.67452" lon="-3.92269">
        <ele>6.722</ele>
        <time>2017-04-22T20:48:41Z</time>
      </trkpt>
      <trkpt lat="48.67432" lon="-3.92275">
        <ele>8.114</ele>
        <time>2017-04-22T20:49:01Z</time>
      </trkpt>
      <trkpt lat="48.67435" lon="-3.92291">
        <ele>6.408</ele>
        <time>2017-04-22T20:49:21Z</time>
      </trkpt>
      <trkpt lat="48.67401" lon="-3.923">
        <ele>7.52</ele>
        <time>2017-04-22T20:49:41Z</time>
      </trkpt>
      <trkpt lat="48.67374" lon="-3.92283">
        <ele>9.086</ele>
        <time>2017-04-22T20:50:01Z</time>
      </trkpt>
      <trkpt lat="48.67331" lon="-3.92274">
        <ele>7.277</ele>
        <time>2017-04-22T20:50:21Z</time>
      </trkpt>
      <trkpt lat="48.67225" lon="-3.92259">
        <ele>7.438</ele>
        <time>2017-04-22T20:50:41Z</time>
      </trkpt>
      <trkpt lat="48.67181" lon="-3.92259">
        <ele>7.829</ele>
        <time>2017-04-22T20:51:01Z</time>
      </trkpt>
      <trkpt lat="48.67173" lon="-3.92277">
        <ele>6.889</ele>
        <time>2017-04-22T20:51:21Z</time>
      </trkpt>
      <trkpt lat="48.67067" lon="-3.92311">
        <ele>5.742</ele>
        <time>2017-04-22T20:51:41Z</time>
      </trkpt>
      <trkpt lat="48.66928" lon="-3.92392">
        <ele>11.329</ele>
        <time>2020-12-19T15:26:27Z</time>
      </trkpt>
      <trkpt lat="48.66815" lon="-3.92522">
        <ele>7.035</ele>
        <time>2020-12-19T15:26:47Z</time>
      </trkpt>
      <trkpt lat="48.66846" lon="-3.92242">
        <ele>26.786</ele>
        <time>2020-12-19T15:27:07Z</time>
      </trkpt>
      <trkpt lat="48.6676" lon="-3.92253">
        <ele>30.414</ele>
        <time>2017-04-22T20:52:21Z</time>
      </trkpt>
      <trkpt lat="48.66566" lon="-3.92189">
        <ele>37.308</ele>
        <time>2017-04-22T20:52:41Z</time>
      </trkpt>
      <trkpt lat="48.66563" lon="-3.92391">
        <ele>29.189</ele>
        <time>2017-04-22T20:53:01Z</time>
      </trkpt>
      <trkpt lat="48.66553" lon="-3.92436">
        <ele>25.615</ele>
        <time>2017-04-22T20:53:21Z</time>
      </trkpt>
      <trkpt lat="48.66509" lon="-3.92463">
        <ele>21.166</ele>
        <time>2017-04-22T20:53:41Z</time>
      </trkpt>
      <trkpt lat="48.66508" lon="-3.92648">
        <ele>7.777</ele>
        <time>2017-04-22T20:54:01Z</time>
      </trkpt>
      <trkpt lat="48.66416" lon="-3.92697">
        <ele>7.038</ele>
        <time>2017-04-22T20:54:21Z</time>
      </trkpt>
      <trkpt lat="48.66362" lon="-3.92718">
        <ele>6.078</ele>
        <time>2017-04-22T20:54:41Z</time>
      </trkpt>
      <trkpt lat="48.6631" lon="-3.92722">
        <ele>6.741</ele>
        <time>2017-04-22T20:55:01Z</time>
      </trkpt>
      <trkpt lat="48.66155" lon="-3.92714">
        <ele>8.328</ele>
        <time>2017-04-22T20:55:21Z</time>
      </trkpt>
      <trkpt lat="48.66134" lon="-3.92705">
        <ele>8.747</ele>
        <time>2017-04-22T20:55:41Z</time>
      </trkpt>
      <trkpt lat="48.66107" lon="-3.92639">
        <ele>12.329</ele>
        <time>2017-04-22T20:56:01Z</time>
      </trkpt>
      <trkpt lat="48.66084" lon="-3.92601">
        <ele>16.721</ele>
        <time>2017-04-22T20:56:21Z</time>
      </trkpt>
      <trkpt lat="48.66056" lon="-3.92581">
        <ele>18.208</ele>
        <time>2017-04-22T21:17:41Z</time>
      </trkpt>
      <trkpt lat="48.66" lon="-3.92565">
        <ele>22.02</ele>
        <time>2017-04-22T21:18:01Z</time>
      </trkpt>
      <trkpt lat="48.65982" lon="-3.92555">
        <ele>24.666</ele>
        <time>2017-04-22T21:18:21Z</time>
      </trkpt>
      <trkpt lat="48.65941" lon="-3.92652">
        <ele>24.547</ele>
        <time>2017-04-22T21:18:41Z</time>
      </trkpt>
      <trkpt lat="48.65923" lon="-3.92848">
        <ele>16.718</ele>
        <time>2017-04-22T21:19:01Z</time>
      </trkpt>
      <trkpt lat="48.65908" lon="-3.9289">
        <ele>13.519</ele>
        <time>2017-04-22T21:19:21Z</time>
      </trkpt>
      <trkpt lat="48.6585" lon="-3.92977">
        <ele>4.089</ele>
        <time>2017-04-22T21:19:41Z</time>
      </trkpt>
      <trkpt lat="48.65834" lon="-3.92991">
        <ele>3.692</ele>
        <time>2017-04-22T21:20:01Z</time>
      </trkpt>
      <trkpt lat="48.65792" lon="-3.93003">
        <ele>4.439</ele>
        <time>2017-04-22T21:20:21Z</time>
      </trkpt>
      <trkpt lat="48.6578" lon="-3.93018">
        <ele>4.364</ele>
        <time>2017-04-22T21:20:41Z</time>
      </trkpt>
      <trkpt lat="48.65745" lon="-3.93163">
        <ele>2.506</ele>
        <time>2017-04-22T21:21:01Z</time>
      </trkpt>
      <trkpt lat="48.65727" lon="-3.93302">
        <ele>3.716</ele>
        <time>2017-04-22T21:21:21Z</time>
      </trkpt>
      <trkpt lat="48.65725" lon="-3.93374">
        <ele>2.808</ele>
        <time>2017-04-22T21:21:41Z</time>
      </trkpt>
      <trkpt lat="48.65672" lon="-3.93526">
        <ele>5.012</ele>
        <time>2017-04-22T21:22:01Z</time>
      </trkpt>
      <trkpt lat="48.65657" lon="-3.93646">
        <ele>6.658</ele>
        <time>2017-04-22T21:22:21Z</time>
      </trkpt>
      <trkpt lat="48.65632" lon="-3.93724">
        <ele>7.339</ele>
        <time>2017-04-22T21:22:41Z</time>
      </trkpt>
      <trkpt lat="48.65598" lon="-3.9379">
        <ele>8.79</ele>
        <time>2017-04-22T21:23:01Z</time>
      </trkpt>
      <trkpt lat="48.65547" lon="-3.93851">
        <ele>11.061</ele>
        <time>2017-04-22T21:23:21Z</time>
      </trkpt>
      <trkpt lat="48.65513" lon="-3.93875">
        <ele>10.831</ele>
        <time>2017-04-22T21:23:41Z</time>
      </trkpt>
      <trkpt lat="48.6544" lon="-3.93918">
        <ele>13.354</ele>
        <time>2017-04-22T21:24:01Z</time>
      </trkpt>
      <trkpt lat="48.65415" lon="-3.93916">
        <ele>15.151</ele>
        <time>2017-04-22T21:24:21Z</time>
      </trkpt>
      <trkpt lat="48.65401" lon="-3.93971">
        <ele>15.279</ele>
        <time>2017-04-22T21:24:41Z</time>
      </trkpt>
      <trkpt lat="48.65386" lon="-3.94118">
        <ele>18.005</ele>
        <time>2017-04-22T21:25:01Z</time>
      </trkpt>
      <trkpt lat="48.6539" lon="-3.94204">
        <ele>18.625</ele>
        <time>2017-04-22T21:25:21Z</time>
      </trkpt>
      <trkpt lat="48.65387" lon="-3.94237">
        <ele>18.208</ele>
        <time>2017-04-22T21:25:41Z</time>
      </trkpt>
      <trkpt lat="48.65367" lon="-3.94264">
        <ele>21.533</ele>
        <time>2017-04-22T21:26:01Z</time>
      </trkpt>
      <trkpt lat="48.65339" lon="-3.94275">
        <ele>25.459</ele>
        <time>2017-04-22T21:26:21Z</time>
      </trkpt>
      <trkpt lat="48.65286" lon="-3.94269">
        <ele>28.71</ele>
        <time>2017-04-22T21:26:41Z</time>
      </trkpt>
      <trkpt lat="48.65318" lon="-3.94317">
        <ele>26.151</ele>
        <time>2017-04-22T21:27:01Z</time>
      </trkpt>
      <trkpt lat="48.65339" lon="-3.94325">
        <ele>24.922</ele>
        <time>2017-04-22T21:27:21Z</time>
      </trkpt>
      <trkpt lat="48.65339" lon="-3.94354">
        <ele>23.162</ele>
        <time>2017-04-22T21:27:41Z</time>
      </trkpt>
      <trkpt lat="48.65313" lon="-3.9445">
        <ele>21.185</ele>
        <time>2017-04-22T21:28:01Z</time>
      </trkpt>
      <trkpt lat="48.65282" lon="-3.94467">
        <ele>22.122</ele>
        <time>2017-04-22T21:28:21Z</time>
      </trkpt>
      <trkpt lat="48.65288" lon="-3.94525">
        <ele>16.054</ele>
        <time>2017-04-22T21:28:41Z</time>
      </trkpt>
      <trkpt lat="48.65283" lon="-3.94546">
        <ele>14.056</ele>
        <time>2017-04-22T21:29:01Z</time>
      </trkpt>
      <trkpt lat="48.65255" lon="-3.94584">
        <ele>11.611</ele>
        <time>2017-04-22T21:29:21Z</time>
      </trkpt>
      <trkpt lat="48.65224" lon="-3.94683">
        <ele>6.008</ele>
        <time>2017-04-22T21:29:41Z</time>
      </trkpt>
      <trkpt lat="48.65063" lon="-3.94707">
        <ele>22.291</ele>
        <time>2017-04-22T21:30:01Z</time>
      </trkpt>
      <trkpt lat="48.65029" lon="-3.94702">
        <ele>24.117</ele>
        <time>2017-04-22T21:30:21Z</time>
      </trkpt>
      <trkpt lat="48.64973" lon="-3.94677">
        <ele>27.268</ele>
        <time>2017-04-22T21:30:41Z</time>
      </trkpt>
      <trkpt lat="48.64926" lon="-3.94643">
        <ele>28.979</ele>
        <time>2017-04-22T21:31:01Z</time>
      </trkpt>
      <trkpt lat="48.64893" lon="-3.94605">
        <ele>28.66</ele>
        <time>2017-04-22T21:31:21Z</time>
      </trkpt>
      <trkpt lat="48.64867" lon="-3.94567">
        <ele>29.89</ele>
        <time>2017-04-22T21:31:41Z</time>
      </trkpt>
      <trkpt lat="48.64824" lon="-3.94623">
        <ele>26.393</ele>
        <time>2017-04-22T21:32:01Z</time>
      </trkpt>
      <trkpt lat="48.64711" lon="-3.94911">
        <ele>10.65</ele>
        <time>2017-04-22T21:32:21Z</time>
      </trkpt>
      <trkpt lat="48.64707" lon="-3.94931">
        <ele>10.063</ele>
        <time>2017-04-22T21:32:41Z</time>
      </trkpt>
      <trkpt lat="48.64708" lon="-3.95049">
        <ele>4.844</ele>
        <time>2017-04-22T21:33:01Z</time>
      </trkpt>
      <trkpt lat="48.64696" lon="-3.9507">
        <ele>3.118</ele>
        <time>2017-04-22T21:33:21Z</time>
      </trkpt>
      <trkpt lat="48.64624" lon="-3.94972">
        <ele>10.508</ele>
        <time>2020-12-19T15:47:47Z</time>
      </trkpt>
      <trkpt lat="48.64534" lon="-3.94733">
        <ele>14.652</ele>
        <time>2020-12-19T15:48:07Z</time>
      </trkpt>
      <trkpt lat="48.64507" lon="-3.94743">
        <ele>15.058</ele>
        <time>2020-12-19T15:48:27Z</time>
      </trkpt>
      <trkpt lat="48.64468" lon="-3.9533">
        <ele>14.919</ele>
        <time>2017-04-22T21:36:01Z</time>
      </trkpt>
      <trkpt lat="48.64571" lon="-3.95507">
        <ele>10.68</ele>
        <time>2020-12-19T15:49:07Z</time>
      </trkpt>
      <trkpt lat="48.64665" lon="-3.9563">
        <ele>8.581</ele>
        <time>2017-04-22T21:37:21Z</time>
      </trkpt>
      <trkpt lat="48.64727" lon="-3.9564">
        <ele>6.941</ele>
        <time>2017-04-22T21:37:41Z</time>
      </trkpt>
      <trkpt lat="48.64752" lon="-3.95657">
        <ele>7.234</ele>
        <time>2017-04-22T21:38:01Z</time>
      </trkpt>
      <trkpt lat="48.64775" lon="-3.95697">
        <ele>9.281</ele>
        <time>2017-04-22T21:38:21Z</time>
      </trkpt>
      <trkpt lat="48.64789" lon="-3.95755">
        <ele>10.682</ele>
        <time>2017-04-22T21:38:41Z</time>
      </trkpt>
      <trkpt lat="48.64788" lon="-3.95779">
        <ele>12.343</ele>
        <time>2017-04-22T21:39:01Z</time>
      </trkpt>
      <trkpt lat="48.64816" lon="-3.95798">
        <ele>11.217</ele>
        <time>2017-04-22T21:42:41Z</time>
      </trkpt>
      <trkpt lat="48.64852" lon="-3.95699">
        <ele>7.508</ele>
        <time>2017-04-22T21:43:01Z</time>
      </trkpt>
      <trkpt lat="48.64879" lon="-3.95621">
        <ele>3.734</ele>
        <time>2017-04-22T21:43:21Z</time>
      </trkpt>
      <trkpt lat="48.64914" lon="-3.95636">
        <ele>4.93</ele>
        <time>2017-04-22T21:43:41Z</time>
      </trkpt>
      <trkpt lat="48.64925" lon="-3.95669">
        <ele>6.111</ele>
        <time>2017-04-22T21:44:01Z</time>
      </trkpt>
      <trkpt lat="48.64947" lon="-3.95709">
        <ele>7.562</ele>
        <time>2017-04-22T21:44:21Z</time>
      </trkpt>
      <trkpt lat="48.64957" lon="-3.9575">
        <ele>9.033</ele>
        <time>2017-04-22T21:44:41Z</time>
      </trkpt>
      <trkpt lat="48.64999" lon="-3.95786">
        <ele>11.313</ele>
        <time>2017-04-22T21:45:01Z</time>
      </trkpt>
      <trkpt lat="48.65043" lon="-3.95786">
        <ele>12.726</ele>
        <time>2017-04-22T21:45:21Z</time>
      </trkpt>
      <trkpt lat="48.65054" lon="-3.95778">
        <ele>12.923</ele>
        <time>2017-04-22T21:45:41Z</time>
      </trkpt>
      <trkpt lat="48.65091" lon="-3.95786">
        <ele>14.772</ele>
        <time>2017-04-22T21:46:01Z</time>
      </trkpt>
      <trkpt lat="48.65094" lon="-3.95757">
        <ele>12.113</ele>
        <time>2017-04-22T21:46:21Z</time>
      </trkpt>
      <trkpt lat="48.65148" lon="-3.95761">
        <ele>12.714</ele>
        <time>2017-04-22T21:46:41Z</time>
      </trkpt>
      <trkpt lat="48.6517" lon="-3.95872">
        <ele>17.708</ele>
        <time>2017-04-22T21:47:01Z</time>
      </trkpt>
      <trkpt lat="48.6552" lon="-3.95613">
        <ele>17.163</ele>
        <time>2017-04-22T21:47:21Z</time>
      </trkpt>
      <trkpt lat="48.65549" lon="-3.95602">
        <ele>16.399</ele>
        <time>2017-04-22T21:47:41Z</time>
      </trkpt>
      <trkpt lat="48.6563" lon="-3.95593">
        <ele>17.54</ele>
        <time>2017-04-22T21:48:01Z</time>
      </trkpt>
      <trkpt lat="48.65762" lon="-3.95519">
        <ele>19.451</ele>
        <time>2017-04-22T21:48:21Z</time>
      </trkpt>
      <trkpt lat="48.65787" lon="-3.95497">
        <ele>19.332</ele>
        <time>2017-04-22T21:48:41Z</time>
      </trkpt>
      <trkpt lat="48.65833" lon="-3.9544">
        <ele>17.742</ele>
        <time>2017-04-22T21:49:01Z</time>
      </trkpt>
      <trkpt lat="48.65858" lon="-3.95429">
        <ele>17.845</ele>
        <time>2017-04-22T21:49:21Z</time>
      </trkpt>
      <trkpt lat="48.65926" lon="-3.95428">
        <ele>18.162</ele>
        <time>2017-04-22T21:49:41Z</time>
      </trkpt>
      <trkpt lat="48.65948" lon="-3.95439">
        <ele>17.726</ele>
        <time>2017-04-22T21:50:01Z</time>
      </trkpt>
      <trkpt lat="48.65973" lon="-3.95462">
        <ele>18.347</ele>
        <time>2017-04-22T21:50:21Z</time>
      </trkpt>
      <trkpt lat="48.66048" lon="-3.95498">
        <ele>17.911</ele>
        <time>2017-04-22T21:50:41Z</time>
      </trkpt>
      <trkpt lat="48.66077" lon="-3.95522">
        <ele>19.708</ele>
        <time>2017-04-22T21:51:01Z</time>
      </trkpt>
      <trkpt lat="48.66089" lon="-3.95538">
        <ele>20.428</ele>
        <time>2017-04-22T21:51:21Z</time>
      </trkpt>
      <trkpt lat="48.66132" lon="-3.95543">
        <ele>17.934</ele>
        <time>2017-04-22T21:51:41Z</time>
      </trkpt>
      <trkpt lat="48.66149" lon="-3.95509">
        <ele>15.875</ele>
        <time>2017-04-22T21:52:01Z</time>
      </trkpt>
      <trkpt lat="48.66186" lon="-3.9554">
        <ele>14.716</ele>
        <time>2017-04-22T21:52:21Z</time>
      </trkpt>
      <trkpt lat="48.66222" lon="-3.95453">
        <ele>11.047</ele>
        <time>2017-04-22T21:52:41Z</time>
      </trkpt>
      <trkpt lat="48.66343" lon="-3.95534">
        <ele>9.067</ele>
        <time>2017-04-22T21:53:01Z</time>
      </trkpt>
      <trkpt lat="48.6641" lon="-3.95571">
        <ele>10.06</ele>
        <time>2017-04-22T21:53:21Z</time>
      </trkpt>
      <trkpt lat="48.66444" lon="-3.95475">
        <ele>7.157</ele>
        <time>2017-04-22T21:53:41Z</time>
      </trkpt>
      <trkpt lat="48.66487" lon="-3.95418">
        <ele>6.578</ele>
        <time>2017-04-22T21:54:01Z</time>
      </trkpt>
      <trkpt lat="48.66516" lon="-3.95425">
        <ele>6.133</ele>
        <time>2017-04-22T21:54:21Z</time>
      </trkpt>
      <trkpt lat="48.66533" lon="-3.95468">
        <ele>6.826</ele>
        <time>2017-04-22T21:54:41Z</time>
      </trkpt>
      <trkpt lat="48.66555" lon="-3.9548">
        <ele>7.308</ele>
        <time>2017-04-22T21:55:01Z</time>
      </trkpt>
      <trkpt lat="48.66562" lon="-3.95505">
        <ele>8.443</ele>
        <time>2017-04-22T21:55:21Z</time>
      </trkpt>
      <trkpt lat="48.66561" lon="-3.9552">
        <ele>8.829</ele>
        <time>2017-04-22T21:55:41Z</time>
      </trkpt>
      <trkpt lat="48.6659" lon="-3.95614">
        <ele>11.14</ele>
        <time>2017-04-22T21:56:01Z</time>
      </trkpt>
      <trkpt lat="48.66645" lon="-3.95734">
        <ele>12.241</ele>
        <time>2017-04-22T21:56:21Z</time>
      </trkpt>
      <trkpt lat="48.66664" lon="-3.95789">
        <ele>13.472</ele>
        <time>2017-04-22T21:56:41Z</time>
      </trkpt>
      <trkpt lat="48.6668" lon="-3.95851">
        <ele>15.062</ele>
        <time>2017-04-22T21:57:01Z</time>
      </trkpt>
      <trkpt lat="48.66705" lon="-3.95852">
        <ele>14.685</ele>
        <time>2017-04-22T21:57:21Z</time>
      </trkpt>
      <trkpt lat="48.66704" lon="-3.95863">
        <ele>14.732</ele>
        <time>2017-04-22T21:57:41Z</time>
      </trkpt>
      <trkpt lat="48.66752" lon="-3.95868">
        <ele>14.164</ele>
        <time>2017-04-22T21:58:01Z</time>
      </trkpt>
      <trkpt lat="48.66785" lon="-3.95876">
        <ele>15.406</ele>
        <time>2017-04-22T21:58:21Z</time>
      </trkpt>
      <trkpt lat="48.66831" lon="-3.9588">
        <ele>18.216</ele>
        <time>2017-04-22T21:58:41Z</time>
      </trkpt>
      <trkpt lat="48.66844" lon="-3.95897">
        <ele>20.008</ele>
        <time>2017-04-22T21:59:01Z</time>
      </trkpt>
      <trkpt lat="48.6686" lon="-3.95893">
        <ele>21.282</ele>
        <time>2017-04-22T21:59:21Z</time>
      </trkpt>
      <trkpt lat="48.66878" lon="-3.95895">
        <ele>22.658</ele>
        <time>2017-04-22T21:59:41Z</time>
      </trkpt>
      <trkpt lat="48.66899" lon="-3.9588">
        <ele>22.299</ele>
        <time>2020-12-19T16:08:47Z</time>
      </trkpt>
      <trkpt lat="48.66903" lon="-3.95828">
        <ele>16.55</ele>
        <time>2020-12-19T16:09:07Z</time>
      </trkpt>
      <trkpt lat="48.66943" lon="-3.95742">
        <ele>9.821</ele>
        <time>2020-12-19T16:09:27Z</time>
      </trkpt>
      <trkpt lat="48.66973" lon="-3.95709">
        <ele>7.511</ele>
        <time>2020-12-19T16:09:47Z</time>
      </trkpt>
      <trkpt lat="48.67035" lon="-3.9578">
        <ele>8.754</ele>
        <time>2020-12-19T16:10:07Z</time>
      </trkpt>
      <trkpt lat="48.67057" lon="-3.95741">
        <ele>7.041</ele>
        <time>2020-12-19T16:10:27Z</time>
      </trkpt>
      <trkpt lat="48.67081" lon="-3.95675">
        <ele>6.079</ele>
        <time>2017-04-22T22:03:01Z</time>
      </trkpt>
      <trkpt lat="48.67096" lon="-3.95645">
        <ele>5.105</ele>
        <time>2017-04-22T22:03:21Z</time>
      </trkpt>
      <trkpt lat="48.67104" lon="-3.95612">
        <ele>4.025</ele>
        <time>2017-04-22T22:03:41Z</time>
      </trkpt>
      <trkpt lat="48.67118" lon="-3.95501">
        <ele>5.008</ele>
        <time>2017-04-22T22:04:01Z</time>
      </trkpt>
      <trkpt lat="48.67098" lon="-3.95403">
        <ele>4.343</ele>
        <time>2017-04-22T22:04:21Z</time>
      </trkpt>
      <trkpt lat="48.67175" lon="-3.95307">
        <ele>2.699</ele>
        <time>2017-04-22T22:04:41Z</time>
      </trkpt>
      <trkpt lat="48.67117" lon="-3.95269">
        <ele>3.38</ele>
        <time>2017-04-22T22:05:01Z</time>
      </trkpt>
      <trkpt lat="48.6712" lon="-3.95237">
        <ele>4.241</ele>
        <time>2017-04-22T22:05:21Z</time>
      </trkpt>
      <trkpt lat="48.67112" lon="-3.95223">
        <ele>4.042</ele>
        <time>2017-04-22T22:05:41Z</time>
      </trkpt>
      <trkpt lat="48.67115" lon="-3.95145">
        <ele>6.862</ele>
        <time>2017-04-22T22:06:01Z</time>
      </trkpt>
      <trkpt lat="48.67086" lon="-3.9511">
        <ele>5.185</ele>
        <time>2017-04-22T22:06:21Z</time>
      </trkpt>
      <trkpt lat="48.67093" lon="-3.95083">
        <ele>4.322</ele>
        <time>2017-04-22T22:06:41Z</time>
      </trkpt>
      <trkpt lat="48.67125" lon="-3.95084">
        <ele>5.076</ele>
        <time>2017-04-22T22:07:01Z</time>
      </trkpt>
      <trkpt lat="48.67143" lon="-3.95072">
        <ele>4.29</ele>
        <time>2017-04-22T22:07:21Z</time>
      </trkpt>
      <trkpt lat="48.67153" lon="-3.95049">
        <ele>3.119</ele>
        <time>2017-04-22T22:07:41Z</time>
      </trkpt>
      <trkpt lat="48.67172" lon="-3.95056">
        <ele>4.208</ele>
        <time>2017-04-22T22:08:01Z</time>
      </trkpt>
      <trkpt lat="48.67186" lon="-3.95071">
        <ele>5.343</ele>
        <time>2017-04-22T22:08:21Z</time>
      </trkpt>
      <trkpt lat="48.67222" lon="-3.95079">
        <ele>6.829</ele>
        <time>2017-04-22T22:08:41Z</time>
      </trkpt>
      <trkpt lat="48.67255" lon="-3.95038">
        <ele>4.72</ele>
        <time>2017-04-22T22:09:01Z</time>
      </trkpt>
      <trkpt lat="48.67277" lon="-3.95033">
        <ele>4.211</ele>
        <time>2017-04-22T22:09:21Z</time>
      </trkpt>
      <trkpt lat="48.67295" lon="-3.95052">
        <ele>4.342</ele>
        <time>2017-04-22T22:09:41Z</time>
      </trkpt>
      <trkpt lat="48.67303" lon="-3.9507">
        <ele>4.292</ele>
        <time>2017-04-22T22:10:01Z</time>
      </trkpt>
      <trkpt lat="48.6729" lon="-3.951">
        <ele>4.855</ele>
        <time>2017-04-22T22:10:21Z</time>
      </trkpt>
      <trkpt lat="48.67278" lon="-3.95126">
        <ele>6.082</ele>
        <time>2017-04-22T22:10:41Z</time>
      </trkpt>
      <trkpt lat="48.67284" lon="-3.95195">
        <ele>5.391</ele>
        <time>2017-04-22T22:11:01Z</time>
      </trkpt>
      <trkpt lat="48.67315" lon="-3.95299">
        <ele>2.781</ele>
        <time>2017-04-22T22:11:21Z</time>
      </trkpt>
      <trkpt lat="48.67319" lon="-3.95333">
        <ele>3.519</ele>
        <time>2017-04-22T22:11:41Z</time>
      </trkpt>
      <trkpt lat="48.67361" lon="-3.95398">
        <ele>5.008</ele>
        <time>2017-04-22T22:12:01Z</time>
      </trkpt>
      <trkpt lat="48.6734" lon="-3.95558">
        <ele>3.575</ele>
        <time>2017-04-22T22:19:01Z</time>
      </trkpt>
      <trkpt lat="48.67318" lon="-3.95592">
        <ele>3.611</ele>
        <time>2017-04-22T22:19:21Z</time>
      </trkpt>
      <trkpt lat="48.67297" lon="-3.95614">
        <ele>3.782</ele>
        <time>2017-04-22T22:19:41Z</time>
      </trkpt>
      <trkpt lat="48.67306" lon="-3.95655">
        <ele>4.063</ele>
        <time>2017-04-22T22:20:01Z</time>
      </trkpt>
      <trkpt lat="48.67306" lon="-3.95752">
        <ele>4.184</ele>
        <time>2017-04-22T22:22:21Z</time>
      </trkpt>
      <trkpt lat="48.67337" lon="-3.95937">
        <ele>3.564</ele>
        <time>2017-04-22T22:22:41Z</time>
      </trkpt>
      <trkpt lat="48.67397" lon="-3.96133">
        <ele>2.997</ele>
        <time>2017-04-22T22:23:01Z</time>
      </trkpt>
      <trkpt lat="48.674" lon="-3.96154">
        <ele>2.944</ele>
        <time>2017-04-22T22:23:21Z</time>
      </trkpt>
      <trkpt lat="48.67448" lon="-3.96286">
        <ele>5.281</ele>
        <time>2017-04-22T22:23:41Z</time>
      </trkpt>
      <trkpt lat="48.67466" lon="-3.9631">
        <ele>5.761</ele>
        <time>2017-04-22T22:24:01Z</time>
      </trkpt>
      <trkpt lat="48.67502" lon="-3.96344">
        <ele>6.717</ele>
        <time>2017-04-22T22:24:21Z</time>
      </trkpt>
      <trkpt lat="48.6754" lon="-3.96418">
        <ele>7.508</ele>
        <time>2017-04-22T22:24:41Z</time>
      </trkpt>
      <trkpt lat="48.67574" lon="-3.96465">
        <ele>4.954</ele>
        <time>2017-04-22T22:25:01Z</time>
      </trkpt>
      <trkpt lat="48.67613" lon="-3.96497">
        <ele>4.97</ele>
        <time>2017-04-22T22:25:21Z</time>
      </trkpt>
      <trkpt lat="48.67646" lon="-3.96473">
        <ele>3.871</ele>
        <time>2017-04-22T22:25:41Z</time>
      </trkpt>
      <trkpt lat="48.67666" lon="-3.96494">
        <ele>3.872</ele>
        <time>2017-04-22T22:26:01Z</time>
      </trkpt>
      <trkpt lat="48.67673" lon="-3.96514">
        <ele>3.333</ele>
        <time>2017-04-22T22:26:21Z</time>
      </trkpt>
      <trkpt lat="48.67668" lon="-3.9653">
        <ele>3.983</ele>
        <time>2017-04-22T22:26:41Z</time>
      </trkpt>
      <trkpt lat="48.67616" lon="-3.96565">
        <ele>4.446</ele>
        <time>2017-04-22T22:27:01Z</time>
      </trkpt>
      <trkpt lat="48.67567" lon="-3.96604">
        <ele>4.313</ele>
        <time>2017-04-22T22:27:41Z</time>
      </trkpt>
      <trkpt lat="48.67532" lon="-3.96606">
        <ele>5.089</ele>
        <time>2017-04-22T22:28:01Z</time>
      </trkpt>
      <trkpt lat="48.67514" lon="-3.96591">
        <ele>4.706</ele>
        <time>2017-04-22T22:28:21Z</time>
      </trkpt>
      <trkpt lat="48.67473" lon="-3.9661">
        <ele>4.026</ele>
        <time>2017-04-22T22:31:21Z</time>
      </trkpt>
      <trkpt lat="48.67453" lon="-3.96641">
        <ele>3.308</ele>
        <time>2017-04-22T22:31:41Z</time>
      </trkpt>
      <trkpt lat="48.67439" lon="-3.96648">
        <ele>4.074</ele>
        <time>2017-04-22T22:32:01Z</time>
      </trkpt>
      <trkpt lat="48.67428" lon="-3.96686">
        <ele>3.57</ele>
        <time>2017-04-22T22:32:21Z</time>
      </trkpt>
      <trkpt lat="48.67404" lon="-3.96737">
        <ele>2.331</ele>
        <time>2017-04-22T22:32:41Z</time>
      </trkpt>
      <trkpt lat="48.67354" lon="-3.96826">
        <ele>3.712</ele>
        <time>2017-04-22T22:33:01Z</time>
      </trkpt>
      <trkpt lat="48.67324" lon="-3.96844">
        <ele>3.883</ele>
        <time>2017-04-22T22:33:21Z</time>
      </trkpt>
      <trkpt lat="48.67343" lon="-3.96851">
        <ele>2.683</ele>
        <time>2017-04-22T22:33:41Z</time>
      </trkpt>
      <trkpt lat="48.67346" lon="-3.96933">
        <ele>5.346</ele>
        <time>2017-04-22T22:34:01Z</time>
      </trkpt>
      <trkpt lat="48.67377" lon="-3.96974">
        <ele>4.463</ele>
        <time>2017-04-22T22:34:21Z</time>
      </trkpt>
      <trkpt lat="48.67394" lon="-3.97044">
        <ele>3.641</ele>
        <time>2017-04-22T22:34:41Z</time>
      </trkpt>
      <trkpt lat="48.6744" lon="-3.97113">
        <ele>4.481</ele>
        <time>2017-04-22T22:35:01Z</time>
      </trkpt>
      <trkpt lat="48.6746" lon="-3.97184">
        <ele>11.709</ele>
        <time>2017-04-22T22:35:21Z</time>
      </trkpt>
      <trkpt lat="48.6754" lon="-3.97207">
        <ele>13.708</ele>
        <time>2017-04-22T22:36:21Z</time>
      </trkpt>
      <trkpt lat="48.67562" lon="-3.97192">
        <ele>13.12</ele>
        <time>2017-04-22T22:36:41Z</time>
      </trkpt>
      <trkpt lat="48.67574" lon="-3.97165">
        <ele>12.986</ele>
        <time>2017-04-22T22:37:01Z</time>
      </trkpt>
      <trkpt lat="48.67573" lon="-3.97142">
        <ele>12.997</ele>
        <time>2017-04-22T22:37:21Z</time>
      </trkpt>
      <trkpt lat="48.67563" lon="-3.97112">
        <ele>13.158</ele>
        <time>2020-01-02T20:24:17Z</time>
      </trkpt>
      <trkpt lat="48.67547" lon="-3.9705">
        <ele>10.799</ele>
        <time>2020-01-02T20:24:37Z</time>
      </trkpt>
      <trkpt lat="48.67551" lon="-3.97014">
        <ele>9.179</ele>
        <time>2020-01-02T20:24:57Z</time>
      </trkpt>
      <trkpt lat="48.67572" lon="-3.96978">
        <ele>8.112</ele>
        <time>2020-01-02T20:25:17Z</time>
      </trkpt>
      <trkpt lat="48.67606" lon="-3.96959">
        <ele>8.369</ele>
        <time>2020-01-02T20:25:37Z</time>
      </trkpt>
      <trkpt lat="48.67627" lon="-3.9694">
        <ele>7.377</ele>
        <time>2020-01-02T20:25:57Z</time>
      </trkpt>
      <trkpt lat="48.67673" lon="-3.96936">
        <ele>5.161</ele>
        <time>2020-01-02T20:26:17Z</time>
      </trkpt>
      <trkpt lat="48.6772" lon="-3.96943">
        <ele>3.927</ele>
        <time>2020-01-02T20:26:37Z</time>
      </trkpt>
      <trkpt lat="48.67782" lon="-3.96912">
        <ele>5.808</ele>
        <time>2020-01-02T20:26:57Z</time>
      </trkpt>
      <trkpt lat="48.67856" lon="-3.96929">
        <ele>4.183</ele>
        <time>2020-01-02T20:27:17Z</time>
      </trkpt>
      <trkpt lat="48.67891" lon="-3.96923">
        <ele>3.239</ele>
        <time>2020-01-02T20:27:37Z</time>
      </trkpt>
      <trkpt lat="48.67985" lon="-3.96933">
        <ele>6.71</ele>
        <time>2020-01-02T20:27:57Z</time>
      </trkpt>
      <trkpt lat="48.68043" lon="-3.96896">
        <ele>5.261</ele>
        <time>2020-01-02T20:28:17Z</time>
      </trkpt>
      <trkpt lat="48.68167" lon="-3.97012">
        <ele>7.482</ele>
        <time>2020-01-02T20:28:37Z</time>
      </trkpt>
      <trkpt lat="48.68261" lon="-3.9707">
        <ele>5.372</ele>
        <time>2020-01-02T20:28:57Z</time>
      </trkpt>
      <trkpt lat="48.68273" lon="-3.97058">
        <ele>5.025</ele>
        <time>2020-01-02T20:29:17Z</time>
      </trkpt>
      <trkpt lat="48.68509" lon="-3.97073">
        <ele>8.162</ele>
        <time>2020-01-02T20:29:37Z</time>
      </trkpt>
      <trkpt lat="48.6865" lon="-3.97041">
        <ele>3.494</ele>
        <time>2020-01-02T20:29:57Z</time>
      </trkpt>
      <trkpt lat="48.68737" lon="-3.96984">
        <ele>3.857</ele>
        <time>2020-01-02T20:30:17Z</time>
      </trkpt>
      <trkpt lat="48.68852" lon="-3.96909">
        <ele>3.422</ele>
        <time>2020-01-02T20:30:37Z</time>
      </trkpt>
      <trkpt lat="48.68967" lon="-3.96868">
        <ele>5.008</ele>
        <time>2020-01-02T20:30:57Z</time>
      </trkpt>
      <trkpt lat="48.6907" lon="-3.9678">
        <ele>4.595</ele>
        <time>2020-01-02T20:31:17Z</time>
      </trkpt>
      <trkpt lat="48.69106" lon="-3.96825">
        <ele>5.681</ele>
        <time>2020-01-02T20:31:37Z</time>
      </trkpt>
      <trkpt lat="48.69138" lon="-3.96818">
        <ele>5.462</ele>
        <time>2020-01-02T20:31:57Z</time>
      </trkpt>
      <trkpt lat="48.69229" lon="-3.96763">
        <ele>7.413</ele>
        <time>2020-01-02T20:32:17Z</time>
      </trkpt>
      <trkpt lat="48.69279" lon="-3.96754">
        <ele>5.814</ele>
        <time>2020-01-02T20:32:37Z</time>
      </trkpt>
      <trkpt lat="48.6931" lon="-3.96769">
        <ele>3.254</ele>
        <time>2020-01-02T20:32:57Z</time>
      </trkpt>
      <trkpt lat="48.6935" lon="-3.9689">
        <ele>1.957</ele>
        <time>2020-01-02T20:33:17Z</time>
      </trkpt>
      <trkpt lat="48.69395" lon="-3.96999">
        <ele>1.864</ele>
        <time>2020-01-02T20:33:37Z</time>
      </trkpt>
      <trkpt lat="48.6948" lon="-3.97132">
        <ele>4.175</ele>
        <time>2020-01-02T20:33:57Z</time>
      </trkpt>
      <trkpt lat="48.69492" lon="-3.97166">
        <ele>4.828</ele>
        <time>2020-01-02T20:34:17Z</time>
      </trkpt>
      <trkpt lat="48.69551" lon="-3.97257">
        <ele>5.82</ele>
        <time>2020-01-02T20:34:37Z</time>
      </trkpt>
      <trkpt lat="48.69593" lon="-3.97308">
        <ele>7.808</ele>
        <time>2020-01-02T20:34:57Z</time>
      </trkpt>
      <trkpt lat="48.69646" lon="-3.97361">
        <ele>7.063</ele>
        <time>2020-01-02T20:35:17Z</time>
      </trkpt>
      <trkpt lat="48.69745" lon="-3.97472">
        <ele>1.649</ele>
        <time>2020-01-02T20:35:37Z</time>
      </trkpt>
      <trkpt lat="48.69823" lon="-3.97565">
        <ele>0.65</ele>
        <time>2020-01-02T20:35:57Z</time>
      </trkpt>
      <trkpt lat="48.69834" lon="-3.97627">
        <ele>2.651</ele>
        <time>2020-01-02T20:36:17Z</time>
      </trkpt>
      <trkpt lat="48.69836" lon="-3.97669">
        <ele>4.142</ele>
        <time>2020-01-02T20:36:37Z</time>
      </trkpt>
      <trkpt lat="48.69848" lon="-3.97682">
        <ele>4.562</ele>
        <time>2020-01-02T20:36:57Z</time>
      </trkpt>
      <trkpt lat="48.69873" lon="-3.97685">
        <ele>5.935</ele>
        <time>2020-01-02T20:37:17Z</time>
      </trkpt>
      <trkpt lat="48.69899" lon="-3.97592">
        <ele>5.392</ele>
        <time>2020-01-02T20:37:37Z</time>
      </trkpt>
      <trkpt lat="48.6996" lon="-3.97626">
        <ele>8.117</ele>
        <time>2020-01-02T20:37:57Z</time>
      </trkpt>
      <trkpt lat="48.69996" lon="-3.97629">
        <ele>11.587</ele>
        <time>2020-01-02T20:38:17Z</time>
      </trkpt>
      <trkpt lat="48.70022" lon="-3.97594">
        <ele>9.315</ele>
        <time>2020-01-02T20:38:37Z</time>
      </trkpt>
      <trkpt lat="48.7005" lon="-3.97571">
        <ele>8.708</ele>
        <time>2020-01-02T20:38:57Z</time>
      </trkpt>
      <trkpt lat="48.70093" lon="-3.97562">
        <ele>15.277</ele>
        <time>2020-01-02T20:39:17Z</time>
      </trkpt>
      <trkpt lat="48.70177" lon="-3.97553">
        <ele>24.143</ele>
        <time>2020-01-02T20:39:37Z</time>
      </trkpt>
      <trkpt lat="48.70209" lon="-3.97558">
        <ele>26.254</ele>
        <time>2020-01-02T20:39:57Z</time>
      </trkpt>
      <trkpt lat="48.70272" lon="-3.9757">
        <ele>31.255</ele>
        <time>2020-01-02T20:40:17Z</time>
      </trkpt>
      <trkpt lat="48.70379" lon="-3.97624">
        <ele>31.526</ele>
        <time>2020-01-02T20:40:37Z</time>
      </trkpt>
      <trkpt lat="48.70383" lon="-3.97645">
        <ele>32.076</ele>
        <time>2020-01-02T20:40:57Z</time>
      </trkpt>
      <trkpt lat="48.70423" lon="-3.97659">
        <ele>32.969</ele>
        <time>2020-01-02T20:41:17Z</time>
      </trkpt>
      <trkpt lat="48.70486" lon="-3.97649">
        <ele>33.236</ele>
        <time>2020-01-02T20:41:37Z</time>
      </trkpt>
      <trkpt lat="48.70507" lon="-3.97635">
        <ele>32.731</ele>
        <time>2020-01-02T20:41:57Z</time>
      </trkpt>
      <trkpt lat="48.7054" lon="-3.97602">
        <ele>29.461</ele>
        <time>2020-01-02T20:42:17Z</time>
      </trkpt>
      <trkpt lat="48.70555" lon="-3.9752">
        <ele>24.807</ele>
        <time>2020-01-02T20:42:37Z</time>
      </trkpt>
      <trkpt lat="48.70563" lon="-3.97442">
        <ele>19.108</ele>
        <time>2020-01-02T20:42:57Z</time>
      </trkpt>
      <trkpt lat="48.70626" lon="-3.97376">
        <ele>11.259</ele>
        <time>2020-01-02T20:43:17Z</time>
      </trkpt>
      <trkpt lat="48.70675" lon="-3.97309">
        <ele>6.115</ele>
        <time>2020-01-02T20:43:37Z</time>
      </trkpt>
      <trkpt lat="48.70754" lon="-3.97373">
        <ele>2.376</ele>
        <time>2020-01-02T20:43:57Z</time>
      </trkpt>
      <trkpt lat="48.708" lon="-3.9739">
        <ele>2.057</ele>
        <time>2020-01-02T20:44:17Z</time>
      </trkpt>
      <trkpt lat="48.70827" lon="-3.97419">
        <ele>4.758</ele>
        <time>2020-01-02T20:44:37Z</time>
      </trkpt>
      <trkpt lat="48.70833" lon="-3.97626">
        <ele>16.128</ele>
        <time>2020-01-02T20:44:57Z</time>
      </trkpt>
      <trkpt lat="48.70863" lon="-3.97638">
        <ele>17.071</ele>
        <time>2020-01-02T20:45:17Z</time>
      </trkpt>
      <trkpt lat="48.70895" lon="-3.9766">
        <ele>17.678</ele>
        <time>2020-01-02T20:45:37Z</time>
      </trkpt>
      <trkpt lat="48.70941" lon="-3.97674">
        <ele>19.184</ele>
        <time>2020-01-02T20:45:57Z</time>
      </trkpt>
      <trkpt lat="48.71003" lon="-3.97676">
        <ele>23.807</ele>
        <time>2020-01-02T20:46:17Z</time>
      </trkpt>
      <trkpt lat="48.71081" lon="-3.97575">
        <ele>25.317</ele>
        <time>2020-01-02T20:46:37Z</time>
      </trkpt>
      <trkpt lat="48.71096" lon="-3.97544">
        <ele>24.308</ele>
        <time>2020-01-02T20:46:57Z</time>
      </trkpt>
      <trkpt lat="48.71127" lon="-3.97398">
        <ele>15.254</ele>
        <time>2020-01-02T20:47:17Z</time>
      </trkpt>
      <trkpt lat="48.71145" lon="-3.97377">
        <ele>15.11</ele>
        <time>2020-01-02T20:47:37Z</time>
      </trkpt>
      <trkpt lat="48.71165" lon="-3.97373">
        <ele>16.731</ele>
        <time>2020-01-02T20:47:57Z</time>
      </trkpt>
      <trkpt lat="48.71197" lon="-3.97382">
        <ele>23.022</ele>
        <time>2020-01-02T20:48:17Z</time>
      </trkpt>
      <trkpt lat="48.71219" lon="-3.9741">
        <ele>26.553</ele>
        <time>2020-01-02T20:48:37Z</time>
      </trkpt>
      <trkpt lat="48.71238" lon="-3.97403">
        <ele>27.783</ele>
        <time>2020-01-02T20:48:57Z</time>
      </trkpt>
      <trkpt lat="48.71252" lon="-3.97439">
        <ele>29.256</ele>
        <time>2020-01-02T20:49:17Z</time>
      </trkpt>
      <trkpt lat="48.71256" lon="-3.97473">
        <ele>31.433</ele>
        <time>2020-01-02T20:49:37Z</time>
      </trkpt>
      <trkpt lat="48.71281" lon="-3.97487">
        <ele>32.999</ele>
        <time>2020-01-02T20:49:57Z</time>
      </trkpt>
      <trkpt lat="48.71315" lon="-3.97491">
        <ele>31.307</ele>
        <time>2020-01-02T20:50:17Z</time>
      </trkpt>
      <trkpt lat="48.71328" lon="-3.97498">
        <ele>30.427</ele>
        <time>2020-01-02T20:50:37Z</time>
      </trkpt>
      <trkpt lat="48.71364" lon="-3.97497">
        <ele>28.908</ele>
        <time>2020-01-02T20:50:57Z</time>
      </trkpt>
      <trkpt lat="48.71405" lon="-3.97518">
        <ele>29.175</ele>
        <time>2020-01-02T20:51:17Z</time>
      </trkpt>
      <trkpt lat="48.71424" lon="-3.97415">
        <ele>22.211</ele>
        <time>2020-01-02T20:51:37Z</time>
      </trkpt>
      <trkpt lat="48.7142" lon="-3.97335">
        <ele>17.032</ele>
        <time>2020-01-02T20:51:57Z</time>
      </trkpt>
      <trkpt lat="48.7148" lon="-3.97279">
        <ele>16.343</ele>
        <time>2020-01-02T20:52:17Z</time>
      </trkpt>
      <trkpt lat="48.7156" lon="-3.97221">
        <ele>15.164</ele>
        <time>2020-01-02T20:52:37Z</time>
      </trkpt>
      <trkpt lat="48.71553" lon="-3.97189">
        <ele>14.814</ele>
        <time>2020-01-02T20:52:57Z</time>
      </trkpt>
      <trkpt lat="48.7156" lon="-3.97112">
        <ele>13.787</ele>
        <time>2020-01-02T20:53:17Z</time>
      </trkpt>
      <trkpt lat="48.71575" lon="-3.97113">
        <ele>15.814</ele>
        <time>2020-01-02T20:53:37Z</time>
      </trkpt>
      <trkpt lat="48.71584" lon="-3.97132">
        <ele>17.056</ele>
        <time>2020-01-02T20:53:57Z</time>
      </trkpt>
      <trkpt lat="48.71585" lon="-3.97157">
        <ele>17.159</ele>
        <time>2020-01-02T20:54:17Z</time>
      </trkpt>
      <trkpt lat="48.71594" lon="-3.97167">
        <ele>17.714</ele>
        <time>2020-01-02T20:54:37Z</time>
      </trkpt>
      <trkpt lat="48.7162" lon="-3.97164">
        <ele>19.008</ele>
        <time>2020-01-02T20:54:57Z</time>
      </trkpt>
      <trkpt lat="48.71648" lon="-3.97027">
        <ele>16.911</ele>
        <time>2020-01-02T20:55:17Z</time>
      </trkpt>
      <trkpt lat="48.71644" lon="-3.96964">
        <ele>12.187</ele>
        <time>2020-01-02T20:55:37Z</time>
      </trkpt>
      <trkpt lat="48.71658" lon="-3.9699">
        <ele>13.928</ele>
        <time>2020-01-02T20:55:57Z</time>
      </trkpt>
      <trkpt lat="48.71671" lon="-3.9697">
        <ele>12.949</ele>
        <time>2020-12-19T17:05:07Z</time>
      </trkpt>
      <trkpt lat="48.71682" lon="-3.96886">
        <ele>5.62</ele>
        <time>2020-12-19T17:05:27Z</time>
      </trkpt>
      <trkpt lat="48.71734" lon="-3.96897">
        <ele>8.02</ele>
        <time>2020-12-19T17:05:47Z</time>
      </trkpt>
      <trkpt lat="48.71741" lon="-3.96849">
        <ele>4.823</ele>
        <time>2020-12-19T17:06:07Z</time>
      </trkpt>
      <trkpt lat="48.71779" lon="-3.96858">
        <ele>4.76</ele>
        <time>2020-12-19T17:06:27Z</time>
      </trkpt>
      <trkpt lat="48.71769" lon="-3.96991">
        <ele>14.381</ele>
        <time>2020-12-19T17:06:47Z</time>
      </trkpt>
      <trkpt lat="48.71797" lon="-3.97002">
        <ele>13.661</ele>
        <time>2020-12-19T17:07:07Z</time>
      </trkpt>
      <trkpt lat="48.71877" lon="-3.96996">
        <ele>11.717</ele>
        <time>2020-12-19T17:07:27Z</time>
      </trkpt>
      <trkpt lat="48.7188" lon="-3.96946">
        <ele>7.808</ele>
        <time>2020-12-19T17:07:47Z</time>
      </trkpt>
      <trkpt lat="48.71888" lon="-3.96917">
        <ele>6.054</ele>
        <time>2020-01-02T20:58:17Z</time>
      </trkpt>
      <trkpt lat="48.71917" lon="-3.96899">
        <ele>8.44</ele>
        <time>2020-01-02T20:58:37Z</time>
      </trkpt>
      <trkpt lat="48.71972" lon="-3.9689">
        <ele>7.021</ele>
        <time>2020-01-02T20:58:57Z</time>
      </trkpt>
      <trkpt lat="48.72006" lon="-3.9687">
        <ele>6.222</ele>
        <time>2020-01-02T20:59:17Z</time>
      </trkpt>
      <trkpt lat="48.72065" lon="-3.96816">
        <ele>4.923</ele>
        <time>2020-01-02T20:59:37Z</time>
      </trkpt>
      <trkpt lat="48.72102" lon="-3.96814">
        <ele>3.573</ele>
        <time>2020-01-02T20:59:57Z</time>
      </trkpt>
      <trkpt lat="48.7214" lon="-3.96844">
        <ele>5.466</ele>
        <time>2020-01-02T21:00:17Z</time>
      </trkpt>
      <trkpt lat="48.72162" lon="-3.96841">
        <ele>8.453</ele>
        <time>2020-01-02T21:00:37Z</time>
      </trkpt>
      <trkpt lat="48.72178" lon="-3.96811">
        <ele>10.319</ele>
        <time>2020-01-02T21:00:57Z</time>
      </trkpt>
      <trkpt lat="48.7219" lon="-3.96754">
        <ele>6.409</ele>
        <time>2020-01-02T21:01:17Z</time>
      </trkpt>
      <trkpt lat="48.7221" lon="-3.96762">
        <ele>7.119</ele>
        <time>2020-01-02T21:01:37Z</time>
      </trkpt>
      <trkpt lat="48.72233" lon="-3.96725">
        <ele>4.708</ele>
        <time>2020-01-02T21:01:57Z</time>
      </trkpt>
      <trkpt lat="48.72258" lon="-3.96763">
        <ele>5.877</ele>
        <time>2020-01-02T21:02:17Z</time>
      </trkpt>
      <trkpt lat="48.72271" lon="-3.96812">
        <ele>10.933</ele>
        <time>2020-01-02T21:02:37Z</time>
      </trkpt>
      <trkpt lat="48.72279" lon="-3.96831">
        <ele>12.544</ele>
        <time>2020-01-02T21:02:57Z</time>
      </trkpt>
      <trkpt lat="48.72311" lon="-3.96858">
        <ele>10.075</ele>
        <time>2020-01-02T21:03:17Z</time>
      </trkpt>
      <trkpt lat="48.72347" lon="-3.96861">
        <ele>7.596</ele>
        <time>2020-01-02T21:03:37Z</time>
      </trkpt>
      <trkpt lat="48.72363" lon="-3.96848">
        <ele>5.526</ele>
        <time>2020-01-02T21:03:57Z</time>
      </trkpt>
      <trkpt lat="48.72379" lon="-3.96856">
        <ele>4.889</ele>
        <time>2020-01-02T21:04:17Z</time>
      </trkpt>
      <trkpt lat="48.72382" lon="-3.96913">
        <ele>8.596</ele>
        <time>2020-01-02T21:04:37Z</time>
      </trkpt>
      <trkpt lat="48.724" lon="-3.96955">
        <ele>8.053</ele>
        <time>2020-01-02T21:04:57Z</time>
      </trkpt>
      <trkpt lat="48.72418" lon="-3.96982">
        <ele>7.604</ele>
        <time>2020-01-02T21:05:17Z</time>
      </trkpt>
      <trkpt lat="48.72436" lon="-3.96987">
        <ele>7.114</ele>
        <time>2020-01-02T21:05:37Z</time>
      </trkpt>
      <trkpt lat="48.72456" lon="-3.96979">
        <ele>5.808</ele>
        <time>2020-01-02T21:05:57Z</time>
      </trkpt>
      <trkpt lat="48.72465" lon="-3.96986">
        <ele>6.511</ele>
        <time>2020-01-02T21:06:17Z</time>
      </trkpt>
      <trkpt lat="48.72472" lon="-3.97016">
        <ele>9.837</ele>
        <time>2020-01-02T21:06:37Z</time>
      </trkpt>
      <trkpt lat="48.72501" lon="-3.97047">
        <ele>9.388</ele>
        <time>2020-01-02T21:06:57Z</time>
      </trkpt>
      <trkpt lat="48.72515" lon="-3.97049">
        <ele>8.449</ele>
        <time>2020-12-19T17:17:07Z</time>
      </trkpt>
      <trkpt lat="48.72519" lon="-3.97071">
        <ele>9.54</ele>
        <time>2020-12-19T17:17:27Z</time>
      </trkpt>
      <trkpt lat="48.72516" lon="-3.97096">
        <ele>10.74</ele>
        <time>2020-12-19T17:17:47Z</time>
      </trkpt>
      <trkpt lat="48.72528" lon="-3.9711">
        <ele>11.023</ele>
        <time>2020-12-19T17:18:07Z</time>
      </trkpt>
      <trkpt lat="48.72529" lon="-3.97132">
        <ele>11.74</ele>
        <time>2020-01-02T21:09:17Z</time>
      </trkpt>
      <trkpt lat="48.72494" lon="-3.97155">
        <ele>10.729</ele>
        <time>2020-01-02T21:09:37Z</time>
      </trkpt>
      <trkpt lat="48.7247" lon="-3.97152">
        <ele>12.2</ele>
        <time>2020-01-02T21:09:57Z</time>
      </trkpt>
      <trkpt lat="48.72465" lon="-3.9723">
        <ele>9.12</ele>
        <time>2020-01-02T21:10:17Z</time>
      </trkpt>
      <trkpt lat="48.72453" lon="-3.9731">
        <ele>4.708</ele>
        <time>2020-01-02T21:10:37Z</time>
      </trkpt>
      <trkpt lat="48.72456" lon="-3.97392">
        <ele>5.048</ele>
        <time>2020-01-02T21:10:57Z</time>
      </trkpt>
      <trkpt lat="48.7245" lon="-3.97413">
        <ele>4.844</ele>
        <time>2020-01-02T21:11:17Z</time>
      </trkpt>
      <trkpt lat="48.72438" lon="-3.97422">
        <ele>4.635</ele>
        <time>2020-01-02T21:11:37Z</time>
      </trkpt>
      <trkpt lat="48.72384" lon="-3.974">
        <ele>5.816</ele>
        <time>2020-01-02T21:11:57Z</time>
      </trkpt>
      <trkpt lat="48.72367" lon="-3.97406">
        <ele>6.237</ele>
        <time>2020-01-02T21:12:17Z</time>
      </trkpt>
      <trkpt lat="48.72353" lon="-3.9742">
        <ele>6.547</ele>
        <time>2020-01-02T21:12:37Z</time>
      </trkpt>
      <trkpt lat="48.72337" lon="-3.97444">
        <ele>7.71</ele>
        <time>2020-01-02T21:12:57Z</time>
      </trkpt>
      <trkpt lat="48.72323" lon="-3.97514">
        <ele>7.167</ele>
        <time>2020-01-02T21:13:17Z</time>
      </trkpt>
      <trkpt lat="48.723" lon="-3.97564">
        <ele>8.147</ele>
        <time>2020-01-02T21:13:37Z</time>
      </trkpt>
      <trkpt lat="48.72272" lon="-3.97602">
        <ele>8.629</ele>
        <time>2020-01-02T21:13:57Z</time>
      </trkpt>
      <trkpt lat="48.72235" lon="-3.97622">
        <ele>9.921</ele>
        <time>2020-01-02T21:14:17Z</time>
      </trkpt>
      <trkpt lat="48.72217" lon="-3.97649">
        <ele>10.608</ele>
        <time>2020-01-02T21:14:37Z</time>
      </trkpt>
      <trkpt lat="48.72205" lon="-3.97718">
        <ele>8.68</ele>
        <time>2020-01-02T21:14:57Z</time>
      </trkpt>
      <trkpt lat="48.72202" lon="-3.97813">
        <ele>8.796</ele>
        <time>2020-01-02T21:15:17Z</time>
      </trkpt>
      <trkpt lat="48.72218" lon="-3.97867">
        <ele>7.317</ele>
        <time>2020-01-02T21:15:37Z</time>
      </trkpt>
      <trkpt lat="48.72247" lon="-3.98007">
        <ele>6.418</ele>
        <time>2020-01-02T21:15:57Z</time>
      </trkpt>
      <trkpt lat="48.72334" lon="-3.98154">
        <ele>6.539</ele>
        <time>2020-01-02T21:16:17Z</time>
      </trkpt>
      <trkpt lat="48.72387" lon="-3.98206">
        <ele>6.049</ele>
        <time>2020-01-02T21:16:37Z</time>
      </trkpt>
      <trkpt lat="48.72464" lon="-3.98265">
        <ele>5.962</ele>
        <time>2020-01-02T21:16:57Z</time>
      </trkpt>
      <trkpt lat="48.72506" lon="-3.98276">
        <ele>7.039</ele>
        <time>2020-01-02T21:17:17Z</time>
      </trkpt>
      <trkpt lat="48.72518" lon="-3.98258">
        <ele>6.332</ele>
        <time>2020-01-02T21:17:37Z</time>
      </trkpt>
      <trkpt lat="48.7256" lon="-3.98268">
        <ele>6.592</ele>
        <time>2020-01-02T21:17:57Z</time>
      </trkpt>
      <trkpt lat="48.72589" lon="-3.98287">
        <ele>6.511</ele>
        <time>2020-01-02T21:18:17Z</time>
      </trkpt>
      <trkpt lat="48.72631" lon="-3.98301">
        <ele>4.808</ele>
        <time>2020-01-02T21:18:37Z</time>
      </trkpt>
      <trkpt lat="48.72602" lon="-3.98381">
        <ele>11.049</ele>
        <time>2020-01-02T21:18:57Z</time>
      </trkpt>
      <trkpt lat="48.72631" lon="-3.98436">
        <ele>9.465</ele>
        <time>2020-01-02T21:19:17Z</time>
      </trkpt>
      <trkpt lat="48.7265" lon="-3.98516">
        <ele>10.786</ele>
        <time>2020-01-02T21:19:37Z</time>
      </trkpt>
      <trkpt lat="48.72665" lon="-3.98529">
        <ele>10.177</ele>
        <time>2020-01-02T21:19:57Z</time>
      </trkpt>
      <trkpt lat="48.72681" lon="-3.98568">
        <ele>9.098</ele>
        <time>2020-01-02T21:20:17Z</time>
      </trkpt>
      <trkpt lat="48.72683" lon="-3.9861">
        <ele>9.058</ele>
        <time>2020-01-02T21:20:37Z</time>
      </trkpt>
      <trkpt lat="48.72679" lon="-3.98639">
        <ele>9.041</ele>
        <time>2020-01-02T21:20:57Z</time>
      </trkpt>
      <trkpt lat="48.72671" lon="-3.98677">
        <ele>9.078</ele>
        <time>2020-01-02T21:21:17Z</time>
      </trkpt>
      <trkpt lat="48.7268" lon="-3.98732">
        <ele>7.856</ele>
        <time>2020-01-02T21:21:37Z</time>
      </trkpt>
      <trkpt lat="48.727" lon="-3.98816">
        <ele>5.359</ele>
        <time>2020-01-02T21:21:57Z</time>
      </trkpt>
      <trkpt lat="48.72705" lon="-3.98898">
        <ele>3.414</ele>
        <time>2020-01-02T21:22:17Z</time>
      </trkpt>
      <trkpt lat="48.72644" lon="-3.9894">
        <ele>3.108</ele>
        <time>2020-01-02T21:22:37Z</time>
      </trkpt>
      <trkpt lat="48.72573" lon="-3.99013">
        <ele>8.221</ele>
        <time>2020-01-02T21:22:57Z</time>
      </trkpt>
      <trkpt lat="48.72536" lon="-3.99024">
        <ele>11.477</ele>
        <time>2020-12-19T17:32:27Z</time>
      </trkpt>
      <trkpt lat="48.72414" lon="-3.9908">
        <ele>8.888</ele>
        <time>2020-12-19T17:32:47Z</time>
      </trkpt>
      <trkpt lat="48.72368" lon="-3.99091">
        <ele>6.259</ele>
        <time>2020-12-19T17:33:07Z</time>
      </trkpt>
      <trkpt lat="48.72258" lon="-3.99156">
        <ele>7.22</ele>
        <time>2020-12-19T17:33:27Z</time>
      </trkpt>
      <trkpt lat="48.7223" lon="-3.99104">
        <ele>6.13</ele>
        <time>2020-12-19T17:33:47Z</time>
      </trkpt>
      <trkpt lat="48.72151" lon="-3.99074">
        <ele>9.713</ele>
        <time>2020-12-19T17:34:07Z</time>
      </trkpt>
      <trkpt lat="48.72038" lon="-3.98968">
        <ele>7.57</ele>
        <time>2020-12-19T17:34:27Z</time>
      </trkpt>
      <trkpt lat="48.7198" lon="-3.98953">
        <ele>7.774</ele>
        <time>2020-12-19T17:34:47Z</time>
      </trkpt>
      <trkpt lat="48.71954" lon="-3.99089">
        <ele>5.056</ele>
        <time>2020-12-19T17:35:07Z</time>
      </trkpt>
      <trkpt lat="48.7195" lon="-3.99138">
        <ele>4.421</ele>
        <time>2020-12-19T17:35:27Z</time>
      </trkpt>
      <trkpt lat="48.71884" lon="-3.99121">
        <ele>2.008</ele>
        <time>2020-12-19T17:35:47Z</time>
      </trkpt>
      <trkpt lat="48.71841" lon="-3.99074">
        <ele>6.193</ele>
        <time>2020-12-19T17:36:07Z</time>
      </trkpt>
      <trkpt lat="48.71696" lon="-3.99148">
        <ele>1.389</ele>
        <time>2020-01-02T21:34:57Z</time>
      </trkpt>
      <trkpt lat="48.71526" lon="-3.99279">
        <ele>2.18</ele>
        <time>2020-01-02T21:35:17Z</time>
      </trkpt>
      <trkpt lat="48.71444" lon="-3.99361">
        <ele>4.111</ele>
        <time>2020-01-02T21:35:37Z</time>
      </trkpt>
      <trkpt lat="48.71359" lon="-3.99476">
        <ele>4.972</ele>
        <time>2020-01-02T21:35:57Z</time>
      </trkpt>
      <trkpt lat="48.71283" lon="-3.996">
        <ele>3.482</ele>
        <time>2020-01-02T21:36:17Z</time>
      </trkpt>
      <trkpt lat="48.7125" lon="-3.99692">
        <ele>1.095</ele>
        <time>2020-01-02T21:36:37Z</time>
      </trkpt>
      <trkpt lat="48.71241" lon="-3.99855">
        <ele>0.552</ele>
        <time>2020-01-02T21:36:57Z</time>
      </trkpt>
      <trkpt lat="48.71227" lon="-3.99925">
        <ele>0.643</ele>
        <time>2020-01-02T21:37:17Z</time>
      </trkpt>
      <trkpt lat="48.71202" lon="-3.99993">
        <ele>0.064</ele>
        <time>2020-01-02T21:37:37Z</time>
      </trkpt>
      <trkpt lat="48.7115" lon="-4.00077">
        <ele>5.51</ele>
        <time>2020-01-02T21:37:57Z</time>
      </trkpt>
      <trkpt lat="48.71315" lon="-4.00274">
        <ele>0.008</ele>
        <time>2020-01-02T21:38:17Z</time>
      </trkpt>
      <trkpt lat="48.71491" lon="-4.00483">
        <ele>2.54</ele>
        <time>2020-01-02T21:38:37Z</time>
      </trkpt>
      <trkpt lat="48.71531" lon="-4.00509">
        <ele>4.896</ele>
        <time>2020-12-19T17:40:27Z</time>
      </trkpt>
      <trkpt lat="48.71428" lon="-4.0077">
        <ele>3.497</ele>
        <time>2020-12-19T17:40:47Z</time>
      </trkpt>
      <trkpt lat="48.71473" lon="-4.0097">
        <ele>5.088</ele>
        <time>2020-12-19T17:41:07Z</time>
      </trkpt>
      <trkpt lat="48.71562" lon="-4.01138">
        <ele>6.839</ele>
        <time>2020-12-19T17:41:27Z</time>
      </trkpt>
      <trkpt lat="48.71468" lon="-4.01211">
        <ele>6.059</ele>
        <time>2020-01-02T22:01:37Z</time>
      </trkpt>
      <trkpt lat="48.71365" lon="-4.01322">
        <ele>8.512</ele>
        <time>2020-01-02T22:01:57Z</time>
      </trkpt>
      <trkpt lat="48.71264" lon="-4.01477">
        <ele>5.469</ele>
        <time>2020-01-02T22:02:17Z</time>
      </trkpt>
      <trkpt lat="48.71194" lon="-4.01685">
        <ele>3.089</ele>
        <time>2020-01-02T22:02:37Z</time>
      </trkpt>
      <trkpt lat="48.71173" lon="-4.01811">
        <ele>4.806</ele>
        <time>2020-01-02T22:02:57Z</time>
      </trkpt>
      <trkpt lat="48.71156" lon="-4.01848">
        <ele>6.826</ele>
        <time>2020-01-02T22:03:17Z</time>
      </trkpt>
      <trkpt lat="48.71156" lon="-4.01881">
        <ele>5.708</ele>
        <time>2020-01-02T22:03:37Z</time>
      </trkpt>
      <trkpt lat="48.7114" lon="-4.01943">
        <ele>2.194</ele>
        <time>2020-01-02T22:03:57Z</time>
      </trkpt>
      <trkpt lat="48.7113" lon="-4.02038">
        <ele>2.27</ele>
        <time>2020-01-02T22:04:17Z</time>
      </trkpt>
      <trkpt lat="48.71109" lon="-4.02156">
        <ele>6.111</ele>
        <time>2020-01-02T22:04:37Z</time>
      </trkpt>
      <trkpt lat="48.71093" lon="-4.0215">
        <ele>6.772</ele>
        <time>2020-01-02T22:04:57Z</time>
      </trkpt>
      <trkpt lat="48.71085" lon="-4.02284">
        <ele>6.033</ele>
        <time>2020-01-02T22:05:17Z</time>
      </trkpt>
      <trkpt lat="48.71089" lon="-4.02308">
        <ele>5.613</ele>
        <time>2020-01-02T22:05:37Z</time>
      </trkpt>
      <trkpt lat="48.71066" lon="-4.02456">
        <ele>5.216</ele>
        <time>2020-01-02T22:05:57Z</time>
      </trkpt>
      <trkpt lat="48.71016" lon="-4.02436">
        <ele>9.323</ele>
        <time>2020-01-02T22:06:17Z</time>
      </trkpt>
      <trkpt lat="48.70959" lon="-4.02429">
        <ele>9.555</ele>
        <time>2020-01-02T22:06:37Z</time>
      </trkpt>
      <trkpt lat="48.70904" lon="-4.02397">
        <ele>11.307</ele>
        <time>2020-01-02T22:06:57Z</time>
      </trkpt>
      <trkpt lat="48.70831" lon="-4.02383">
        <ele>13.117</ele>
        <time>2020-01-02T22:07:17Z</time>
      </trkpt>
      <trkpt lat="48.70768" lon="-4.0239">
        <ele>14.608</ele>
        <time>2017-04-22T12:22:18Z</time>
      </trkpt>
      <trkpt lat="48.70768" lon="-4.0239">
        <ele>14.621</ele>
        <time>2017-04-22T12:22:18Z</time>
      </trkpt>
      <trkpt lat="48.70794" lon="-4.0246">
        <ele>11.867</ele>
        <time>2017-04-22T12:22:18Z</time>
      </trkpt>
      <trkpt lat="48.70809" lon="-4.02536">
        <ele>11.798</ele>
        <time>2017-04-22T12:22:38Z</time>
      </trkpt>
      <trkpt lat="48.70856" lon="-4.02617">
        <ele>10.069</ele>
        <time>2017-04-22T12:22:58Z</time>
      </trkpt>
      <trkpt lat="48.70888" lon="-4.02656">
        <ele>9.44</ele>
        <time>2017-04-22T12:23:18Z</time>
      </trkpt>
      <trkpt lat="48.70893" lon="-4.02694">
        <ele>9.01</ele>
        <time>2017-04-22T12:23:38Z</time>
      </trkpt>
      <trkpt lat="48.70916" lon="-4.02756">
        <ele>7.853</ele>
        <time>2017-04-22T12:23:58Z</time>
      </trkpt>
      <trkpt lat="48.70937" lon="-4.02778">
        <ele>7.05</ele>
        <time>2017-04-22T12:24:18Z</time>
      </trkpt>
      <trkpt lat="48.70958" lon="-4.02813">
        <ele>6.058</ele>
        <time>2017-04-22T12:24:38Z</time>
      </trkpt>
      <trkpt lat="48.7099" lon="-4.02848">
        <ele>6.052</ele>
        <time>2017-04-22T12:24:58Z</time>
      </trkpt>
      <trkpt lat="48.71025" lon="-4.02926">
        <ele>5.117</ele>
        <time>2017-04-22T12:26:18Z</time>
      </trkpt>
      <trkpt lat="48.71049" lon="-4.02923">
        <ele>5.008</ele>
        <time>2017-04-22T12:26:38Z</time>
      </trkpt>
      <trkpt lat="48.7112" lon="-4.02874">
        <ele>7.211</ele>
        <time>2017-04-22T12:26:58Z</time>
      </trkpt>
      <trkpt lat="48.7114" lon="-4.02977">
        <ele>6.887</ele>
        <time>2017-04-22T12:27:18Z</time>
      </trkpt>
      <trkpt lat="48.71152" lon="-4.03112">
        <ele>5.048</ele>
        <time>2017-04-22T12:27:38Z</time>
      </trkpt>
      <trkpt lat="48.71154" lon="-4.0323">
        <ele>7.159</ele>
        <time>2017-04-22T12:27:58Z</time>
      </trkpt>
      <trkpt lat="48.7113" lon="-4.03299">
        <ele>4.47</ele>
        <time>2017-04-22T12:28:18Z</time>
      </trkpt>
      <trkpt lat="48.7114" lon="-4.03361">
        <ele>3.05</ele>
        <time>2017-04-22T12:28:38Z</time>
      </trkpt>
      <trkpt lat="48.71157" lon="-4.03536">
        <ele>5.073</ele>
        <time>2017-04-22T12:28:58Z</time>
      </trkpt>
      <trkpt lat="48.71153" lon="-4.03613">
        <ele>2.98</ele>
        <time>2020-12-19T17:54:27Z</time>
      </trkpt>
      <trkpt lat="48.70983" lon="-4.03601">
        <ele>3.697</ele>
        <time>2017-04-22T12:38:58Z</time>
      </trkpt>
      <trkpt lat="48.70946" lon="-4.03577">
        <ele>5.223</ele>
        <time>2017-04-22T12:39:18Z</time>
      </trkpt>
      <trkpt lat="48.7091" lon="-4.03557">
        <ele>7.225</ele>
        <time>2017-04-22T12:39:38Z</time>
      </trkpt>
      <trkpt lat="48.70869" lon="-4.03562">
        <ele>8.108</ele>
        <time>2017-04-22T12:39:58Z</time>
      </trkpt>
      <trkpt lat="48.70824" lon="-4.03497">
        <ele>7.095</ele>
        <time>2017-04-22T12:40:18Z</time>
      </trkpt>
      <trkpt lat="48.70816" lon="-4.03518">
        <ele>7.761</ele>
        <time>2017-04-22T12:40:38Z</time>
      </trkpt>
      <trkpt lat="48.70608" lon="-4.03644">
        <ele>9.922</ele>
        <time>2017-04-22T12:40:58Z</time>
      </trkpt>
      <trkpt lat="48.70543" lon="-4.03722">
        <ele>8.593</ele>
        <time>2017-04-22T12:41:18Z</time>
      </trkpt>
      <trkpt lat="48.70506" lon="-4.03673">
        <ele>9.084</ele>
        <time>2017-04-22T12:41:38Z</time>
      </trkpt>
      <trkpt lat="48.70486" lon="-4.0373">
        <ele>9.294</ele>
        <time>2017-04-22T12:44:58Z</time>
      </trkpt>
      <trkpt lat="48.70468" lon="-4.03757">
        <ele>7.897</ele>
        <time>2017-04-22T12:45:18Z</time>
      </trkpt>
      <trkpt lat="48.70449" lon="-4.03764">
        <ele>7.954</ele>
        <time>2017-04-22T12:45:38Z</time>
      </trkpt>
      <trkpt lat="48.70422" lon="-4.03783">
        <ele>8.814</ele>
        <time>2017-04-22T12:45:58Z</time>
      </trkpt>
      <trkpt lat="48.70421" lon="-4.03813">
        <ele>8.854</ele>
        <time>2017-04-22T12:46:18Z</time>
      </trkpt>
      <trkpt lat="48.70407" lon="-4.03854">
        <ele>8.609</ele>
        <time>2017-04-22T12:46:38Z</time>
      </trkpt>
      <trkpt lat="48.70406" lon="-4.03901">
        <ele>6.208</ele>
        <time>2017-04-22T12:46:58Z</time>
      </trkpt>
      <trkpt lat="48.70399" lon="-4.03937">
        <ele>4.477</ele>
        <time>2017-04-22T12:47:18Z</time>
      </trkpt>
      <trkpt lat="48.70399" lon="-4.03937">
        <ele>4.433</ele>
        <time>2017-04-22T12:47:38Z</time>
      </trkpt>
      <trkpt lat="48.70382" lon="-4.03965">
        <ele>3.684</ele>
        <time>2017-04-22T12:47:58Z</time>
      </trkpt>
      <trkpt lat="48.7038" lon="-4.03976">
        <ele>3.875</ele>
        <time>2017-04-22T12:48:18Z</time>
      </trkpt>
      <trkpt lat="48.70358" lon="-4.04012">
        <ele>6.596</ele>
        <time>2017-04-22T12:48:38Z</time>
      </trkpt>
      <trkpt lat="48.70333" lon="-4.04027">
        <ele>7.016</ele>
        <time>2017-04-22T12:48:58Z</time>
      </trkpt>
      <trkpt lat="48.70285" lon="-4.04136">
        <ele>7.629</ele>
        <time>2017-04-22T12:49:18Z</time>
      </trkpt>
      <trkpt lat="48.70243" lon="-4.04208">
        <ele>8.256</ele>
        <time>2017-04-22T12:49:38Z</time>
      </trkpt>
      <trkpt lat="48.70241" lon="-4.04237">
        <ele>7.892</ele>
        <time>2017-04-22T12:49:58Z</time>
      </trkpt>
      <trkpt lat="48.70231" lon="-4.04287">
        <ele>7.273</ele>
        <time>2017-04-22T12:50:18Z</time>
      </trkpt>
      <trkpt lat="48.70212" lon="-4.04353">
        <ele>7.02</ele>
        <time>2017-04-22T12:50:38Z</time>
      </trkpt>
      <trkpt lat="48.70181" lon="-4.04338">
        <ele>7.008</ele>
        <time>2017-04-22T12:50:58Z</time>
      </trkpt>
      <trkpt lat="48.70169" lon="-4.04353">
        <ele>7.035</ele>
        <time>2017-04-22T12:51:18Z</time>
      </trkpt>
      <trkpt lat="48.70139" lon="-4.04336">
        <ele>8.031</ele>
        <time>2017-04-22T12:51:38Z</time>
      </trkpt>
      <trkpt lat="48.70098" lon="-4.04452">
        <ele>10.112</ele>
        <time>2017-04-22T12:51:58Z</time>
      </trkpt>
      <trkpt lat="48.7009" lon="-4.04504">
        <ele>10.723</ele>
        <time>2017-04-22T12:52:18Z</time>
      </trkpt>
      <trkpt lat="48.70073" lon="-4.045">
        <ele>10.634</ele>
        <time>2017-04-22T12:52:38Z</time>
      </trkpt>
      <trkpt lat="48.70057" lon="-4.04604">
        <ele>10.044</ele>
        <time>2017-04-22T12:52:58Z</time>
      </trkpt>
      <trkpt lat="48.7006" lon="-4.0465">
        <ele>10.027</ele>
        <time>2017-04-22T12:53:18Z</time>
      </trkpt>
      <trkpt lat="48.70049" lon="-4.04665">
        <ele>10.074</ele>
        <time>2017-04-22T12:53:38Z</time>
      </trkpt>
      <trkpt lat="48.7005" lon="-4.04687">
        <ele>10.167</ele>
        <time>2017-04-22T12:53:58Z</time>
      </trkpt>
      <trkpt lat="48.70041" lon="-4.04728">
        <ele>10.381</ele>
        <time>2017-04-22T12:54:18Z</time>
      </trkpt>
      <trkpt lat="48.70042" lon="-4.04753">
        <ele>9.519</ele>
        <time>2017-04-22T12:54:38Z</time>
      </trkpt>
      <trkpt lat="48.70059" lon="-4.04819">
        <ele>8.908</ele>
        <time>2017-04-22T12:54:58Z</time>
      </trkpt>
      <trkpt lat="48.7007" lon="-4.04838">
        <ele>8.692</ele>
        <time>2017-04-22T12:55:18Z</time>
      </trkpt>
      <trkpt lat="48.70141" lon="-4.04889">
        <ele>10.068</ele>
        <time>2017-04-22T12:55:38Z</time>
      </trkpt>
      <trkpt lat="48.70162" lon="-4.04894">
        <ele>9.919</ele>
        <time>2017-04-22T12:55:58Z</time>
      </trkpt>
      <trkpt lat="48.70215" lon="-4.04893">
        <ele>7.39</ele>
        <time>2017-04-22T12:56:18Z</time>
      </trkpt>
      <trkpt lat="48.70309" lon="-4.04906">
        <ele>6.931</ele>
        <time>2017-04-22T12:56:38Z</time>
      </trkpt>
      <trkpt lat="48.70369" lon="-4.04941">
        <ele>5.161</ele>
        <time>2017-04-22T12:56:58Z</time>
      </trkpt>
      <trkpt lat="48.70417" lon="-4.04964">
        <ele>6.074</ele>
        <time>2017-04-22T12:57:18Z</time>
      </trkpt>
      <trkpt lat="48.70434" lon="-4.04983">
        <ele>6.231</ele>
        <time>2017-04-22T12:57:38Z</time>
      </trkpt>
      <trkpt lat="48.70441" lon="-4.05022">
        <ele>5.285</ele>
        <time>2017-04-22T12:57:58Z</time>
      </trkpt>
      <trkpt lat="48.70465" lon="-4.05052">
        <ele>5.689</ele>
        <time>2017-04-22T12:58:18Z</time>
      </trkpt>
      <trkpt lat="48.7047" lon="-4.05145">
        <ele>5.817</ele>
        <time>2017-04-22T12:58:38Z</time>
      </trkpt>
      <trkpt lat="48.7046" lon="-4.05161">
        <ele>5.508</ele>
        <time>2017-04-22T12:58:58Z</time>
      </trkpt>
      <trkpt lat="48.70457" lon="-4.0519">
        <ele>4.214</ele>
        <time>2017-04-22T12:59:18Z</time>
      </trkpt>
      <trkpt lat="48.70405" lon="-4.05186">
        <ele>3.91</ele>
        <time>2017-04-22T12:59:38Z</time>
      </trkpt>
      <trkpt lat="48.70372" lon="-4.05204">
        <ele>4.811</ele>
        <time>2017-04-22T12:59:58Z</time>
      </trkpt>
      <trkpt lat="48.70333" lon="-4.05205">
        <ele>7.622</ele>
        <time>2017-04-22T13:00:18Z</time>
      </trkpt>
      <trkpt lat="48.70285" lon="-4.05194">
        <ele>9.553</ele>
        <time>2017-04-22T13:00:38Z</time>
      </trkpt>
      <trkpt lat="48.70279" lon="-4.05222">
        <ele>9.023</ele>
        <time>2017-04-22T13:00:58Z</time>
      </trkpt>
      <trkpt lat="48.70262" lon="-4.05253">
        <ele>8.976</ele>
        <time>2017-04-22T13:01:18Z</time>
      </trkpt>
      <trkpt lat="48.70245" lon="-4.05266">
        <ele>8.673</ele>
        <time>2017-04-22T13:01:38Z</time>
      </trkpt>
      <trkpt lat="48.70229" lon="-4.05291">
        <ele>8.564</ele>
        <time>2017-04-22T13:01:58Z</time>
      </trkpt>
      <trkpt lat="48.70198" lon="-4.0528">
        <ele>10.806</ele>
        <time>2017-04-22T13:02:18Z</time>
      </trkpt>
      <trkpt lat="48.70187" lon="-4.05284">
        <ele>10.716</ele>
        <time>2017-04-22T13:02:38Z</time>
      </trkpt>
      <trkpt lat="48.70163" lon="-4.05381">
        <ele>10.808</ele>
        <time>2017-04-22T13:02:58Z</time>
      </trkpt>
      <trkpt lat="48.70157" lon="-4.05469">
        <ele>10.792</ele>
        <time>2017-04-22T13:03:18Z</time>
      </trkpt>
      <trkpt lat="48.7015" lon="-4.05484">
        <ele>9.768</ele>
        <time>2017-04-22T13:03:38Z</time>
      </trkpt>
      <trkpt lat="48.70115" lon="-4.05511">
        <ele>7.669</ele>
        <time>2017-04-22T13:03:58Z</time>
      </trkpt>
      <trkpt lat="48.70085" lon="-4.05568">
        <ele>6.47</ele>
        <time>2017-04-22T13:04:18Z</time>
      </trkpt>
      <trkpt lat="48.69969" lon="-4.05495">
        <ele>7.971</ele>
        <time>2017-04-22T13:04:38Z</time>
      </trkpt>
      <trkpt lat="48.69651" lon="-4.05328">
        <ele>7.821</ele>
        <time>2017-04-22T13:04:58Z</time>
      </trkpt>
      <trkpt lat="48.69536" lon="-4.0527">
        <ele>6.084</ele>
        <time>2017-04-22T13:05:18Z</time>
      </trkpt>
      <trkpt lat="48.69376" lon="-4.05191">
        <ele>7.751</ele>
        <time>2017-04-22T13:05:38Z</time>
      </trkpt>
      <trkpt lat="48.69273" lon="-4.05162">
        <ele>14.161</ele>
        <time>2017-04-22T13:05:58Z</time>
      </trkpt>
      <trkpt lat="48.69239" lon="-4.05172">
        <ele>13.821</ele>
        <time>2017-04-22T13:06:18Z</time>
      </trkpt>
      <trkpt lat="48.69212" lon="-4.05174">
        <ele>11.213</ele>
        <time>2017-04-22T13:06:38Z</time>
      </trkpt>
      <trkpt lat="48.69187" lon="-4.05156">
        <ele>7.908</ele>
        <time>2017-04-22T13:06:58Z</time>
      </trkpt>
      <trkpt lat="48.69086" lon="-4.05118">
        <ele>6.932</ele>
        <time>2017-04-22T13:07:18Z</time>
      </trkpt>
      <trkpt lat="48.68784" lon="-4.05037">
        <ele>4.928</ele>
        <time>2017-04-22T13:07:38Z</time>
      </trkpt>
      <trkpt lat="48.68773" lon="-4.0497">
        <ele>4.689</ele>
        <time>2020-12-19T18:20:47Z</time>
      </trkpt>
      <trkpt lat="48.68746" lon="-4.04953">
        <ele>3.05</ele>
        <time>2020-12-19T18:21:07Z</time>
      </trkpt>
      <trkpt lat="48.68683" lon="-4.04955">
        <ele>2.081</ele>
        <time>2020-12-19T18:21:27Z</time>
      </trkpt>
      <trkpt lat="48.68571" lon="-4.05192">
        <ele>4.461</ele>
        <time>2020-12-19T18:21:47Z</time>
      </trkpt>
      <trkpt lat="48.68554" lon="-4.05311">
        <ele>3.294</ele>
        <time>2020-12-19T18:22:07Z</time>
      </trkpt>
      <trkpt lat="48.68506" lon="-4.05474">
        <ele>4.681</ele>
        <time>2020-12-19T18:22:27Z</time>
      </trkpt>
      <trkpt lat="48.6848" lon="-4.05491">
        <ele>5.621</ele>
        <time>2020-12-19T18:22:47Z</time>
      </trkpt>
      <trkpt lat="48.68497" lon="-4.0552">
        <ele>4.241</ele>
        <time>2017-04-22T13:24:58Z</time>
      </trkpt>
      <trkpt lat="48.68497" lon="-4.05557">
        <ele>5.205</ele>
        <time>2017-04-22T13:25:18Z</time>
      </trkpt>
      <trkpt lat="48.68523" lon="-4.05564">
        <ele>5.408</ele>
        <time>2017-04-22T13:25:38Z</time>
      </trkpt>
      <trkpt lat="48.68519" lon="-4.05588">
        <ele>6.618</ele>
        <time>2017-04-22T13:25:58Z</time>
      </trkpt>
      <trkpt lat="48.68536" lon="-4.05622">
        <ele>7.644</ele>
        <time>2017-04-22T13:26:18Z</time>
      </trkpt>
      <trkpt lat="48.68576" lon="-4.05671">
        <ele>6.115</ele>
        <time>2017-04-22T13:26:38Z</time>
      </trkpt>
      <trkpt lat="48.68584" lon="-4.057">
        <ele>4.916</ele>
        <time>2017-04-22T13:26:58Z</time>
      </trkpt>
      <trkpt lat="48.68586" lon="-4.05769">
        <ele>5.827</ele>
        <time>2017-04-22T13:27:18Z</time>
      </trkpt>
      <trkpt lat="48.68598" lon="-4.05851">
        <ele>6.017</ele>
        <time>2017-04-22T13:27:38Z</time>
      </trkpt>
      <trkpt lat="48.6863" lon="-4.05886">
        <ele>5.62</ele>
        <time>2017-04-22T13:27:58Z</time>
      </trkpt>
      <trkpt lat="48.68681" lon="-4.05898">
        <ele>3.317</ele>
        <time>2017-04-22T13:28:18Z</time>
      </trkpt>
      <trkpt lat="48.68691" lon="-4.05916">
        <ele>4.025</ele>
        <time>2017-04-22T13:28:38Z</time>
      </trkpt>
      <trkpt lat="48.68701" lon="-4.05953">
        <ele>5.226</ele>
        <time>2017-04-22T13:28:58Z</time>
      </trkpt>
      <trkpt lat="48.68727" lon="-4.06005">
        <ele>3.808</ele>
        <time>2017-04-22T13:29:18Z</time>
      </trkpt>
      <trkpt lat="48.6877" lon="-4.06116">
        <ele>3.008</ele>
        <time>2017-04-22T13:29:38Z</time>
      </trkpt>
      <trkpt lat="48.68773" lon="-4.06152">
        <ele>4.718</ele>
        <time>2017-04-22T13:29:58Z</time>
      </trkpt>
      <trkpt lat="48.6876" lon="-4.06204">
        <ele>6.044</ele>
        <time>2017-04-22T13:30:18Z</time>
      </trkpt>
      <trkpt lat="48.68749" lon="-4.06228">
        <ele>5.575</ele>
        <time>2017-04-22T13:30:38Z</time>
      </trkpt>
      <trkpt lat="48.68727" lon="-4.06238">
        <ele>3.266</ele>
        <time>2017-04-22T13:30:58Z</time>
      </trkpt>
      <trkpt lat="48.68712" lon="-4.06219">
        <ele>4.167</ele>
        <time>2017-04-22T13:31:18Z</time>
      </trkpt>
      <trkpt lat="48.68676" lon="-4.06278">
        <ele>5.087</ele>
        <time>2017-04-22T13:31:38Z</time>
      </trkpt>
      <trkpt lat="48.68647" lon="-4.06379">
        <ele>4.41</ele>
        <time>2017-04-22T13:31:58Z</time>
      </trkpt>
      <trkpt lat="48.68645" lon="-4.06407">
        <ele>2.867</ele>
        <time>2017-04-22T13:32:18Z</time>
      </trkpt>
      <trkpt lat="48.6863" lon="-4.06438">
        <ele>4.511</ele>
        <time>2017-04-22T13:32:38Z</time>
      </trkpt>
      <trkpt lat="48.68609" lon="-4.06519">
        <ele>7.021</ele>
        <time>2017-04-22T13:32:58Z</time>
      </trkpt>
      <trkpt lat="48.68611" lon="-4.06563">
        <ele>4.703</ele>
        <time>2017-04-22T13:33:18Z</time>
      </trkpt>
      <trkpt lat="48.68682" lon="-4.06674">
        <ele>1.808</ele>
        <time>2017-04-22T13:33:38Z</time>
      </trkpt>
      <trkpt lat="48.6871" lon="-4.06696">
        <ele>1.587</ele>
        <time>2017-04-22T13:33:58Z</time>
      </trkpt>
      <trkpt lat="48.68737" lon="-4.06746">
        <ele>1.823</ele>
        <time>2017-04-22T13:34:18Z</time>
      </trkpt>
      <trkpt lat="48.68775" lon="-4.0679">
        <ele>3.014</ele>
        <time>2017-04-22T13:34:38Z</time>
      </trkpt>
      <trkpt lat="48.68814" lon="-4.06804">
        <ele>2.395</ele>
        <time>2017-04-22T13:34:58Z</time>
      </trkpt>
      <trkpt lat="48.68832" lon="-4.0682">
        <ele>1.196</ele>
        <time>2017-04-22T13:35:18Z</time>
      </trkpt>
      <trkpt lat="48.68834" lon="-4.06866">
        <ele>1.956</ele>
        <time>2017-04-22T13:35:38Z</time>
      </trkpt>
      <trkpt lat="48.68802" lon="-4.06924">
        <ele>3.949</ele>
        <time>2017-04-22T13:35:58Z</time>
      </trkpt>
      <trkpt lat="48.68785" lon="-4.06971">
        <ele>2.826</ele>
        <time>2017-04-22T13:36:18Z</time>
      </trkpt>
      <trkpt lat="48.68724" lon="-4.06972">
        <ele>2.185</ele>
        <time>2017-04-22T13:36:38Z</time>
      </trkpt>
      <trkpt lat="48.68715" lon="-4.06935">
        <ele>3.789</ele>
        <time>2017-04-22T13:36:58Z</time>
      </trkpt>
      <trkpt lat="48.68722" lon="-4.06896">
        <ele>6.717</ele>
        <time>2017-04-22T13:37:18Z</time>
      </trkpt>
      <trkpt lat="48.68715" lon="-4.06778">
        <ele>4.008</ele>
        <time>2017-04-22T13:37:38Z</time>
      </trkpt>
      <trkpt lat="48.68682" lon="-4.06736">
        <ele>3.994</ele>
        <time>2017-04-22T13:37:58Z</time>
      </trkpt>
      <trkpt lat="48.68661" lon="-4.06693">
        <ele>4.17</ele>
        <time>2017-04-22T13:38:18Z</time>
      </trkpt>
      <trkpt lat="48.68626" lon="-4.06654">
        <ele>2.831</ele>
        <time>2017-04-22T13:38:38Z</time>
      </trkpt>
      <trkpt lat="48.68619" lon="-4.06634">
        <ele>2.422</ele>
        <time>2017-04-22T13:38:58Z</time>
      </trkpt>
      <trkpt lat="48.68603" lon="-4.06626">
        <ele>2.663</ele>
        <time>2017-04-22T13:39:18Z</time>
      </trkpt>
      <trkpt lat="48.68598" lon="-4.06603">
        <ele>3.393</ele>
        <time>2017-04-22T13:39:38Z</time>
      </trkpt>
      <trkpt lat="48.68581" lon="-4.06591">
        <ele>3.946</ele>
        <time>2017-04-22T13:39:58Z</time>
      </trkpt>
      <trkpt lat="48.68545" lon="-4.06594">
        <ele>6.423</ele>
        <time>2017-04-22T13:40:18Z</time>
      </trkpt>
      <trkpt lat="48.68506" lon="-4.06584">
        <ele>6.212</ele>
        <time>2017-04-22T13:40:38Z</time>
      </trkpt>
      <trkpt lat="48.68443" lon="-4.06583">
        <ele>6.032</ele>
        <time>2017-04-22T13:40:58Z</time>
      </trkpt>
      <trkpt lat="48.68392" lon="-4.0657">
        <ele>7.405</ele>
        <time>2017-04-22T13:41:18Z</time>
      </trkpt>
      <trkpt lat="48.6837" lon="-4.06552">
        <ele>7.408</ele>
        <time>2017-04-22T13:41:38Z</time>
      </trkpt>
      <trkpt lat="48.68357" lon="-4.06475">
        <ele>6.537</ele>
        <time>2017-04-22T13:41:58Z</time>
      </trkpt>
      <trkpt lat="48.68358" lon="-4.06452">
        <ele>6.883</ele>
        <time>2017-04-22T13:42:18Z</time>
      </trkpt>
      <trkpt lat="48.68319" lon="-4.06393">
        <ele>5.934</ele>
        <time>2017-04-22T13:42:38Z</time>
      </trkpt>
      <trkpt lat="48.68306" lon="-4.06392">
        <ele>5.935</ele>
        <time>2017-04-22T13:42:58Z</time>
      </trkpt>
      <trkpt lat="48.68278" lon="-4.06343">
        <ele>6.086</ele>
        <time>2017-04-22T13:43:18Z</time>
      </trkpt>
      <trkpt lat="48.6824" lon="-4.06301">
        <ele>5.216</ele>
        <time>2017-04-22T13:43:38Z</time>
      </trkpt>
      <trkpt lat="48.68208" lon="-4.0629">
        <ele>5.369</ele>
        <time>2017-04-22T13:43:58Z</time>
      </trkpt>
      <trkpt lat="48.68153" lon="-4.06293">
        <ele>4.076</ele>
        <time>2017-04-22T13:44:18Z</time>
      </trkpt>
      <trkpt lat="48.68114" lon="-4.06328">
        <ele>3.135</ele>
        <time>2017-04-22T13:44:38Z</time>
      </trkpt>
      <trkpt lat="48.68105" lon="-4.06321">
        <ele>3.486</ele>
        <time>2017-04-22T13:44:58Z</time>
      </trkpt>
      <trkpt lat="48.6809" lon="-4.06286">
        <ele>4.714</ele>
        <time>2017-04-22T13:45:18Z</time>
      </trkpt>
      <trkpt lat="48.68074" lon="-4.063">
        <ele>4.208</ele>
        <time>2017-04-22T13:45:38Z</time>
      </trkpt>
      <trkpt lat="48.68049" lon="-4.06283">
        <ele>4.649</ele>
        <time>2017-04-22T13:45:58Z</time>
      </trkpt>
      <trkpt lat="48.68056" lon="-4.06278">
        <ele>5.055</ele>
        <time>2017-04-22T13:46:18Z</time>
      </trkpt>
      <trkpt lat="48.68036" lon="-4.06236">
        <ele>4.356</ele>
        <time>2017-04-22T13:46:38Z</time>
      </trkpt>
      <trkpt lat="48.68011" lon="-4.06143">
        <ele>5.157</ele>
        <time>2017-04-22T13:46:58Z</time>
      </trkpt>
      <trkpt lat="48.67952" lon="-4.06066">
        <ele>5.998</ele>
        <time>2017-04-22T13:47:18Z</time>
      </trkpt>
      <trkpt lat="48.6791" lon="-4.06043">
        <ele>5.238</ele>
        <time>2017-04-22T13:47:38Z</time>
      </trkpt>
      <trkpt lat="48.67864" lon="-4.06027">
        <ele>4.141</ele>
        <time>2017-04-22T13:47:58Z</time>
      </trkpt>
      <trkpt lat="48.67829" lon="-4.05999">
        <ele>4.918</ele>
        <time>2017-04-22T13:48:18Z</time>
      </trkpt>
      <trkpt lat="48.67804" lon="-4.05993">
        <ele>4.237</ele>
        <time>2017-04-22T13:48:38Z</time>
      </trkpt>
      <trkpt lat="48.6775" lon="-4.05931">
        <ele>6.049</ele>
        <time>2017-04-22T13:48:58Z</time>
      </trkpt>
      <trkpt lat="48.67736" lon="-4.05902">
        <ele>8.113</ele>
        <time>2017-04-22T13:49:18Z</time>
      </trkpt>
      <trkpt lat="48.67713" lon="-4.05925">
        <ele>7.908</ele>
        <time>2017-04-22T13:49:38Z</time>
      </trkpt>
      <trkpt lat="48.67691" lon="-4.05911">
        <ele>8.999</ele>
        <time>2017-04-22T13:49:58Z</time>
      </trkpt>
      <trkpt lat="48.67661" lon="-4.05865">
        <ele>8.645</ele>
        <time>2017-04-22T13:50:18Z</time>
      </trkpt>
      <trkpt lat="48.67646" lon="-4.05834">
        <ele>9.286</ele>
        <time>2017-04-22T13:50:38Z</time>
      </trkpt>
      <trkpt lat="48.67613" lon="-4.05781">
        <ele>8.067</ele>
        <time>2017-04-22T13:50:58Z</time>
      </trkpt>
      <trkpt lat="48.67585" lon="-4.0572">
        <ele>9.148</ele>
        <time>2017-04-22T13:51:18Z</time>
      </trkpt>
      <trkpt lat="48.67559" lon="-4.05701">
        <ele>10.478</ele>
        <time>2017-04-22T13:51:38Z</time>
      </trkpt>
      <trkpt lat="48.6754" lon="-4.05699">
        <ele>10.831</ele>
        <time>2017-04-22T13:51:58Z</time>
      </trkpt>
      <trkpt lat="48.67505" lon="-4.05709">
        <ele>8.478</ele>
        <time>2017-04-22T13:52:18Z</time>
      </trkpt>
      <trkpt lat="48.67436" lon="-4.0569">
        <ele>5.616</ele>
        <time>2017-04-22T13:52:38Z</time>
      </trkpt>
      <trkpt lat="48.6734" lon="-4.05646">
        <ele>8.976</ele>
        <time>2017-04-22T13:52:58Z</time>
      </trkpt>
      <trkpt lat="48.67319" lon="-4.05628">
        <ele>9.313</ele>
        <time>2017-04-22T13:53:18Z</time>
      </trkpt>
      <trkpt lat="48.67287" lon="-4.05614">
        <ele>9.208</ele>
        <time>2017-04-22T13:53:38Z</time>
      </trkpt>
      <trkpt lat="48.67245" lon="-4.05608">
        <ele>6.077</ele>
        <time>2017-04-22T13:53:58Z</time>
      </trkpt>
      <trkpt lat="48.67265" lon="-4.05544">
        <ele>12.643</ele>
        <time>2017-04-22T13:54:18Z</time>
      </trkpt>
      <trkpt lat="48.67193" lon="-4.05524">
        <ele>12.354</ele>
        <time>2017-04-22T13:54:38Z</time>
      </trkpt>
      <trkpt lat="48.67168" lon="-4.05543">
        <ele>9.475</ele>
        <time>2017-04-22T13:54:58Z</time>
      </trkpt>
      <trkpt lat="48.67061" lon="-4.05536">
        <ele>5.796</ele>
        <time>2017-04-22T13:55:18Z</time>
      </trkpt>
      <trkpt lat="48.66981" lon="-4.05513">
        <ele>6.586</ele>
        <time>2017-04-22T13:55:38Z</time>
      </trkpt>
      <trkpt lat="48.66931" lon="-4.05488">
        <ele>8.359</ele>
        <time>2017-04-22T13:55:58Z</time>
      </trkpt>
      <trkpt lat="48.66915" lon="-4.05463">
        <ele>8.016</ele>
        <time>2017-04-22T13:56:18Z</time>
      </trkpt>
      <trkpt lat="48.66871" lon="-4.05652">
        <ele>11.413</ele>
        <time>2017-04-22T13:56:38Z</time>
      </trkpt>
      <trkpt lat="48.66868" lon="-4.05704">
        <ele>13.943</ele>
        <time>2020-12-19T18:55:07Z</time>
      </trkpt>
      <trkpt lat="48.6688" lon="-4.05715">
        <ele>13.907</ele>
        <time>2020-12-19T18:55:27Z</time>
      </trkpt>
      <trkpt lat="48.66908" lon="-4.05706">
        <ele>11.208</ele>
        <time>2020-12-19T18:55:47Z</time>
      </trkpt>
      <trkpt lat="48.66955" lon="-4.0577">
        <ele>17.927</ele>
        <time>2020-12-19T18:56:07Z</time>
      </trkpt>
      <trkpt lat="48.66987" lon="-4.05771">
        <ele>17.053</ele>
        <time>2020-12-19T18:56:27Z</time>
      </trkpt>
      <trkpt lat="48.67035" lon="-4.05745">
        <ele>10.214</ele>
        <time>2020-12-19T18:56:47Z</time>
      </trkpt>
      <trkpt lat="48.67147" lon="-4.05743">
        <ele>7.075</ele>
        <time>2020-12-19T18:57:07Z</time>
      </trkpt>
      <trkpt lat="48.67192" lon="-4.05793">
        <ele>11.216</ele>
        <time>2020-12-19T18:57:27Z</time>
      </trkpt>
      <trkpt lat="48.67217" lon="-4.05805">
        <ele>11.166</ele>
        <time>2020-12-19T18:57:47Z</time>
      </trkpt>
      <trkpt lat="48.67246" lon="-4.0584">
        <ele>12.959</ele>
        <time>2017-04-22T14:05:38Z</time>
      </trkpt>
      <trkpt lat="48.67289" lon="-4.05891">
        <ele>12.526</ele>
        <time>2017-04-22T14:05:58Z</time>
      </trkpt>
      <trkpt lat="48.67307" lon="-4.05806">
        <ele>12.061</ele>
        <time>2017-04-22T14:06:18Z</time>
      </trkpt>
      <trkpt lat="48.67336" lon="-4.05768">
        <ele>9.621</ele>
        <time>2017-04-22T14:06:38Z</time>
      </trkpt>
      <trkpt lat="48.67381" lon="-4.05767">
        <ele>8.513</ele>
        <time>2017-04-22T14:06:58Z</time>
      </trkpt>
      <trkpt lat="48.67443" lon="-4.05798">
        <ele>7.108</ele>
        <time>2017-04-22T14:09:58Z</time>
      </trkpt>
      <trkpt lat="48.67519" lon="-4.05797">
        <ele>6.012</ele>
        <time>2017-04-22T14:10:18Z</time>
      </trkpt>
      <trkpt lat="48.67526" lon="-4.05843">
        <ele>7.348</ele>
        <time>2017-04-22T14:10:38Z</time>
      </trkpt>
      <trkpt lat="48.67543" lon="-4.0587">
        <ele>7.199</ele>
        <time>2017-04-22T14:10:58Z</time>
      </trkpt>
      <trkpt lat="48.67556" lon="-4.05946">
        <ele>9.08</ele>
        <time>2017-04-22T14:11:18Z</time>
      </trkpt>
      <trkpt lat="48.67569" lon="-4.05984">
        <ele>9.671</ele>
        <time>2017-04-22T14:11:38Z</time>
      </trkpt>
      <trkpt lat="48.67584" lon="-4.05995">
        <ele>9.681</ele>
        <time>2017-04-22T14:11:58Z</time>
      </trkpt>
      <trkpt lat="48.67617" lon="-4.05995">
        <ele>6.264</ele>
        <time>2017-04-22T14:12:18Z</time>
      </trkpt>
      <trkpt lat="48.67615" lon="-4.0603">
        <ele>7.891</ele>
        <time>2017-04-22T14:12:38Z</time>
      </trkpt>
      <trkpt lat="48.67624" lon="-4.0605">
        <ele>7.183</ele>
        <time>2017-04-22T14:12:58Z</time>
      </trkpt>
      <trkpt lat="48.67629" lon="-4.0608">
        <ele>7.025</ele>
        <time>2017-04-22T14:13:18Z</time>
      </trkpt>
      <trkpt lat="48.67674" lon="-4.06148">
        <ele>7.317</ele>
        <time>2017-04-22T14:13:38Z</time>
      </trkpt>
      <trkpt lat="48.67736" lon="-4.06205">
        <ele>9.408</ele>
        <time>2017-04-22T14:13:58Z</time>
      </trkpt>
      <trkpt lat="48.67781" lon="-4.06234">
        <ele>7.774</ele>
        <time>2017-04-22T14:14:18Z</time>
      </trkpt>
      <trkpt lat="48.6781" lon="-4.06283">
        <ele>5.57</ele>
        <time>2017-04-22T14:14:38Z</time>
      </trkpt>
      <trkpt lat="48.67833" lon="-4.06387">
        <ele>2.281</ele>
        <time>2017-04-22T14:14:58Z</time>
      </trkpt>
      <trkpt lat="48.67782" lon="-4.06399">
        <ele>5.552</ele>
        <time>2017-04-22T14:15:18Z</time>
      </trkpt>
      <trkpt lat="48.67741" lon="-4.06374">
        <ele>9.673</ele>
        <time>2020-12-19T19:05:27Z</time>
      </trkpt>
      <trkpt lat="48.67718" lon="-4.06405">
        <ele>12.763</ele>
        <time>2020-12-19T19:05:47Z</time>
      </trkpt>
      <trkpt lat="48.67745" lon="-4.06522">
        <ele>19.436</ele>
        <time>2020-12-19T19:06:07Z</time>
      </trkpt>
      <trkpt lat="48.67749" lon="-4.06606">
        <ele>28.943</ele>
        <time>2020-12-19T19:06:27Z</time>
      </trkpt>
      <trkpt lat="48.67797" lon="-4.06683">
        <ele>27.317</ele>
        <time>2020-12-19T19:06:47Z</time>
      </trkpt>
      <trkpt lat="48.67846" lon="-4.0667">
        <ele>17.287</ele>
        <time>2020-12-19T19:07:07Z</time>
      </trkpt>
      <trkpt lat="48.67926" lon="-4.06794">
        <ele>9.915</ele>
        <time>2017-04-22T14:18:18Z</time>
      </trkpt>
      <trkpt lat="48.67956" lon="-4.06879">
        <ele>9.808</ele>
        <time>2017-04-22T14:18:38Z</time>
      </trkpt>
      <trkpt lat="48.67997" lon="-4.06916">
        <ele>7.427</ele>
        <time>2017-04-22T14:18:58Z</time>
      </trkpt>
      <trkpt lat="48.68023" lon="-4.06913">
        <ele>5.033</ele>
        <time>2017-04-22T14:19:18Z</time>
      </trkpt>
      <trkpt lat="48.6806" lon="-4.06932">
        <ele>6.034</ele>
        <time>2017-04-22T14:19:38Z</time>
      </trkpt>
      <trkpt lat="48.68085" lon="-4.06953">
        <ele>6.275</ele>
        <time>2017-04-22T14:19:58Z</time>
      </trkpt>
      <trkpt lat="48.68105" lon="-4.06954">
        <ele>5.616</ele>
        <time>2017-04-22T14:20:18Z</time>
      </trkpt>
      <trkpt lat="48.6812" lon="-4.06942">
        <ele>4.966</ele>
        <time>2017-04-22T14:20:38Z</time>
      </trkpt>
      <trkpt lat="48.68127" lon="-4.06904">
        <ele>4.629</ele>
        <time>2017-04-22T14:20:58Z</time>
      </trkpt>
      <trkpt lat="48.68152" lon="-4.06896">
        <ele>5.866</ele>
        <time>2017-04-22T14:21:18Z</time>
      </trkpt>
      <trkpt lat="48.68152" lon="-4.06885">
        <ele>6.033</ele>
        <time>2017-04-22T14:21:38Z</time>
      </trkpt>
      <trkpt lat="48.68161" lon="-4.06876">
        <ele>6.623</ele>
        <time>2017-04-22T14:21:58Z</time>
      </trkpt>
      <trkpt lat="48.68159" lon="-4.06859">
        <ele>6.415</ele>
        <time>2017-04-22T14:22:18Z</time>
      </trkpt>
      <trkpt lat="48.68171" lon="-4.06807">
        <ele>6.208</ele>
        <time>2017-04-22T14:22:38Z</time>
      </trkpt>
      <trkpt lat="48.68166" lon="-4.06786">
        <ele>5.369</ele>
        <time>2017-04-22T14:22:58Z</time>
      </trkpt>
      <trkpt lat="48.68173" lon="-4.06766">
        <ele>4.585</ele>
        <time>2017-04-22T14:23:18Z</time>
      </trkpt>
      <trkpt lat="48.68176" lon="-4.06747">
        <ele>3.566</ele>
        <time>2017-04-22T14:23:38Z</time>
      </trkpt>
      <trkpt lat="48.68181" lon="-4.06738">
        <ele>3.317</ele>
        <time>2017-04-22T14:23:58Z</time>
      </trkpt>
      <trkpt lat="48.68212" lon="-4.06726">
        <ele>4.578</ele>
        <time>2017-04-22T14:24:18Z</time>
      </trkpt>
      <trkpt lat="48.6823" lon="-4.0676">
        <ele>7.288</ele>
        <time>2017-04-22T14:24:38Z</time>
      </trkpt>
      <trkpt lat="48.68253" lon="-4.0677">
        <ele>7.211</ele>
        <time>2017-04-22T14:24:58Z</time>
      </trkpt>
      <trkpt lat="48.68284" lon="-4.06806">
        <ele>6.638</ele>
        <time>2017-04-22T14:25:18Z</time>
      </trkpt>
      <trkpt lat="48.68323" lon="-4.06851">
        <ele>7.453</ele>
        <time>2017-04-22T14:25:38Z</time>
      </trkpt>
      <trkpt lat="48.68336" lon="-4.06902">
        <ele>7.504</ele>
        <time>2017-04-22T14:25:58Z</time>
      </trkpt>
      <trkpt lat="48.68353" lon="-4.06923">
        <ele>3.914</ele>
        <time>2017-04-22T14:26:18Z</time>
      </trkpt>
      <trkpt lat="48.68352" lon="-4.06953">
        <ele>4.708</ele>
        <time>2017-04-22T14:26:38Z</time>
      </trkpt>
      <trkpt lat="48.68334" lon="-4.07005">
        <ele>7.751</ele>
        <time>2017-04-22T14:26:58Z</time>
      </trkpt>
      <trkpt lat="48.68316" lon="-4.07015">
        <ele>9.477</ele>
        <time>2017-04-22T14:27:58Z</time>
      </trkpt>
      <trkpt lat="48.68309" lon="-4.07041">
        <ele>9.178</ele>
        <time>2017-04-22T14:28:18Z</time>
      </trkpt>
      <trkpt lat="48.6832" lon="-4.07117">
        <ele>7.819</ele>
        <time>2017-04-22T14:28:38Z</time>
      </trkpt>
      <trkpt lat="48.68333" lon="-4.07144">
        <ele>8.46</ele>
        <time>2017-04-22T14:28:58Z</time>
      </trkpt>
      <trkpt lat="48.68363" lon="-4.07175">
        <ele>8.26</ele>
        <time>2017-04-22T14:29:18Z</time>
      </trkpt>
      <trkpt lat="48.68428" lon="-4.07212">
        <ele>9.383</ele>
        <time>2017-04-22T14:29:38Z</time>
      </trkpt>
      <trkpt lat="48.68456" lon="-4.07198">
        <ele>8.72</ele>
        <time>2017-04-22T14:29:58Z</time>
      </trkpt>
      <trkpt lat="48.68472" lon="-4.07159">
        <ele>6.461</ele>
        <time>2017-04-22T14:30:18Z</time>
      </trkpt>
      <trkpt lat="48.68484" lon="-4.07149">
        <ele>7.421</ele>
        <time>2017-04-22T14:30:38Z</time>
      </trkpt>
      <trkpt lat="48.68483" lon="-4.0711">
        <ele>5.113</ele>
        <time>2017-04-22T14:30:58Z</time>
      </trkpt>
      <trkpt lat="48.68495" lon="-4.07061">
        <ele>4.208</ele>
        <time>2017-04-22T14:31:18Z</time>
      </trkpt>
      <trkpt lat="48.68512" lon="-4.0706">
        <ele>4.442</ele>
        <time>2017-04-22T14:31:38Z</time>
      </trkpt>
      <trkpt lat="48.6854" lon="-4.07081">
        <ele>5.938</ele>
        <time>2017-04-22T14:31:58Z</time>
      </trkpt>
      <trkpt lat="48.68567" lon="-4.07124">
        <ele>7.169</ele>
        <time>2017-04-22T14:32:18Z</time>
      </trkpt>
      <trkpt lat="48.686" lon="-4.07162">
        <ele>7.46</ele>
        <time>2017-04-22T14:32:38Z</time>
      </trkpt>
      <trkpt lat="48.68627" lon="-4.07216">
        <ele>9.871</ele>
        <time>2017-04-22T14:32:58Z</time>
      </trkpt>
      <trkpt lat="48.68654" lon="-4.07269">
        <ele>7.291</ele>
        <time>2017-04-22T14:33:18Z</time>
      </trkpt>
      <trkpt lat="48.68668" lon="-4.07289">
        <ele>4.594</ele>
        <time>2017-04-22T14:33:38Z</time>
      </trkpt>
      <trkpt lat="48.68657" lon="-4.07336">
        <ele>5.881</ele>
        <time>2017-04-22T14:33:58Z</time>
      </trkpt>
      <trkpt lat="48.68656" lon="-4.07364">
        <ele>5.886</ele>
        <time>2017-04-22T14:34:18Z</time>
      </trkpt>
      <trkpt lat="48.68628" lon="-4.0738">
        <ele>9.56</ele>
        <time>2017-04-22T14:34:38Z</time>
      </trkpt>
      <trkpt lat="48.68615" lon="-4.07412">
        <ele>9.626</ele>
        <time>2017-04-22T14:34:58Z</time>
      </trkpt>
      <trkpt lat="48.68614" lon="-4.07466">
        <ele>8.508</ele>
        <time>2017-04-22T14:35:18Z</time>
      </trkpt>
      <trkpt lat="48.68635" lon="-4.07521">
        <ele>7.774</ele>
        <time>2017-04-22T14:35:38Z</time>
      </trkpt>
      <trkpt lat="48.68696" lon="-4.07585">
        <ele>6.01</ele>
        <time>2017-04-22T14:35:58Z</time>
      </trkpt>
      <trkpt lat="48.68746" lon="-4.07604">
        <ele>3.741</ele>
        <time>2017-04-22T14:36:18Z</time>
      </trkpt>
      <trkpt lat="48.68753" lon="-4.07624">
        <ele>5.262</ele>
        <time>2017-04-22T14:36:38Z</time>
      </trkpt>
      <trkpt lat="48.68764" lon="-4.07641">
        <ele>5.623</ele>
        <time>2017-04-22T14:36:58Z</time>
      </trkpt>
      <trkpt lat="48.68766" lon="-4.0766">
        <ele>7.363</ele>
        <time>2017-04-22T14:37:18Z</time>
      </trkpt>
      <trkpt lat="48.68778" lon="-4.07675">
        <ele>7.086</ele>
        <time>2017-04-22T14:37:38Z</time>
      </trkpt>
      <trkpt lat="48.68792" lon="-4.07673">
        <ele>5.623</ele>
        <time>2017-04-22T14:37:58Z</time>
      </trkpt>
      <trkpt lat="48.68832" lon="-4.07787">
        <ele>3.017</ele>
        <time>2017-04-22T14:38:18Z</time>
      </trkpt>
      <trkpt lat="48.68826" lon="-4.07814">
        <ele>3.187</ele>
        <time>2017-04-22T14:38:38Z</time>
      </trkpt>
      <trkpt lat="48.68795" lon="-4.07821">
        <ele>3.315</ele>
        <time>2017-04-22T14:38:58Z</time>
      </trkpt>
      <trkpt lat="48.68736" lon="-4.07809">
        <ele>2.408</ele>
        <time>2017-04-22T14:39:18Z</time>
      </trkpt>
      <trkpt lat="48.68696" lon="-4.07781">
        <ele>6.647</ele>
        <time>2017-04-22T14:39:38Z</time>
      </trkpt>
      <trkpt lat="48.68685" lon="-4.07769">
        <ele>8.293</ele>
        <time>2017-04-22T14:39:58Z</time>
      </trkpt>
      <trkpt lat="48.68678" lon="-4.07785">
        <ele>7.914</ele>
        <time>2017-04-22T14:40:18Z</time>
      </trkpt>
      <trkpt lat="48.68685" lon="-4.07818">
        <ele>5.655</ele>
        <time>2017-04-22T14:40:38Z</time>
      </trkpt>
      <trkpt lat="48.68707" lon="-4.07871">
        <ele>6.416</ele>
        <time>2017-04-22T14:40:58Z</time>
      </trkpt>
      <trkpt lat="48.68739" lon="-4.07925">
        <ele>9.126</ele>
        <time>2017-04-22T14:41:18Z</time>
      </trkpt>
      <trkpt lat="48.68759" lon="-4.07937">
        <ele>9.199</ele>
        <time>2017-04-22T14:41:38Z</time>
      </trkpt>
      <trkpt lat="48.68787" lon="-4.07935">
        <ele>8.756</ele>
        <time>2017-04-22T14:41:58Z</time>
      </trkpt>
      <trkpt lat="48.68798" lon="-4.07889">
        <ele>5.722</ele>
        <time>2017-04-22T14:42:18Z</time>
      </trkpt>
      <trkpt lat="48.68817" lon="-4.07874">
        <ele>5.262</ele>
        <time>2017-04-22T14:42:38Z</time>
      </trkpt>
      <trkpt lat="48.68834" lon="-4.07873">
        <ele>5.508</ele>
        <time>2017-04-22T14:42:58Z</time>
      </trkpt>
      <trkpt lat="48.68856" lon="-4.07852">
        <ele>5.108</ele>
        <time>2017-04-22T14:43:18Z</time>
      </trkpt>
      <trkpt lat="48.68896" lon="-4.07806">
        <ele>5.598</ele>
        <time>2017-04-22T14:43:38Z</time>
      </trkpt>
      <trkpt lat="48.6888" lon="-4.0777">
        <ele>4.474</ele>
        <time>2017-04-22T14:43:58Z</time>
      </trkpt>
      <trkpt lat="48.68881" lon="-4.07745">
        <ele>4.315</ele>
        <time>2017-04-22T14:44:18Z</time>
      </trkpt>
      <trkpt lat="48.68901" lon="-4.07703">
        <ele>2.476</ele>
        <time>2020-12-19T19:33:07Z</time>
      </trkpt>
      <trkpt lat="48.68924" lon="-4.07719">
        <ele>3.717</ele>
        <time>2020-12-19T19:33:27Z</time>
      </trkpt>
      <trkpt lat="48.68963" lon="-4.07716">
        <ele>3.587</ele>
        <time>2020-12-19T19:33:47Z</time>
      </trkpt>
      <trkpt lat="48.69002" lon="-4.07724">
        <ele>1.87</ele>
        <time>2017-04-22T14:46:58Z</time>
      </trkpt>
      <trkpt lat="48.69004" lon="-4.07739">
        <ele>1.847</ele>
        <time>2017-04-22T14:47:18Z</time>
      </trkpt>
      <trkpt lat="48.68981" lon="-4.07764">
        <ele>5.128</ele>
        <time>2017-04-22T14:47:38Z</time>
      </trkpt>
      <trkpt lat="48.68976" lon="-4.07815">
        <ele>6.489</ele>
        <time>2020-12-19T19:35:07Z</time>
      </trkpt>
      <trkpt lat="48.68984" lon="-4.07803">
        <ele>4.917</ele>
        <time>2020-12-19T19:35:27Z</time>
      </trkpt>
      <trkpt lat="48.68995" lon="-4.07856">
        <ele>5.208</ele>
        <time>2020-12-19T19:35:47Z</time>
      </trkpt>
      <trkpt lat="48.69017" lon="-4.07891">
        <ele>4.758</ele>
        <time>2020-12-19T19:36:07Z</time>
      </trkpt>
      <trkpt lat="48.69028" lon="-4.07972">
        <ele>5.024</ele>
        <time>2020-12-19T19:36:27Z</time>
      </trkpt>
      <trkpt lat="48.69068" lon="-4.08128">
        <ele>8.835</ele>
        <time>2017-04-22T14:50:18Z</time>
      </trkpt>
      <trkpt lat="48.69093" lon="-4.08118">
        <ele>7.556</ele>
        <time>2017-04-22T14:50:38Z</time>
      </trkpt>
      <trkpt lat="48.69097" lon="-4.08109">
        <ele>6.827</ele>
        <time>2017-04-22T14:50:58Z</time>
      </trkpt>
      <trkpt lat="48.69135" lon="-4.08108">
        <ele>6.897</ele>
        <time>2017-04-22T14:51:18Z</time>
      </trkpt>
      <trkpt lat="48.69178" lon="-4.08078">
        <ele>2.51</ele>
        <time>2020-12-19T19:38:07Z</time>
      </trkpt>
      <trkpt lat="48.69214" lon="-4.08099">
        <ele>5.787</ele>
        <time>2020-12-19T19:38:27Z</time>
      </trkpt>
      <trkpt lat="48.69254" lon="-4.08105">
        <ele>8.193</ele>
        <time>2020-12-19T19:38:47Z</time>
      </trkpt>
      <trkpt lat="48.69293" lon="-4.0813">
        <ele>6.365</ele>
        <time>2020-12-19T19:39:07Z</time>
      </trkpt>
      <trkpt lat="48.69315" lon="-4.08191">
        <ele>6.221</ele>
        <time>2020-12-19T19:39:27Z</time>
      </trkpt>
      <trkpt lat="48.69318" lon="-4.08244">
        <ele>7.208</ele>
        <time>2020-12-19T19:39:47Z</time>
      </trkpt>
      <trkpt lat="48.69325" lon="-4.08271">
        <ele>7.885</ele>
        <time>2020-12-19T19:40:07Z</time>
      </trkpt>
      <trkpt lat="48.69346" lon="-4.0828">
        <ele>6.231</ele>
        <time>2020-12-19T19:40:27Z</time>
      </trkpt>
      <trkpt lat="48.69357" lon="-4.08313">
        <ele>4.552</ele>
        <time>2020-12-19T19:40:47Z</time>
      </trkpt>
      <trkpt lat="48.69351" lon="-4.08343">
        <ele>4.833</ele>
        <time>2020-12-19T19:41:07Z</time>
      </trkpt>
      <trkpt lat="48.69349" lon="-4.08393">
        <ele>3.284</ele>
        <time>2020-12-19T19:41:27Z</time>
      </trkpt>
      <trkpt lat="48.69302" lon="-4.08365">
        <ele>4.074</ele>
        <time>2020-12-19T19:41:47Z</time>
      </trkpt>
      <trkpt lat="48.69169" lon="-4.08352">
        <ele>4.657</ele>
        <time>2020-12-19T19:42:07Z</time>
      </trkpt>
      <trkpt lat="48.6911" lon="-4.08405">
        <ele>6.024</ele>
        <time>2017-04-22T14:56:38Z</time>
      </trkpt>
      <trkpt lat="48.69078" lon="-4.08458">
        <ele>7.347</ele>
        <time>2017-04-22T14:56:58Z</time>
      </trkpt>
      <trkpt lat="48.69038" lon="-4.08618">
        <ele>9.929</ele>
        <time>2017-04-22T14:57:18Z</time>
      </trkpt>
      <trkpt lat="48.69093" lon="-4.08752">
        <ele>7.821</ele>
        <time>2017-04-22T14:57:38Z</time>
      </trkpt>
      <trkpt lat="48.691" lon="-4.08784">
        <ele>10.308</ele>
        <time>2017-04-22T14:57:58Z</time>
      </trkpt>
      <trkpt lat="48.69118" lon="-4.0878">
        <ele>7.42</ele>
        <time>2017-04-22T14:58:18Z</time>
      </trkpt>
      <trkpt lat="48.69164" lon="-4.08852">
        <ele>8.436</ele>
        <time>2017-04-22T14:58:38Z</time>
      </trkpt>
      <trkpt lat="48.69182" lon="-4.08865">
        <ele>6.697</ele>
        <time>2017-04-22T14:58:58Z</time>
      </trkpt>
      <trkpt lat="48.69205" lon="-4.08925">
        <ele>6.838</ele>
        <time>2017-04-22T14:59:18Z</time>
      </trkpt>
      <trkpt lat="48.69208" lon="-4.08967">
        <ele>8.249</ele>
        <time>2017-04-22T14:59:38Z</time>
      </trkpt>
      <trkpt lat="48.69198" lon="-4.09022">
        <ele>9.619</ele>
        <time>2017-04-22T14:59:58Z</time>
      </trkpt>
      <trkpt lat="48.69199" lon="-4.09067">
        <ele>6.382</ele>
        <time>2017-04-22T15:00:18Z</time>
      </trkpt>
      <trkpt lat="48.69187" lon="-4.09093">
        <ele>7.039</ele>
        <time>2017-04-22T15:00:38Z</time>
      </trkpt>
      <trkpt lat="48.69181" lon="-4.09133">
        <ele>6.398</ele>
        <time>2017-04-22T15:00:58Z</time>
      </trkpt>
      <trkpt lat="48.69184" lon="-4.09192">
        <ele>3.215</ele>
        <time>2017-04-22T15:01:18Z</time>
      </trkpt>
      <trkpt lat="48.6914" lon="-4.09191">
        <ele>7.226</ele>
        <time>2017-04-22T15:01:38Z</time>
      </trkpt>
      <trkpt lat="48.69121" lon="-4.09201">
        <ele>8.008</ele>
        <time>2017-04-22T15:01:58Z</time>
      </trkpt>
      <trkpt lat="48.69084" lon="-4.09253">
        <ele>6.725</ele>
        <time>2017-04-22T15:02:18Z</time>
      </trkpt>
      <trkpt lat="48.69065" lon="-4.09263">
        <ele>7.011</ele>
        <time>2017-04-22T15:02:38Z</time>
      </trkpt>
      <trkpt lat="48.69064" lon="-4.09279">
        <ele>6.392</ele>
        <time>2017-04-22T15:02:58Z</time>
      </trkpt>
      <trkpt lat="48.69021" lon="-4.09287">
        <ele>7.653</ele>
        <time>2017-04-22T15:03:18Z</time>
      </trkpt>
      <trkpt lat="48.68946" lon="-4.0927">
        <ele>7.934</ele>
        <time>2017-04-22T15:03:38Z</time>
      </trkpt>
      <trkpt lat="48.6892" lon="-4.09294">
        <ele>5.994</ele>
        <time>2017-04-22T15:03:58Z</time>
      </trkpt>
      <trkpt lat="48.6889" lon="-4.09316">
        <ele>5.637</ele>
        <time>2017-04-22T15:04:18Z</time>
      </trkpt>
      <trkpt lat="48.68877" lon="-4.09339">
        <ele>5.134</ele>
        <time>2017-04-22T15:06:38Z</time>
      </trkpt>
      <trkpt lat="48.68824" lon="-4.09368">
        <ele>6.363</ele>
        <time>2017-04-22T15:06:58Z</time>
      </trkpt>
      <trkpt lat="48.68786" lon="-4.09411">
        <ele>5.444</ele>
        <time>2017-04-22T15:07:18Z</time>
      </trkpt>
      <trkpt lat="48.68741" lon="-4.09451">
        <ele>3.518</ele>
        <time>2017-04-22T15:07:38Z</time>
      </trkpt>
      <trkpt lat="48.68718" lon="-4.09462">
        <ele>3.808</ele>
        <time>2017-04-22T15:07:58Z</time>
      </trkpt>
      <trkpt lat="48.687" lon="-4.09455">
        <ele>4.542</ele>
        <time>2017-04-22T15:08:18Z</time>
      </trkpt>
      <trkpt lat="48.6867" lon="-4.09463">
        <ele>4.398</ele>
        <time>2017-04-22T15:08:38Z</time>
      </trkpt>
      <trkpt lat="48.68637" lon="-4.09506">
        <ele>5.149</ele>
        <time>2017-04-22T15:08:58Z</time>
      </trkpt>
      <trkpt lat="48.68611" lon="-4.095">
        <ele>6.09</ele>
        <time>2017-04-22T15:09:18Z</time>
      </trkpt>
      <trkpt lat="48.68583" lon="-4.09515">
        <ele>4.521</ele>
        <time>2017-04-22T15:09:38Z</time>
      </trkpt>
      <trkpt lat="48.68591" lon="-4.09545">
        <ele>4.321</ele>
        <time>2017-04-22T15:09:58Z</time>
      </trkpt>
      <trkpt lat="48.68589" lon="-4.09563">
        <ele>4.594</ele>
        <time>2017-04-22T15:11:38Z</time>
      </trkpt>
      <trkpt lat="48.68578" lon="-4.09571">
        <ele>4.521</ele>
        <time>2017-04-22T15:11:58Z</time>
      </trkpt>
      <trkpt lat="48.68586" lon="-4.09593">
        <ele>5.422</ele>
        <time>2017-04-22T15:12:18Z</time>
      </trkpt>
      <trkpt lat="48.68613" lon="-4.09589">
        <ele>6.062</ele>
        <time>2017-04-22T15:12:38Z</time>
      </trkpt>
      <trkpt lat="48.68641" lon="-4.09596">
        <ele>6.508</ele>
        <time>2017-04-22T15:12:58Z</time>
      </trkpt>
      <trkpt lat="48.68647" lon="-4.0961">
        <ele>6.908</ele>
        <time>2017-04-22T15:13:18Z</time>
      </trkpt>
      <trkpt lat="48.68673" lon="-4.0958">
        <ele>5.928</ele>
        <time>2017-04-22T15:13:38Z</time>
      </trkpt>
      <trkpt lat="48.68722" lon="-4.09561">
        <ele>5.464</ele>
        <time>2017-04-22T15:13:58Z</time>
      </trkpt>
      <trkpt lat="48.68748" lon="-4.09536">
        <ele>5.495</ele>
        <time>2017-04-22T15:14:18Z</time>
      </trkpt>
      <trkpt lat="48.68774" lon="-4.09533">
        <ele>6.266</ele>
        <time>2017-04-22T15:14:38Z</time>
      </trkpt>
      <trkpt lat="48.68818" lon="-4.09506">
        <ele>7.617</ele>
        <time>2017-04-22T15:14:58Z</time>
      </trkpt>
      <trkpt lat="48.68842" lon="-4.0952">
        <ele>9.577</ele>
        <time>2017-04-22T15:15:18Z</time>
      </trkpt>
      <trkpt lat="48.68858" lon="-4.09585">
        <ele>10.12</ele>
        <time>2017-04-22T15:15:38Z</time>
      </trkpt>
      <trkpt lat="48.68935" lon="-4.09561">
        <ele>8.737</ele>
        <time>2017-04-22T15:15:58Z</time>
      </trkpt>
      <trkpt lat="48.69004" lon="-4.09584">
        <ele>7.023</ele>
        <time>2017-04-22T15:16:18Z</time>
      </trkpt>
      <trkpt lat="48.69029" lon="-4.09604">
        <ele>7.883</ele>
        <time>2017-04-22T15:16:38Z</time>
      </trkpt>
      <trkpt lat="48.69089" lon="-4.09563">
        <ele>8.811</ele>
        <time>2017-04-22T15:16:58Z</time>
      </trkpt>
      <trkpt lat="48.69088" lon="-4.09535">
        <ele>7.108</ele>
        <time>2017-04-22T15:17:18Z</time>
      </trkpt>
      <trkpt lat="48.69099" lon="-4.09525">
        <ele>8.088</ele>
        <time>2017-04-22T15:17:38Z</time>
      </trkpt>
      <trkpt lat="48.6916" lon="-4.09512">
        <ele>7.754</ele>
        <time>2017-04-22T15:17:58Z</time>
      </trkpt>
      <trkpt lat="48.69176" lon="-4.09502">
        <ele>5.715</ele>
        <time>2017-04-22T15:18:18Z</time>
      </trkpt>
      <trkpt lat="48.692" lon="-4.09499">
        <ele>5.916</ele>
        <time>2017-04-22T15:18:38Z</time>
      </trkpt>
      <trkpt lat="48.69245" lon="-4.09511">
        <ele>7.177</ele>
        <time>2017-04-22T15:18:58Z</time>
      </trkpt>
      <trkpt lat="48.6927" lon="-4.09539">
        <ele>10.067</ele>
        <time>2017-04-22T15:19:18Z</time>
      </trkpt>
      <trkpt lat="48.693" lon="-4.09557">
        <ele>8.99</ele>
        <time>2017-04-22T15:19:38Z</time>
      </trkpt>
      <trkpt lat="48.69317" lon="-4.09579">
        <ele>8.957</ele>
        <time>2017-04-22T15:19:58Z</time>
      </trkpt>
      <trkpt lat="48.69341" lon="-4.09582">
        <ele>6.232</ele>
        <time>2017-04-22T15:20:18Z</time>
      </trkpt>
      <trkpt lat="48.69346" lon="-4.0961">
        <ele>7.592</ele>
        <time>2017-04-22T15:20:38Z</time>
      </trkpt>
      <trkpt lat="48.69344" lon="-4.09643">
        <ele>8.911</ele>
        <time>2017-04-22T15:20:58Z</time>
      </trkpt>
      <trkpt lat="48.69356" lon="-4.09653">
        <ele>7.708</ele>
        <time>2017-04-22T15:21:18Z</time>
      </trkpt>
      <trkpt lat="48.69355" lon="-4.097">
        <ele>8.479</ele>
        <time>2017-04-22T15:21:38Z</time>
      </trkpt>
      <trkpt lat="48.69378" lon="-4.09734">
        <ele>5.615</ele>
        <time>2017-04-22T15:21:58Z</time>
      </trkpt>
      <trkpt lat="48.69374" lon="-4.09763">
        <ele>9.146</ele>
        <time>2017-04-22T15:22:18Z</time>
      </trkpt>
      <trkpt lat="48.69396" lon="-4.09793">
        <ele>6.537</ele>
        <time>2017-04-22T15:22:38Z</time>
      </trkpt>
      <trkpt lat="48.69419" lon="-4.09871">
        <ele>6.938</ele>
        <time>2017-04-22T15:22:58Z</time>
      </trkpt>
      <trkpt lat="48.69452" lon="-4.09888">
        <ele>6.968</ele>
        <time>2017-04-22T15:23:18Z</time>
      </trkpt>
      <trkpt lat="48.6948" lon="-4.09891">
        <ele>6.821</ele>
        <time>2017-04-22T15:23:38Z</time>
      </trkpt>
      <trkpt lat="48.69519" lon="-4.09891">
        <ele>4.158</ele>
        <time>2017-04-22T15:23:58Z</time>
      </trkpt>
      <trkpt lat="48.6953" lon="-4.09902">
        <ele>4.379</ele>
        <time>2017-04-22T15:24:18Z</time>
      </trkpt>
      <trkpt lat="48.69548" lon="-4.09909">
        <ele>3.905</ele>
        <time>2017-04-22T15:24:38Z</time>
      </trkpt>
      <trkpt lat="48.69564" lon="-4.09929">
        <ele>3.825</ele>
        <time>2017-04-22T15:24:58Z</time>
      </trkpt>
      <trkpt lat="48.69567" lon="-4.09958">
        <ele>3.908</ele>
        <time>2017-04-22T15:25:18Z</time>
      </trkpt>
      <trkpt lat="48.69553" lon="-4.0997">
        <ele>4.183</ele>
        <time>2017-04-22T15:25:38Z</time>
      </trkpt>
      <trkpt lat="48.69514" lon="-4.09973">
        <ele>3.929</ele>
        <time>2017-04-22T15:25:58Z</time>
      </trkpt>
      <trkpt lat="48.69488" lon="-4.09951">
        <ele>5.91</ele>
        <time>2017-04-22T15:26:18Z</time>
      </trkpt>
      <trkpt lat="48.69466" lon="-4.0996">
        <ele>4.071</ele>
        <time>2017-04-22T15:26:38Z</time>
      </trkpt>
      <trkpt lat="48.69426" lon="-4.09943">
        <ele>2.292</ele>
        <time>2017-04-22T15:26:58Z</time>
      </trkpt>
      <trkpt lat="48.69408" lon="-4.09927">
        <ele>2.282</ele>
        <time>2017-04-22T15:27:18Z</time>
      </trkpt>
      <trkpt lat="48.6936" lon="-4.09909">
        <ele>3.135</ele>
        <time>2017-04-22T15:27:38Z</time>
      </trkpt>
      <trkpt lat="48.69343" lon="-4.09884">
        <ele>7.332</ele>
        <time>2017-04-22T15:27:58Z</time>
      </trkpt>
      <trkpt lat="48.69315" lon="-4.09856">
        <ele>11.421</ele>
        <time>2017-04-22T15:28:18Z</time>
      </trkpt>
      <trkpt lat="48.69321" lon="-4.09896">
        <ele>7.341</ele>
        <time>2017-04-22T15:28:38Z</time>
      </trkpt>
      <trkpt lat="48.69289" lon="-4.09954">
        <ele>7.005</ele>
        <time>2017-04-22T15:28:58Z</time>
      </trkpt>
      <trkpt lat="48.69271" lon="-4.1003">
        <ele>7.808</ele>
        <time>2017-04-22T15:29:18Z</time>
      </trkpt>
      <trkpt lat="48.69241" lon="-4.10043">
        <ele>10.538</ele>
        <time>2017-04-22T15:29:38Z</time>
      </trkpt>
      <trkpt lat="48.69269" lon="-4.10051">
        <ele>8.854</ele>
        <time>2017-04-22T15:29:58Z</time>
      </trkpt>
      <trkpt lat="48.69278" lon="-4.10084">
        <ele>11.045</ele>
        <time>2017-04-22T15:30:18Z</time>
      </trkpt>
      <trkpt lat="48.69305" lon="-4.10114">
        <ele>10.336</ele>
        <time>2017-04-22T15:30:38Z</time>
      </trkpt>
      <trkpt lat="48.69345" lon="-4.10128">
        <ele>8.167</ele>
        <time>2017-04-22T15:30:58Z</time>
      </trkpt>
      <trkpt lat="48.69365" lon="-4.10157">
        <ele>7.037</ele>
        <time>2017-04-22T15:31:18Z</time>
      </trkpt>
      <trkpt lat="48.69404" lon="-4.10261">
        <ele>3.83</ele>
        <time>2017-04-22T15:31:38Z</time>
      </trkpt>
      <trkpt lat="48.69419" lon="-4.104">
        <ele>5.887</ele>
        <time>2017-04-22T15:31:58Z</time>
      </trkpt>
      <trkpt lat="48.69412" lon="-4.1042">
        <ele>6.281</ele>
        <time>2017-04-22T15:32:18Z</time>
      </trkpt>
      <trkpt lat="48.6937" lon="-4.10458">
        <ele>7.461</ele>
        <time>2017-04-22T15:32:38Z</time>
      </trkpt>
      <trkpt lat="48.69336" lon="-4.1051">
        <ele>6.317</ele>
        <time>2017-04-22T15:32:58Z</time>
      </trkpt>
      <trkpt lat="48.69291" lon="-4.10614">
        <ele>8.508</ele>
        <time>2017-04-22T15:33:18Z</time>
      </trkpt>
      <trkpt lat="48.69296" lon="-4.10637">
        <ele>8.474</ele>
        <time>2017-04-22T15:33:38Z</time>
      </trkpt>
      <trkpt lat="48.69322" lon="-4.10686">
        <ele>9.78</ele>
        <time>2017-04-22T15:33:58Z</time>
      </trkpt>
      <trkpt lat="48.69381" lon="-4.10708">
        <ele>7.531</ele>
        <time>2017-04-22T15:34:18Z</time>
      </trkpt>
      <trkpt lat="48.69453" lon="-4.1071">
        <ele>3.462</ele>
        <time>2017-04-22T15:34:38Z</time>
      </trkpt>
      <trkpt lat="48.69486" lon="-4.108">
        <ele>3.933</ele>
        <time>2017-04-22T15:34:58Z</time>
      </trkpt>
      <trkpt lat="48.69476" lon="-4.10902">
        <ele>5.913</ele>
        <time>2017-04-22T15:35:18Z</time>
      </trkpt>
      <trkpt lat="48.69483" lon="-4.1096">
        <ele>5.726</ele>
        <time>2017-04-22T15:35:38Z</time>
      </trkpt>
      <trkpt lat="48.69487" lon="-4.11003">
        <ele>6.333</ele>
        <time>2017-04-22T15:35:58Z</time>
      </trkpt>
      <trkpt lat="48.69512" lon="-4.11075">
        <ele>4.084</ele>
        <time>2017-04-22T15:36:18Z</time>
      </trkpt>
      <trkpt lat="48.69516" lon="-4.11139">
        <ele>5.807</ele>
        <time>2017-04-22T15:36:38Z</time>
      </trkpt>
      <trkpt lat="48.69505" lon="-4.11233">
        <ele>4.117</ele>
        <time>2017-04-22T15:36:58Z</time>
      </trkpt>
      <trkpt lat="48.69488" lon="-4.11308">
        <ele>5.208</ele>
        <time>2017-04-22T15:37:18Z</time>
      </trkpt>
      <trkpt lat="48.69489" lon="-4.11367">
        <ele>3.694</ele>
        <time>2017-04-22T15:37:38Z</time>
      </trkpt>
      <trkpt lat="48.69493" lon="-4.11428">
        <ele>2.99</ele>
        <time>2017-04-22T15:37:58Z</time>
      </trkpt>
      <trkpt lat="48.69481" lon="-4.11495">
        <ele>4.651</ele>
        <time>2017-04-22T15:38:18Z</time>
      </trkpt>
      <trkpt lat="48.69463" lon="-4.11549">
        <ele>3.792</ele>
        <time>2017-04-22T15:38:38Z</time>
      </trkpt>
      <trkpt lat="48.69417" lon="-4.11559">
        <ele>3.973</ele>
        <time>2017-04-22T15:38:58Z</time>
      </trkpt>
      <trkpt lat="48.69347" lon="-4.11655">
        <ele>5.723</ele>
        <time>2017-04-22T15:39:18Z</time>
      </trkpt>
      <trkpt lat="48.69309" lon="-4.11833">
        <ele>2.656</ele>
        <time>2017-04-22T15:39:38Z</time>
      </trkpt>
      <trkpt lat="48.69314" lon="-4.11849">
        <ele>1.383</ele>
        <time>2017-04-22T15:39:58Z</time>
      </trkpt>
      <trkpt lat="48.69306" lon="-4.11996">
        <ele>4.919</ele>
        <time>2017-04-22T15:40:18Z</time>
      </trkpt>
      <trkpt lat="48.69312" lon="-4.12132">
        <ele>4.809</ele>
        <time>2017-04-22T15:40:38Z</time>
      </trkpt>
      <trkpt lat="48.69308" lon="-4.12246">
        <ele>6.819</ele>
        <time>2017-04-22T15:40:58Z</time>
      </trkpt>
      <trkpt lat="48.6931" lon="-4.12299">
        <ele>6.808</ele>
        <time>2017-04-22T15:41:18Z</time>
      </trkpt>
      <trkpt lat="48.69322" lon="-4.12308">
        <ele>6.437</ele>
        <time>2017-04-22T15:41:38Z</time>
      </trkpt>
      <trkpt lat="48.69358" lon="-4.12385">
        <ele>4.113</ele>
        <time>2017-04-22T15:41:58Z</time>
      </trkpt>
      <trkpt lat="48.69381" lon="-4.12411">
        <ele>4.184</ele>
        <time>2017-04-22T15:42:18Z</time>
      </trkpt>
      <trkpt lat="48.69395" lon="-4.12459">
        <ele>6.175</ele>
        <time>2017-04-22T15:42:38Z</time>
      </trkpt>
      <trkpt lat="48.6939" lon="-4.125">
        <ele>5.966</ele>
        <time>2017-04-22T15:42:58Z</time>
      </trkpt>
      <trkpt lat="48.69363" lon="-4.1261">
        <ele>4.846</ele>
        <time>2017-04-22T15:43:18Z</time>
      </trkpt>
      <trkpt lat="48.6936" lon="-4.12689">
        <ele>6.959</ele>
        <time>2017-04-22T15:43:38Z</time>
      </trkpt>
      <trkpt lat="48.69401" lon="-4.12761">
        <ele>5.456</ele>
        <time>2017-04-22T15:43:58Z</time>
      </trkpt>
      <trkpt lat="48.69414" lon="-4.12823">
        <ele>7.438</ele>
        <time>2017-04-22T15:44:18Z</time>
      </trkpt>
      <trkpt lat="48.69442" lon="-4.12869">
        <ele>8.07</ele>
        <time>2017-04-22T15:44:38Z</time>
      </trkpt>
      <trkpt lat="48.69459" lon="-4.12908">
        <ele>7.817</ele>
        <time>2017-04-22T15:44:58Z</time>
      </trkpt>
      <trkpt lat="48.69485" lon="-4.12926">
        <ele>7.708</ele>
        <time>2017-04-22T15:45:18Z</time>
      </trkpt>
      <trkpt lat="48.695" lon="-4.12949">
        <ele>8.019</ele>
        <time>2017-04-22T15:45:38Z</time>
      </trkpt>
      <trkpt lat="48.69528" lon="-4.12959">
        <ele>5.525</ele>
        <time>2017-04-22T15:45:58Z</time>
      </trkpt>
      <trkpt lat="48.69547" lon="-4.12977">
        <ele>4.196</ele>
        <time>2017-04-22T15:46:18Z</time>
      </trkpt>
      <trkpt lat="48.69651" lon="-4.12963">
        <ele>3.987</ele>
        <time>2017-04-22T15:46:38Z</time>
      </trkpt>
      <trkpt lat="48.69648" lon="-4.12988">
        <ele>3.838</ele>
        <time>2017-04-22T15:46:58Z</time>
      </trkpt>
      <trkpt lat="48.69636" lon="-4.13021">
        <ele>4.368</ele>
        <time>2017-04-22T15:47:18Z</time>
      </trkpt>
      <trkpt lat="48.6964" lon="-4.13069">
        <ele>2.931</ele>
        <time>2017-04-22T15:47:38Z</time>
      </trkpt>
      <trkpt lat="48.69605" lon="-4.13101">
        <ele>8.488</ele>
        <time>2017-04-22T15:47:58Z</time>
      </trkpt>
      <trkpt lat="48.69585" lon="-4.13162">
        <ele>8.189</ele>
        <time>2017-04-22T15:48:18Z</time>
      </trkpt>
      <trkpt lat="48.69565" lon="-4.13177">
        <ele>7.606</ele>
        <time>2017-04-22T15:48:38Z</time>
      </trkpt>
      <trkpt lat="48.69545" lon="-4.13176">
        <ele>7.826</ele>
        <time>2017-04-22T15:48:58Z</time>
      </trkpt>
      <trkpt lat="48.69543" lon="-4.13192">
        <ele>7.508</ele>
        <time>2017-04-22T15:49:18Z</time>
      </trkpt>
      <trkpt lat="48.69477" lon="-4.133">
        <ele>5.474</ele>
        <time>2017-04-22T15:49:38Z</time>
      </trkpt>
      <trkpt lat="48.69437" lon="-4.13402">
        <ele>6.45</ele>
        <time>2017-04-22T15:49:58Z</time>
      </trkpt>
      <trkpt lat="48.69402" lon="-4.13443">
        <ele>7.121</ele>
        <time>2017-04-22T15:50:18Z</time>
      </trkpt>
      <trkpt lat="48.69388" lon="-4.13471">
        <ele>7.132</ele>
        <time>2017-04-22T15:50:38Z</time>
      </trkpt>
      <trkpt lat="48.69351" lon="-4.13523">
        <ele>10.193</ele>
        <time>2017-04-22T15:50:58Z</time>
      </trkpt>
      <trkpt lat="48.69319" lon="-4.13583">
        <ele>10.663</ele>
        <time>2017-04-22T15:51:18Z</time>
      </trkpt>
      <trkpt lat="48.69272" lon="-4.13717">
        <ele>9.286</ele>
        <time>2017-04-22T15:51:38Z</time>
      </trkpt>
      <trkpt lat="48.69268" lon="-4.13767">
        <ele>11.753</ele>
        <time>2017-04-22T15:51:58Z</time>
      </trkpt>
      <trkpt lat="48.6924" lon="-4.13921">
        <ele>3.786</ele>
        <time>2017-04-22T15:52:18Z</time>
      </trkpt>
      <trkpt lat="48.69236" lon="-4.14">
        <ele>2.06</ele>
        <time>2017-04-22T15:52:38Z</time>
      </trkpt>
      <trkpt lat="48.69227" lon="-4.14062">
        <ele>4.926</ele>
        <time>2017-04-22T15:53:38Z</time>
      </trkpt>
      <trkpt lat="48.69217" lon="-4.14215">
        <ele>7.408</ele>
        <time>2017-04-22T15:53:58Z</time>
      </trkpt>
      <trkpt lat="48.69211" lon="-4.14245">
        <ele>8.554</ele>
        <time>2017-04-22T15:54:18Z</time>
      </trkpt>
      <trkpt lat="48.6922" lon="-4.14423">
        <ele>8.44</ele>
        <time>2017-04-22T15:55:38Z</time>
      </trkpt>
      <trkpt lat="48.69216" lon="-4.14498">
        <ele>11.121</ele>
        <time>2017-04-22T15:55:58Z</time>
      </trkpt>
      <trkpt lat="48.69229" lon="-4.14661">
        <ele>6.612</ele>
        <time>2017-04-22T15:56:18Z</time>
      </trkpt>
      <trkpt lat="48.69217" lon="-4.14713">
        <ele>8.553</ele>
        <time>2017-04-22T15:56:38Z</time>
      </trkpt>
      <trkpt lat="48.69226" lon="-4.1475">
        <ele>7.493</ele>
        <time>2017-04-22T15:56:58Z</time>
      </trkpt>
      <trkpt lat="48.69228" lon="-4.14879">
        <ele>6.146</ele>
        <time>2017-04-22T15:57:18Z</time>
      </trkpt>
      <trkpt lat="48.6922" lon="-4.14964">
        <ele>8.283</ele>
        <time>2017-04-22T15:57:38Z</time>
      </trkpt>
      <trkpt lat="48.69155" lon="-4.15168">
        <ele>6.955</ele>
        <time>2017-04-22T15:57:58Z</time>
      </trkpt>
      <trkpt lat="48.69148" lon="-4.15238">
        <ele>6.207</ele>
        <time>2017-04-22T15:58:18Z</time>
      </trkpt>
      <trkpt lat="48.69129" lon="-4.15299">
        <ele>6.817</ele>
        <time>2017-04-22T15:58:38Z</time>
      </trkpt>
      <trkpt lat="48.69123" lon="-4.1534">
        <ele>9.008</ele>
        <time>2017-04-22T15:58:58Z</time>
      </trkpt>
      <trkpt lat="48.69105" lon="-4.15367">
        <ele>11.481</ele>
        <time>2017-04-22T15:59:18Z</time>
      </trkpt>
      <trkpt lat="48.69103" lon="-4.15403">
        <ele>14.267</ele>
        <time>2017-04-22T15:59:38Z</time>
      </trkpt>
      <trkpt lat="48.69051" lon="-4.1548">
        <ele>14.148</ele>
        <time>2017-04-22T15:59:58Z</time>
      </trkpt>
      <trkpt lat="48.68972" lon="-4.15502">
        <ele>11.189</ele>
        <time>2017-04-22T16:00:18Z</time>
      </trkpt>
      <trkpt lat="48.68965" lon="-4.1556">
        <ele>11.93</ele>
        <time>2017-04-22T16:00:38Z</time>
      </trkpt>
      <trkpt lat="48.68901" lon="-4.15789">
        <ele>10.05</ele>
        <time>2017-04-22T16:00:58Z</time>
      </trkpt>
      <trkpt lat="48.68886" lon="-4.15938">
        <ele>7.713</ele>
        <time>2020-12-19T20:42:07Z</time>
      </trkpt>
      <trkpt lat="48.68934" lon="-4.15951">
        <ele>7.84</ele>
        <time>2020-12-19T20:42:27Z</time>
      </trkpt>
      <trkpt lat="48.68947" lon="-4.15969">
        <ele>6.678</ele>
        <time>2020-12-19T20:42:47Z</time>
      </trkpt>
      <trkpt lat="48.68965" lon="-4.16031">
        <ele>5.233</ele>
        <time>2020-12-19T20:43:07Z</time>
      </trkpt>
      <trkpt lat="48.68993" lon="-4.16087">
        <ele>6.326</ele>
        <time>2020-12-19T20:43:27Z</time>
      </trkpt>
      <trkpt lat="48.69004" lon="-4.16087">
        <ele>4.908</ele>
        <time>2020-12-19T20:43:47Z</time>
      </trkpt>
      <trkpt lat="48.69033" lon="-4.1612">
        <ele>4.373</ele>
        <time>2020-12-19T20:44:07Z</time>
      </trkpt>
      <trkpt lat="48.69071" lon="-4.16112">
        <ele>4.079</ele>
        <time>2020-12-19T20:44:27Z</time>
      </trkpt>
      <trkpt lat="48.69089" lon="-4.16122">
        <ele>4.15</ele>
        <time>2020-12-19T20:44:47Z</time>
      </trkpt>
      <trkpt lat="48.69089" lon="-4.16153">
        <ele>4.651</ele>
        <time>2020-12-19T20:45:07Z</time>
      </trkpt>
      <trkpt lat="48.69063" lon="-4.16175">
        <ele>4.722</ele>
        <time>2020-12-19T20:45:27Z</time>
      </trkpt>
      <trkpt lat="48.69005" lon="-4.16132">
        <ele>6.032</ele>
        <time>2020-12-19T20:45:47Z</time>
      </trkpt>
      <trkpt lat="48.6896" lon="-4.16169">
        <ele>8.775</ele>
        <time>2020-12-19T20:46:07Z</time>
      </trkpt>
      <trkpt lat="48.68929" lon="-4.1628">
        <ele>11.052</ele>
        <time>2017-04-22T16:03:38Z</time>
      </trkpt>
      <trkpt lat="48.68897" lon="-4.16357">
        <ele>7.766</ele>
        <time>2017-04-22T16:03:58Z</time>
      </trkpt>
      <trkpt lat="48.68872" lon="-4.1643">
        <ele>8.629</ele>
        <time>2017-04-22T16:04:18Z</time>
      </trkpt>
      <trkpt lat="48.68833" lon="-4.16458">
        <ele>9.021</ele>
        <time>2017-04-22T16:04:38Z</time>
      </trkpt>
      <trkpt lat="48.68784" lon="-4.1665">
        <ele>5.908</ele>
        <time>2017-04-22T16:04:58Z</time>
      </trkpt>
      <trkpt lat="48.68771" lon="-4.16659">
        <ele>6.262</ele>
        <time>2017-04-22T16:05:18Z</time>
      </trkpt>
      <trkpt lat="48.68751" lon="-4.16776">
        <ele>7.068</ele>
        <time>2017-04-22T16:05:38Z</time>
      </trkpt>
      <trkpt lat="48.68725" lon="-4.16849">
        <ele>7.079</ele>
        <time>2017-04-22T16:05:58Z</time>
      </trkpt>
      <trkpt lat="48.68692" lon="-4.16914">
        <ele>5.17</ele>
        <time>2017-04-22T16:06:18Z</time>
      </trkpt>
      <trkpt lat="48.68671" lon="-4.16933">
        <ele>4.931</ele>
        <time>2017-04-22T16:06:38Z</time>
      </trkpt>
      <trkpt lat="48.68658" lon="-4.16985">
        <ele>3.231</ele>
        <time>2017-04-22T16:06:58Z</time>
      </trkpt>
      <trkpt lat="48.68629" lon="-4.17051">
        <ele>2.974</ele>
        <time>2017-04-22T16:07:18Z</time>
      </trkpt>
      <trkpt lat="48.686" lon="-4.171">
        <ele>3.631</ele>
        <time>2017-04-22T16:07:38Z</time>
      </trkpt>
      <trkpt lat="48.68585" lon="-4.17151">
        <ele>3.449</ele>
        <time>2017-04-22T16:07:58Z</time>
      </trkpt>
      <trkpt lat="48.68563" lon="-4.1727">
        <ele>3.702</ele>
        <time>2017-04-22T16:08:18Z</time>
      </trkpt>
      <trkpt lat="48.68558" lon="-4.17307">
        <ele>4.022</ele>
        <time>2020-12-19T20:51:27Z</time>
      </trkpt>
      <trkpt lat="48.68575" lon="-4.17383">
        <ele>5.608</ele>
        <time>2020-12-19T20:51:47Z</time>
      </trkpt>
      <trkpt lat="48.686" lon="-4.17406">
        <ele>6.44</ele>
        <time>2020-12-19T20:52:07Z</time>
      </trkpt>
      <trkpt lat="48.68627" lon="-4.17399">
        <ele>5.486</ele>
        <time>2020-12-19T20:52:27Z</time>
      </trkpt>
      <trkpt lat="48.68633" lon="-4.1744">
        <ele>7.897</ele>
        <time>2020-12-19T20:52:47Z</time>
      </trkpt>
      <trkpt lat="48.68657" lon="-4.1746">
        <ele>8.148</ele>
        <time>2020-12-19T20:53:07Z</time>
      </trkpt>
      <trkpt lat="48.68679" lon="-4.17491">
        <ele>6.549</ele>
        <time>2020-12-19T20:53:27Z</time>
      </trkpt>
      <trkpt lat="48.68682" lon="-4.1756">
        <ele>4.839</ele>
        <time>2020-12-19T20:53:47Z</time>
      </trkpt>
      <trkpt lat="48.68653" lon="-4.17643">
        <ele>6.352</ele>
        <time>2020-12-19T20:54:07Z</time>
      </trkpt>
      <trkpt lat="48.68614" lon="-4.17686">
        <ele>6.339</ele>
        <time>2020-12-19T20:54:27Z</time>
      </trkpt>
      <trkpt lat="48.68588" lon="-4.17689">
        <ele>6.663</ele>
        <time>2020-12-19T20:54:47Z</time>
      </trkpt>
      <trkpt lat="48.68562" lon="-4.17673">
        <ele>9.344</ele>
        <time>2020-12-19T20:55:07Z</time>
      </trkpt>
      <trkpt lat="48.68534" lon="-4.17702">
        <ele>8.718</ele>
        <time>2017-04-22T16:12:18Z</time>
      </trkpt>
      <trkpt lat="48.68505" lon="-4.17752">
        <ele>5.808</ele>
        <time>2017-04-22T16:12:38Z</time>
      </trkpt>
      <trkpt lat="48.6849" lon="-4.17879">
        <ele>6.782</ele>
        <time>2017-04-22T16:12:58Z</time>
      </trkpt>
      <trkpt lat="48.68478" lon="-4.1791">
        <ele>8.248</ele>
        <time>2017-04-22T16:13:18Z</time>
      </trkpt>
      <trkpt lat="48.68427" lon="-4.17986">
        <ele>9.649</ele>
        <time>2017-04-22T16:13:38Z</time>
      </trkpt>
      <trkpt lat="48.68374" lon="-4.18044">
        <ele>11.38</ele>
        <time>2017-04-22T16:13:58Z</time>
      </trkpt>
      <trkpt lat="48.68335" lon="-4.1805">
        <ele>13.091</ele>
        <time>2017-04-22T16:14:18Z</time>
      </trkpt>
      <trkpt lat="48.68318" lon="-4.18082">
        <ele>13.581</ele>
        <time>2017-04-22T16:14:38Z</time>
      </trkpt>
      <trkpt lat="48.6839" lon="-4.18111">
        <ele>9.984</ele>
        <time>2017-04-22T16:14:58Z</time>
      </trkpt>
      <trkpt lat="48.68402" lon="-4.1813">
        <ele>8.341</ele>
        <time>2017-04-22T16:15:18Z</time>
      </trkpt>
      <trkpt lat="48.68409" lon="-4.18168">
        <ele>8.533</ele>
        <time>2017-04-22T16:15:58Z</time>
      </trkpt>
      <trkpt lat="48.68413" lon="-4.18195">
        <ele>7.423</ele>
        <time>2017-04-22T16:16:18Z</time>
      </trkpt>
      <trkpt lat="48.68408" lon="-4.18219">
        <ele>7.115</ele>
        <time>2017-04-22T16:16:38Z</time>
      </trkpt>
      <trkpt lat="48.68413" lon="-4.18241">
        <ele>6.208</ele>
        <time>2017-04-22T16:16:58Z</time>
      </trkpt>
      <trkpt lat="48.68436" lon="-4.18287">
        <ele>6.239</ele>
        <time>2017-04-22T16:17:18Z</time>
      </trkpt>
      <trkpt lat="48.68448" lon="-4.18293">
        <ele>5.815</ele>
        <time>2017-04-22T16:17:38Z</time>
      </trkpt>
      <trkpt lat="48.68469" lon="-4.18289">
        <ele>4.646</ele>
        <time>2017-04-22T16:17:58Z</time>
      </trkpt>
      <trkpt lat="48.68489" lon="-4.18299">
        <ele>4.187</ele>
        <time>2017-04-22T16:18:38Z</time>
      </trkpt>
      <trkpt lat="48.68498" lon="-4.18312">
        <ele>4.398</ele>
        <time>2017-04-22T16:18:58Z</time>
      </trkpt>
      <trkpt lat="48.68534" lon="-4.18303">
        <ele>4.138</ele>
        <time>2017-04-22T16:19:18Z</time>
      </trkpt>
      <trkpt lat="48.6855" lon="-4.18292">
        <ele>4.361</ele>
        <time>2017-04-22T16:19:38Z</time>
      </trkpt>
      <trkpt lat="48.68573" lon="-4.18297">
        <ele>5.548</ele>
        <time>2017-04-22T16:19:58Z</time>
      </trkpt>
      <trkpt lat="48.68608" lon="-4.18305">
        <ele>6.045</ele>
        <time>2020-12-19T21:02:47Z</time>
      </trkpt>
      <trkpt lat="48.68635" lon="-4.183">
        <ele>4.247</ele>
        <time>2020-12-19T21:03:07Z</time>
      </trkpt>
      <trkpt lat="48.68672" lon="-4.1832">
        <ele>0.011</ele>
        <time>2020-12-19T21:03:27Z</time>
      </trkpt>
      <trkpt lat="48.68704" lon="-4.18331">
        <ele>0.008</ele>
        <time>2020-12-19T21:03:47Z</time>
      </trkpt>
      <trkpt lat="48.68712" lon="-4.18361">
        <ele>0.08</ele>
        <time>2020-12-19T21:04:07Z</time>
      </trkpt>
      <trkpt lat="48.68696" lon="-4.18412">
        <ele>4.716</ele>
        <time>2020-12-19T21:04:27Z</time>
      </trkpt>
      <trkpt lat="48.68675" lon="-4.18441">
        <ele>4.827</ele>
        <time>2020-12-19T21:04:47Z</time>
      </trkpt>
      <trkpt lat="48.68652" lon="-4.18463">
        <ele>4.958</ele>
        <time>2020-12-19T21:05:07Z</time>
      </trkpt>
      <trkpt lat="48.68634" lon="-4.18452">
        <ele>5.929</ele>
        <time>2020-12-19T21:05:27Z</time>
      </trkpt>
      <trkpt lat="48.68622" lon="-4.18548">
        <ele>4.239</ele>
        <time>2017-04-22T16:21:58Z</time>
      </trkpt>
      <trkpt lat="48.68624" lon="-4.18593">
        <ele>5.562</ele>
        <time>2017-04-22T16:22:18Z</time>
      </trkpt>
      <trkpt lat="48.68607" lon="-4.18688">
        <ele>5.769</ele>
        <time>2017-04-22T16:22:38Z</time>
      </trkpt>
      <trkpt lat="48.68593" lon="-4.18713">
        <ele>6.531</ele>
        <time>2017-04-22T16:22:58Z</time>
      </trkpt>
      <trkpt lat="48.68587" lon="-4.18751">
        <ele>5.861</ele>
        <time>2017-04-22T16:23:18Z</time>
      </trkpt>
      <trkpt lat="48.68536" lon="-4.18778">
        <ele>7.407</ele>
        <time>2017-04-22T16:23:38Z</time>
      </trkpt>
      <trkpt lat="48.68485" lon="-4.18829">
        <ele>6.408</ele>
        <time>2017-04-22T16:23:58Z</time>
      </trkpt>
      <trkpt lat="48.68432" lon="-4.18843">
        <ele>7.159</ele>
        <time>2017-04-22T16:24:18Z</time>
      </trkpt>
      <trkpt lat="48.68352" lon="-4.18927">
        <ele>5.655</ele>
        <time>2017-04-22T16:24:38Z</time>
      </trkpt>
      <trkpt lat="48.6833" lon="-4.1894">
        <ele>5.236</ele>
        <time>2017-04-22T16:24:58Z</time>
      </trkpt>
      <trkpt lat="48.683" lon="-4.18942">
        <ele>5.437</ele>
        <time>2017-04-22T16:25:18Z</time>
      </trkpt>
      <trkpt lat="48.68266" lon="-4.18962">
        <ele>5.018</ele>
        <time>2017-04-22T16:25:38Z</time>
      </trkpt>
      <trkpt lat="48.68254" lon="-4.18961">
        <ele>5.368</ele>
        <time>2017-04-22T16:25:58Z</time>
      </trkpt>
      <trkpt lat="48.68238" lon="-4.18978">
        <ele>5.381</ele>
        <time>2017-04-22T16:26:18Z</time>
      </trkpt>
      <trkpt lat="48.68224" lon="-4.19011">
        <ele>6.288</ele>
        <time>2017-04-22T16:26:38Z</time>
      </trkpt>
      <trkpt lat="48.68227" lon="-4.19033">
        <ele>6.325</ele>
        <time>2017-04-22T16:27:58Z</time>
      </trkpt>
      <trkpt lat="48.68245" lon="-4.19061">
        <ele>4.526</ele>
        <time>2017-04-22T16:28:58Z</time>
      </trkpt>
      <trkpt lat="48.6825" lon="-4.19097">
        <ele>5.508</ele>
        <time>2017-04-22T16:29:18Z</time>
      </trkpt>
      <trkpt lat="48.68276" lon="-4.19116">
        <ele>4.508</ele>
        <time>2017-04-22T16:29:38Z</time>
      </trkpt>
      <trkpt lat="48.68304" lon="-4.19163">
        <ele>4.088</ele>
        <time>2017-04-22T16:29:58Z</time>
      </trkpt>
      <trkpt lat="48.68307" lon="-4.19192">
        <ele>3.884</ele>
        <time>2017-04-22T16:30:18Z</time>
      </trkpt>
      <trkpt lat="48.68298" lon="-4.19228">
        <ele>3.775</ele>
        <time>2017-04-22T16:30:58Z</time>
      </trkpt>
      <trkpt lat="48.68248" lon="-4.19288">
        <ele>4.846</ele>
        <time>2017-04-22T16:31:18Z</time>
      </trkpt>
      <trkpt lat="48.68228" lon="-4.19278">
        <ele>7.437</ele>
        <time>2017-04-22T16:31:38Z</time>
      </trkpt>
      <trkpt lat="48.68212" lon="-4.19277">
        <ele>8.897</ele>
        <time>2017-04-22T16:31:58Z</time>
      </trkpt>
      <trkpt lat="48.6818" lon="-4.19248">
        <ele>11.03</ele>
        <time>2017-04-22T16:32:18Z</time>
      </trkpt>
      <trkpt lat="48.68155" lon="-4.19219">
        <ele>10.857</ele>
        <time>2017-04-22T16:32:38Z</time>
      </trkpt>
      <trkpt lat="48.68132" lon="-4.19209">
        <ele>10.125</ele>
        <time>2017-04-22T16:32:58Z</time>
      </trkpt>
      <trkpt lat="48.68017" lon="-4.19211">
        <ele>10.226</ele>
        <time>2017-04-22T16:33:18Z</time>
      </trkpt>
      <trkpt lat="48.67976" lon="-4.19244">
        <ele>11.008</ele>
        <time>2017-04-22T16:33:38Z</time>
      </trkpt>
      <trkpt lat="48.67961" lon="-4.19265">
        <ele>11.408</ele>
        <time>2017-04-22T16:33:58Z</time>
      </trkpt>
      <trkpt lat="48.67942" lon="-4.19277">
        <ele>12.048</ele>
        <time>2017-04-22T16:34:18Z</time>
      </trkpt>
      <trkpt lat="48.67936" lon="-4.19302">
        <ele>11.464</ele>
        <time>2017-04-22T16:34:38Z</time>
      </trkpt>
      <trkpt lat="48.67899" lon="-4.19361">
        <ele>10.635</ele>
        <time>2017-04-22T16:34:58Z</time>
      </trkpt>
      <trkpt lat="48.67749" lon="-4.19574">
        <ele>10.026</ele>
        <time>2017-04-22T16:35:18Z</time>
      </trkpt>
      <trkpt lat="48.67691" lon="-4.19651">
        <ele>6.957</ele>
        <time>2017-04-22T16:35:38Z</time>
      </trkpt>
      <trkpt lat="48.67667" lon="-4.19699">
        <ele>6.097</ele>
        <time>2017-04-22T16:35:58Z</time>
      </trkpt>
      <trkpt lat="48.67619" lon="-4.19865">
        <ele>7.52</ele>
        <time>2017-04-22T16:36:18Z</time>
      </trkpt>
      <trkpt lat="48.676" lon="-4.19964">
        <ele>5.077</ele>
        <time>2017-04-22T16:36:38Z</time>
      </trkpt>
      <trkpt lat="48.67595" lon="-4.2006">
        <ele>6.164</ele>
        <time>2017-04-22T16:36:58Z</time>
      </trkpt>
      <trkpt lat="48.67579" lon="-4.20106">
        <ele>4.706</ele>
        <time>2017-04-22T16:37:18Z</time>
      </trkpt>
      <trkpt lat="48.67532" lon="-4.20171">
        <ele>5.416</ele>
        <time>2017-04-22T16:37:38Z</time>
      </trkpt>
      <trkpt lat="48.67496" lon="-4.20282">
        <ele>2.208</ele>
        <time>2017-04-22T16:55:18Z</time>
      </trkpt>
      <trkpt lat="48.67479" lon="-4.20305">
        <ele>3.152</ele>
        <time>2017-04-22T16:55:38Z</time>
      </trkpt>
      <trkpt lat="48.67375" lon="-4.20381">
        <ele>3.068</ele>
        <time>2017-04-22T16:55:58Z</time>
      </trkpt>
      <trkpt lat="48.67361" lon="-4.20384">
        <ele>3.369</ele>
        <time>2017-04-22T16:56:18Z</time>
      </trkpt>
      <trkpt lat="48.67316" lon="-4.2037">
        <ele>6.97</ele>
        <time>2017-04-22T16:56:38Z</time>
      </trkpt>
      <trkpt lat="48.67331" lon="-4.20465">
        <ele>3.461</ele>
        <time>2017-04-22T16:56:58Z</time>
      </trkpt>
      <trkpt lat="48.67319" lon="-4.2049">
        <ele>3.441</ele>
        <time>2017-04-22T16:57:18Z</time>
      </trkpt>
      <trkpt lat="48.67321" lon="-4.20521">
        <ele>2.274</ele>
        <time>2017-04-22T16:57:38Z</time>
      </trkpt>
      <trkpt lat="48.67277" lon="-4.20543">
        <ele>5.521</ele>
        <time>2017-04-22T16:57:58Z</time>
      </trkpt>
      <trkpt lat="48.67261" lon="-4.20583">
        <ele>4.679</ele>
        <time>2017-04-22T16:58:18Z</time>
      </trkpt>
      <trkpt lat="48.67235" lon="-4.20596">
        <ele>4.105</ele>
        <time>2017-04-22T16:58:38Z</time>
      </trkpt>
      <trkpt lat="48.67198" lon="-4.20597">
        <ele>3.625</ele>
        <time>2017-04-22T16:59:38Z</time>
      </trkpt>
      <trkpt lat="48.67176" lon="-4.20555">
        <ele>4.408</ele>
        <time>2017-04-22T16:59:58Z</time>
      </trkpt>
      <trkpt lat="48.67162" lon="-4.20537">
        <ele>4.643</ele>
        <time>2017-04-22T17:00:18Z</time>
      </trkpt>
      <trkpt lat="48.67148" lon="-4.2051">
        <ele>5.069</ele>
        <time>2017-04-22T17:00:38Z</time>
      </trkpt>
      <trkpt lat="48.6713" lon="-4.20513">
        <ele>4.77</ele>
        <time>2017-04-22T17:00:58Z</time>
      </trkpt>
      <trkpt lat="48.67121" lon="-4.20503">
        <ele>5.061</ele>
        <time>2017-04-22T17:01:18Z</time>
      </trkpt>
      <trkpt lat="48.67113" lon="-4.20525">
        <ele>5.072</ele>
        <time>2017-04-22T17:01:38Z</time>
      </trkpt>
      <trkpt lat="48.67136" lon="-4.20636">
        <ele>1.792</ele>
        <time>2017-04-22T17:01:58Z</time>
      </trkpt>
      <trkpt lat="48.67126" lon="-4.20666">
        <ele>2.075</ele>
        <time>2017-04-22T17:02:18Z</time>
      </trkpt>
      <trkpt lat="48.67099" lon="-4.20707">
        <ele>4.172</ele>
        <time>2017-04-22T17:02:38Z</time>
      </trkpt>
      <trkpt lat="48.67094" lon="-4.20743">
        <ele>4.875</ele>
        <time>2017-04-22T17:02:58Z</time>
      </trkpt>
      <trkpt lat="48.67101" lon="-4.20776">
        <ele>4.728</ele>
        <time>2017-04-22T17:03:18Z</time>
      </trkpt>
      <trkpt lat="48.67109" lon="-4.20813">
        <ele>4.22</ele>
        <time>2017-04-22T17:03:38Z</time>
      </trkpt>
      <trkpt lat="48.67106" lon="-4.20836">
        <ele>4.408</ele>
        <time>2017-04-22T17:03:58Z</time>
      </trkpt>
      <trkpt lat="48.67068" lon="-4.20912">
        <ele>4.333</ele>
        <time>2017-04-22T17:04:18Z</time>
      </trkpt>
      <trkpt lat="48.67038" lon="-4.20933">
        <ele>4.239</ele>
        <time>2017-04-22T17:04:38Z</time>
      </trkpt>
      <trkpt lat="48.67023" lon="-4.20953">
        <ele>3.48</ele>
        <time>2017-04-22T17:04:58Z</time>
      </trkpt>
      <trkpt lat="48.67002" lon="-4.20961">
        <ele>2.841</ele>
        <time>2017-04-22T17:05:18Z</time>
      </trkpt>
      <trkpt lat="48.66967" lon="-4.20963">
        <ele>2.772</ele>
        <time>2017-04-22T17:05:38Z</time>
      </trkpt>
      <trkpt lat="48.66929" lon="-4.20975">
        <ele>2.512</ele>
        <time>2017-04-22T17:05:58Z</time>
      </trkpt>
      <trkpt lat="48.6693" lon="-4.21011">
        <ele>1.265</ele>
        <time>2017-04-22T17:06:18Z</time>
      </trkpt>
      <trkpt lat="48.66906" lon="-4.21039">
        <ele>2.042</ele>
        <time>2017-04-22T17:06:38Z</time>
      </trkpt>
      <trkpt lat="48.66919" lon="-4.21169">
        <ele>3.965</ele>
        <time>2017-04-22T17:06:58Z</time>
      </trkpt>
      <trkpt lat="48.66794" lon="-4.21299">
        <ele>9.768</ele>
        <time>2017-04-22T17:07:18Z</time>
      </trkpt>
      <trkpt lat="48.66733" lon="-4.21215">
        <ele>10.014</ele>
        <time>2020-12-19T21:31:27Z</time>
      </trkpt>
      <trkpt lat="48.66707" lon="-4.2126">
        <ele>8.608</ele>
        <time>2020-12-19T21:31:47Z</time>
      </trkpt>
      <trkpt lat="48.66659" lon="-4.21306">
        <ele>4.892</ele>
        <time>2017-04-22T17:08:18Z</time>
      </trkpt>
      <trkpt lat="48.66575" lon="-4.21377">
        <ele>6.378</ele>
        <time>2020-12-19T21:32:27Z</time>
      </trkpt>
      <trkpt lat="48.66522" lon="-4.21371">
        <ele>8.029</ele>
        <time>2017-04-22T17:10:18Z</time>
      </trkpt>
      <trkpt lat="48.66495" lon="-4.2138">
        <ele>7.37</ele>
        <time>2017-04-22T17:10:38Z</time>
      </trkpt>
      <trkpt lat="48.66468" lon="-4.21381">
        <ele>8.611</ele>
        <time>2017-04-22T17:10:58Z</time>
      </trkpt>
      <trkpt lat="48.66449" lon="-4.21392">
        <ele>7.631</ele>
        <time>2017-04-22T17:11:18Z</time>
      </trkpt>
      <trkpt lat="48.66424" lon="-4.21389">
        <ele>8.084</ele>
        <time>2017-04-22T17:11:38Z</time>
      </trkpt>
      <trkpt lat="48.66415" lon="-4.21401">
        <ele>7.381</ele>
        <time>2017-04-22T17:11:58Z</time>
      </trkpt>
      <trkpt lat="48.66404" lon="-4.214">
        <ele>8.369</ele>
        <time>2017-04-22T17:12:18Z</time>
      </trkpt>
      <trkpt lat="48.66377" lon="-4.2143">
        <ele>9.104</ele>
        <time>2017-04-22T17:12:38Z</time>
      </trkpt>
      <trkpt lat="48.66353" lon="-4.21442">
        <ele>10.424</ele>
        <time>2017-04-22T17:12:58Z</time>
      </trkpt>
      <trkpt lat="48.6631" lon="-4.21494">
        <ele>8.308</ele>
        <time>2017-04-22T17:13:18Z</time>
      </trkpt>
      <trkpt lat="48.66303" lon="-4.21527">
        <ele>5.222</ele>
        <time>2017-04-22T17:13:38Z</time>
      </trkpt>
      <trkpt lat="48.66291" lon="-4.21543">
        <ele>3.938</ele>
        <time>2017-04-22T17:13:58Z</time>
      </trkpt>
      <trkpt lat="48.66267" lon="-4.21526">
        <ele>6.199</ele>
        <time>2017-04-22T17:14:18Z</time>
      </trkpt>
      <trkpt lat="48.66259" lon="-4.21532">
        <ele>5.76</ele>
        <time>2017-04-22T17:14:38Z</time>
      </trkpt>
      <trkpt lat="48.66245" lon="-4.21526">
        <ele>6.251</ele>
        <time>2017-04-22T17:14:58Z</time>
      </trkpt>
      <trkpt lat="48.66221" lon="-4.21539">
        <ele>6.311</ele>
        <time>2017-04-22T17:15:18Z</time>
      </trkpt>
      <trkpt lat="48.66211" lon="-4.21535">
        <ele>7.024</ele>
        <time>2017-04-22T17:15:38Z</time>
      </trkpt>
      <trkpt lat="48.66148" lon="-4.21582">
        <ele>11.411</ele>
        <time>2017-04-22T17:15:58Z</time>
      </trkpt>
      <trkpt lat="48.66136" lon="-4.21608">
        <ele>11.261</ele>
        <time>2017-04-22T17:16:18Z</time>
      </trkpt>
      <trkpt lat="48.66118" lon="-4.21624">
        <ele>11.221</ele>
        <time>2017-04-22T17:16:38Z</time>
      </trkpt>
      <trkpt lat="48.66094" lon="-4.21656">
        <ele>9.313</ele>
        <time>2017-04-22T17:16:58Z</time>
      </trkpt>
      <trkpt lat="48.65999" lon="-4.21854">
        <ele>8.508</ele>
        <time>2017-04-22T17:17:18Z</time>
      </trkpt>
      <trkpt lat="48.65943" lon="-4.21979">
        <ele>6.012</ele>
        <time>2017-04-22T17:17:38Z</time>
      </trkpt>
      <trkpt lat="48.6587" lon="-4.22169">
        <ele>5.958</ele>
        <time>2017-04-22T17:17:58Z</time>
      </trkpt>
      <trkpt lat="48.6585" lon="-4.2218">
        <ele>6.529</ele>
        <time>2017-04-22T17:18:18Z</time>
      </trkpt>
      <trkpt lat="48.6581" lon="-4.22166">
        <ele>5.37</ele>
        <time>2017-04-22T17:18:38Z</time>
      </trkpt>
      <trkpt lat="48.65765" lon="-4.22127">
        <ele>5.871</ele>
        <time>2017-04-22T17:18:58Z</time>
      </trkpt>
      <trkpt lat="48.65747" lon="-4.22122">
        <ele>5.851</ele>
        <time>2017-04-22T17:19:18Z</time>
      </trkpt>
      <trkpt lat="48.65714" lon="-4.22117">
        <ele>5.384</ele>
        <time>2017-04-22T17:19:38Z</time>
      </trkpt>
      <trkpt lat="48.65685" lon="-4.22109">
        <ele>4.891</ele>
        <time>2017-04-22T17:19:58Z</time>
      </trkpt>
      <trkpt lat="48.65673" lon="-4.22075">
        <ele>6.087</ele>
        <time>2017-04-22T17:20:18Z</time>
      </trkpt>
      <trkpt lat="48.65659" lon="-4.22061">
        <ele>5.842</ele>
        <time>2017-04-22T17:20:38Z</time>
      </trkpt>
      <trkpt lat="48.65645" lon="-4.22031">
        <ele>5.326</ele>
        <time>2017-04-22T17:20:58Z</time>
      </trkpt>
      <trkpt lat="48.65646" lon="-4.22009">
        <ele>5.508</ele>
        <time>2017-04-22T17:21:18Z</time>
      </trkpt>
      <trkpt lat="48.65659" lon="-4.21979">
        <ele>6.214</ele>
        <time>2017-04-22T17:21:38Z</time>
      </trkpt>
      <trkpt lat="48.65663" lon="-4.21878">
        <ele>7.24</ele>
        <time>2017-04-22T17:21:58Z</time>
      </trkpt>
      <trkpt lat="48.65656" lon="-4.21845">
        <ele>7.271</ele>
        <time>2017-04-22T17:22:18Z</time>
      </trkpt>
      <trkpt lat="48.65664" lon="-4.21817">
        <ele>6.712</ele>
        <time>2017-04-22T17:22:38Z</time>
      </trkpt>
      <trkpt lat="48.65669" lon="-4.21771">
        <ele>2.423</ele>
        <time>2017-04-22T17:22:58Z</time>
      </trkpt>
      <trkpt lat="48.65688" lon="-4.21773">
        <ele>4.233</ele>
        <time>2017-04-22T17:23:18Z</time>
      </trkpt>
      <trkpt lat="48.65709" lon="-4.21733">
        <ele>3.746</ele>
        <time>2017-04-22T17:23:38Z</time>
      </trkpt>
      <trkpt lat="48.65703" lon="-4.21696">
        <ele>1.053</ele>
        <time>2017-04-22T17:23:58Z</time>
      </trkpt>
      <trkpt lat="48.65711" lon="-4.21639">
        <ele>2.674</ele>
        <time>2017-04-22T17:24:18Z</time>
      </trkpt>
      <trkpt lat="48.65706" lon="-4.21596">
        <ele>4.056</ele>
        <time>2017-04-22T17:24:38Z</time>
      </trkpt>
      <trkpt lat="48.65697" lon="-4.21569">
        <ele>3.321</ele>
        <time>2017-04-22T17:24:58Z</time>
      </trkpt>
      <trkpt lat="48.65696" lon="-4.21537">
        <ele>3.808</ele>
        <time>2017-04-22T17:25:18Z</time>
      </trkpt>
      <trkpt lat="48.6567" lon="-4.21516">
        <ele>4.863</ele>
        <time>2017-04-22T17:25:38Z</time>
      </trkpt>
      <trkpt lat="48.65659" lon="-4.21474">
        <ele>5.439</ele>
        <time>2017-04-22T17:25:58Z</time>
      </trkpt>
      <trkpt lat="48.65676" lon="-4.21431">
        <ele>5.43</ele>
        <time>2017-04-22T17:26:18Z</time>
      </trkpt>
      <trkpt lat="48.65734" lon="-4.21387">
        <ele>4.921</ele>
        <time>2017-04-22T17:26:38Z</time>
      </trkpt>
      <trkpt lat="48.65748" lon="-4.21344">
        <ele>3.922</ele>
        <time>2017-04-22T17:26:58Z</time>
      </trkpt>
      <trkpt lat="48.65757" lon="-4.2133">
        <ele>4.212</ele>
        <time>2017-04-22T17:27:18Z</time>
      </trkpt>
      <trkpt lat="48.65768" lon="-4.21295">
        <ele>4.065</ele>
        <time>2017-04-22T17:27:38Z</time>
      </trkpt>
      <trkpt lat="48.658" lon="-4.21264">
        <ele>3.052</ele>
        <time>2017-04-22T17:27:58Z</time>
      </trkpt>
      <trkpt lat="48.65804" lon="-4.21247">
        <ele>2.139</ele>
        <time>2017-04-22T17:28:18Z</time>
      </trkpt>
      <trkpt lat="48.65789" lon="-4.21204">
        <ele>1.601</ele>
        <time>2017-04-22T17:28:38Z</time>
      </trkpt>
      <trkpt lat="48.65783" lon="-4.21174">
        <ele>1.821</ele>
        <time>2017-04-22T17:28:58Z</time>
      </trkpt>
      <trkpt lat="48.6577" lon="-4.21132">
        <ele>2.308</ele>
        <time>2017-04-22T17:29:18Z</time>
      </trkpt>
      <trkpt lat="48.65755" lon="-4.21101">
        <ele>3.499</ele>
        <time>2017-04-22T17:29:38Z</time>
      </trkpt>
      <trkpt lat="48.65754" lon="-4.21067">
        <ele>4.725</ele>
        <time>2017-04-22T17:29:58Z</time>
      </trkpt>
      <trkpt lat="48.65738" lon="-4.21038">
        <ele>5.456</ele>
        <time>2017-04-22T17:30:18Z</time>
      </trkpt>
      <trkpt lat="48.65714" lon="-4.20937">
        <ele>5.497</ele>
        <time>2017-04-22T17:30:38Z</time>
      </trkpt>
      <trkpt lat="48.65723" lon="-4.20901">
        <ele>4.048</ele>
        <time>2017-04-22T17:30:58Z</time>
      </trkpt>
      <trkpt lat="48.65705" lon="-4.20789">
        <ele>2.658</ele>
        <time>2017-04-22T17:31:18Z</time>
      </trkpt>
      <trkpt lat="48.65718" lon="-4.2077">
        <ele>3.751</ele>
        <time>2017-04-22T17:31:38Z</time>
      </trkpt>
      <trkpt lat="48.65709" lon="-4.20732">
        <ele>3.118</ele>
        <time>2017-04-22T17:31:58Z</time>
      </trkpt>
      <trkpt lat="48.65701" lon="-4.20653">
        <ele>3.217</ele>
        <time>2017-04-22T17:32:18Z</time>
      </trkpt>
      <trkpt lat="48.65688" lon="-4.20626">
        <ele>3.287</ele>
        <time>2017-04-22T17:32:38Z</time>
      </trkpt>
      <trkpt lat="48.6567" lon="-4.20596">
        <ele>3.415</ele>
        <time>2017-04-22T17:32:58Z</time>
      </trkpt>
      <trkpt lat="48.65661" lon="-4.20555">
        <ele>7.008</ele>
        <time>2017-04-22T17:33:18Z</time>
      </trkpt>
      <trkpt lat="48.65661" lon="-4.20512">
        <ele>7.777</ele>
        <time>2017-04-22T17:33:38Z</time>
      </trkpt>
      <trkpt lat="48.65669" lon="-4.2045">
        <ele>6.343</ele>
        <time>2017-04-22T17:33:58Z</time>
      </trkpt>
      <trkpt lat="48.65675" lon="-4.20403">
        <ele>4.844</ele>
        <time>2017-04-22T17:34:18Z</time>
      </trkpt>
      <trkpt lat="48.65669" lon="-4.20345">
        <ele>3.545</ele>
        <time>2017-04-22T17:34:38Z</time>
      </trkpt>
      <trkpt lat="48.65678" lon="-4.20261">
        <ele>2.246</ele>
        <time>2017-04-22T17:34:58Z</time>
      </trkpt>
      <trkpt lat="48.65646" lon="-4.2014">
        <ele>2.086</ele>
        <time>2017-04-22T17:35:18Z</time>
      </trkpt>
      <trkpt lat="48.65614" lon="-4.19924">
        <ele>0.099</ele>
        <time>2017-04-22T17:35:38Z</time>
      </trkpt>
      <trkpt lat="48.656" lon="-4.19863">
        <ele>2.396</ele>
        <time>2017-04-22T17:35:58Z</time>
      </trkpt>
      <trkpt lat="48.65546" lon="-4.1982">
        <ele>4.284</ele>
        <time>2017-04-22T17:36:18Z</time>
      </trkpt>
      <trkpt lat="48.65484" lon="-4.19784">
        <ele>4.007</ele>
        <time>2017-04-22T17:36:38Z</time>
      </trkpt>
      <trkpt lat="48.65416" lon="-4.19724">
        <ele>1.017</ele>
        <time>2017-04-22T17:36:58Z</time>
      </trkpt>
      <trkpt lat="48.65403" lon="-4.19688">
        <ele>0.508</ele>
        <time>2017-04-22T17:37:18Z</time>
      </trkpt>
      <trkpt lat="48.65417" lon="-4.19639">
        <ele>1.084</ele>
        <time>2017-04-22T17:37:38Z</time>
      </trkpt>
      <trkpt lat="48.65412" lon="-4.19587">
        <ele>1.77</ele>
        <time>2017-04-22T17:37:58Z</time>
      </trkpt>
      <trkpt lat="48.65383" lon="-4.19469">
        <ele>4.821</ele>
        <time>2017-04-22T17:38:18Z</time>
      </trkpt>
      <trkpt lat="48.65345" lon="-4.19485">
        <ele>2.652</ele>
        <time>2017-04-22T17:38:38Z</time>
      </trkpt>
      <trkpt lat="48.65297" lon="-4.19491">
        <ele>2.133</ele>
        <time>2017-04-22T17:38:58Z</time>
      </trkpt>
      <trkpt lat="48.65257" lon="-4.19482">
        <ele>2.423</ele>
        <time>2017-04-22T17:39:18Z</time>
      </trkpt>
      <trkpt lat="48.65235" lon="-4.19455">
        <ele>3.156</ele>
        <time>2017-04-22T17:39:38Z</time>
      </trkpt>
      <trkpt lat="48.65222" lon="-4.19413">
        <ele>4.193</ele>
        <time>2017-04-22T17:39:58Z</time>
      </trkpt>
      <trkpt lat="48.652" lon="-4.19431">
        <ele>2.718</ele>
        <time>2017-04-22T17:40:18Z</time>
      </trkpt>
      <trkpt lat="48.65181" lon="-4.19433">
        <ele>1.998</ele>
        <time>2017-04-22T17:40:38Z</time>
      </trkpt>
      <trkpt lat="48.65175" lon="-4.19494">
        <ele>1.517</ele>
        <time>2017-04-22T17:40:58Z</time>
      </trkpt>
      <trkpt lat="48.65187" lon="-4.19607">
        <ele>1.608</ele>
        <time>2017-04-22T17:41:18Z</time>
      </trkpt>
      <trkpt lat="48.65196" lon="-4.19611">
        <ele>1.097</ele>
        <time>2017-04-22T17:43:58Z</time>
      </trkpt>
      <trkpt lat="48.65214" lon="-4.19638">
        <ele>1.353</ele>
        <time>2017-04-22T17:44:18Z</time>
      </trkpt>
      <trkpt lat="48.65263" lon="-4.19859">
        <ele>0.514</ele>
        <time>2017-04-22T17:44:38Z</time>
      </trkpt>
      <trkpt lat="48.65244" lon="-4.19981">
        <ele>1.435</ele>
        <time>2017-04-22T17:44:58Z</time>
      </trkpt>
      <trkpt lat="48.65172" lon="-4.20158">
        <ele>-0.546</ele>
        <time>2017-04-22T17:45:18Z</time>
      </trkpt>
      <trkpt lat="48.65141" lon="-4.20316">
        <ele>2.366</ele>
        <time>2017-04-22T17:45:38Z</time>
      </trkpt>
      <trkpt lat="48.65115" lon="-4.20402">
        <ele>0.949</ele>
        <time>2017-04-22T17:45:58Z</time>
      </trkpt>
      <trkpt lat="48.65085" lon="-4.20399">
        <ele>1.936</ele>
        <time>2017-04-22T17:46:18Z</time>
      </trkpt>
      <trkpt lat="48.65062" lon="-4.20483">
        <ele>2.094</ele>
        <time>2017-04-22T17:46:38Z</time>
      </trkpt>
      <trkpt lat="48.65042" lon="-4.20591">
        <ele>1.457</ele>
        <time>2017-04-22T17:46:58Z</time>
      </trkpt>
      <trkpt lat="48.65057" lon="-4.20641">
        <ele>1.022</ele>
        <time>2017-04-22T17:47:18Z</time>
      </trkpt>
      <trkpt lat="48.65042" lon="-4.20722">
        <ele>0.508</ele>
        <time>2017-04-22T17:47:38Z</time>
      </trkpt>
      <trkpt lat="48.65033" lon="-4.20731">
        <ele>0.895</ele>
        <time>2017-04-22T17:47:58Z</time>
      </trkpt>
      <trkpt lat="48.6505" lon="-4.20769">
        <ele>0.241</ele>
        <time>2017-04-22T17:48:18Z</time>
      </trkpt>
      <trkpt lat="48.64988" lon="-4.21089">
        <ele>0.482</ele>
        <time>2017-04-22T17:48:38Z</time>
      </trkpt>
      <trkpt lat="48.64914" lon="-4.21314">
        <ele>4.743</ele>
        <time>2017-04-22T17:48:58Z</time>
      </trkpt>
      <trkpt lat="48.64934" lon="-4.2133">
        <ele>1.854</ele>
        <time>2017-04-22T17:49:18Z</time>
      </trkpt>
      <trkpt lat="48.64942" lon="-4.214">
        <ele>0.324</ele>
        <time>2017-04-22T17:49:38Z</time>
      </trkpt>
      <trkpt lat="48.64931" lon="-4.21456">
        <ele>0.817</ele>
        <time>2017-04-22T17:49:58Z</time>
      </trkpt>
      <trkpt lat="48.64903" lon="-4.21509">
        <ele>2.334</ele>
        <time>2017-04-22T17:50:18Z</time>
      </trkpt>
      <trkpt lat="48.64877" lon="-4.21573">
        <ele>4.237</ele>
        <time>2017-04-22T17:50:38Z</time>
      </trkpt>
      <trkpt lat="48.64894" lon="-4.21594">
        <ele>2.049</ele>
        <time>2017-04-22T17:50:58Z</time>
      </trkpt>
      <trkpt lat="48.64902" lon="-4.21643">
        <ele>0.013</ele>
        <time>2017-04-22T17:51:18Z</time>
      </trkpt>
      <trkpt lat="48.64904" lon="-4.21705">
        <ele>0.008</ele>
        <time>2017-04-22T17:51:38Z</time>
      </trkpt>
      <trkpt lat="48.64881" lon="-4.21734">
        <ele>1.729</ele>
        <time>2017-04-22T17:51:58Z</time>
      </trkpt>
      <trkpt lat="48.64876" lon="-4.2177">
        <ele>2.195</ele>
        <time>2017-04-22T17:52:18Z</time>
      </trkpt>
      <trkpt lat="48.64876" lon="-4.21855">
        <ele>2.246</ele>
        <time>2017-04-22T17:52:38Z</time>
      </trkpt>
      <trkpt lat="48.6487" lon="-4.21949">
        <ele>2.967</ele>
        <time>2017-04-22T17:52:58Z</time>
      </trkpt>
      <trkpt lat="48.64856" lon="-4.22055">
        <ele>5.238</ele>
        <time>2017-04-22T17:53:18Z</time>
      </trkpt>
      <trkpt lat="48.64834" lon="-4.22078">
        <ele>5.218</ele>
        <time>2017-04-22T17:55:18Z</time>
      </trkpt>
      <trkpt lat="48.64805" lon="-4.22123">
        <ele>4.691</ele>
        <time>2017-04-22T17:55:38Z</time>
      </trkpt>
      <trkpt lat="48.64809" lon="-4.22382">
        <ele>3.388</ele>
        <time>2017-04-22T17:55:58Z</time>
      </trkpt>
      <trkpt lat="48.64914" lon="-4.22446">
        <ele>1.316</ele>
        <time>2017-04-22T17:56:18Z</time>
      </trkpt>
      <trkpt lat="48.64923" lon="-4.22467">
        <ele>1.476</ele>
        <time>2017-04-22T17:56:38Z</time>
      </trkpt>
      <trkpt lat="48.64926" lon="-4.22531">
        <ele>2.013</ele>
        <time>2017-04-22T17:56:58Z</time>
      </trkpt>
      <trkpt lat="48.64909" lon="-4.22587">
        <ele>2.208</ele>
        <time>2017-04-22T17:57:18Z</time>
      </trkpt>
      <trkpt lat="48.64912" lon="-4.22792">
        <ele>2.267</ele>
        <time>2017-04-22T17:57:38Z</time>
      </trkpt>
      <trkpt lat="48.64899" lon="-4.2283">
        <ele>2.173</ele>
        <time>2017-04-22T17:57:58Z</time>
      </trkpt>
      <trkpt lat="48.64911" lon="-4.22879">
        <ele>2.864</ele>
        <time>2017-04-22T17:58:18Z</time>
      </trkpt>
      <trkpt lat="48.64897" lon="-4.229">
        <ele>2.255</ele>
        <time>2017-04-22T17:58:38Z</time>
      </trkpt>
      <trkpt lat="48.64893" lon="-4.22949">
        <ele>2.046</ele>
        <time>2017-04-22T17:58:58Z</time>
      </trkpt>
      <trkpt lat="48.64905" lon="-4.2309">
        <ele>2.036</ele>
        <time>2017-04-22T17:59:18Z</time>
      </trkpt>
      <trkpt lat="48.64884" lon="-4.23109">
        <ele>3.019</ele>
        <time>2017-04-22T17:59:38Z</time>
      </trkpt>
      <trkpt lat="48.64853" lon="-4.23099">
        <ele>3.096</ele>
        <time>2017-04-22T17:59:58Z</time>
      </trkpt>
      <trkpt lat="48.64809" lon="-4.23249">
        <ele>3.123</ele>
        <time>2017-04-22T18:00:18Z</time>
      </trkpt>
      <trkpt lat="48.64897" lon="-4.23311">
        <ele>2.083</ele>
        <time>2017-04-22T18:00:38Z</time>
      </trkpt>
      <trkpt lat="48.64992" lon="-4.23442">
        <ele>0.311</ele>
        <time>2017-04-22T18:00:58Z</time>
      </trkpt>
      <trkpt lat="48.65006" lon="-4.23691">
        <ele>5.408</ele>
        <time>2017-04-22T18:01:18Z</time>
      </trkpt>
      <trkpt lat="48.64931" lon="-4.23939">
        <ele>7.588</ele>
        <time>2017-04-22T18:01:38Z</time>
      </trkpt>
      <trkpt lat="48.6491" lon="-4.24104">
        <ele>6.844</ele>
        <time>2017-04-22T18:01:58Z</time>
      </trkpt>
      <trkpt lat="48.64904" lon="-4.24171">
        <ele>6.155</ele>
        <time>2017-04-22T18:02:18Z</time>
      </trkpt>
      <trkpt lat="48.64912" lon="-4.24252">
        <ele>7.966</ele>
        <time>2017-04-22T18:02:38Z</time>
      </trkpt>
      <trkpt lat="48.64899" lon="-4.24299">
        <ele>8.087</ele>
        <time>2017-04-22T18:02:58Z</time>
      </trkpt>
      <trkpt lat="48.64845" lon="-4.24395">
        <ele>4.087</ele>
        <time>2017-04-22T18:03:18Z</time>
      </trkpt>
      <trkpt lat="48.64841" lon="-4.24471">
        <ele>5.31</ele>
        <time>2017-04-22T18:03:38Z</time>
      </trkpt>
      <trkpt lat="48.64826" lon="-4.24511">
        <ele>5.887</ele>
        <time>2017-04-22T18:03:58Z</time>
      </trkpt>
      <trkpt lat="48.64858" lon="-4.24742">
        <ele>7.077</ele>
        <time>2017-04-22T18:04:18Z</time>
      </trkpt>
      <trkpt lat="48.64852" lon="-4.24815">
        <ele>6.061</ele>
        <time>2017-04-22T18:04:38Z</time>
      </trkpt>
      <trkpt lat="48.64875" lon="-4.24908">
        <ele>9.527</ele>
        <time>2017-04-22T18:04:58Z</time>
      </trkpt>
      <trkpt lat="48.64885" lon="-4.24998">
        <ele>7.008</ele>
        <time>2017-04-22T18:05:18Z</time>
      </trkpt>
      <trkpt lat="48.64891" lon="-4.25103">
        <ele>5.293</ele>
        <time>2017-04-22T18:05:38Z</time>
      </trkpt>
      <trkpt lat="48.64911" lon="-4.25208">
        <ele>7.029</ele>
        <time>2017-04-22T18:05:58Z</time>
      </trkpt>
      <trkpt lat="48.64916" lon="-4.25343">
        <ele>6.06</ele>
        <time>2017-04-22T18:06:18Z</time>
      </trkpt>
      <trkpt lat="48.64913" lon="-4.25441">
        <ele>5.061</ele>
        <time>2017-04-22T18:06:38Z</time>
      </trkpt>
      <trkpt lat="48.64933" lon="-4.25655">
        <ele>5.132</ele>
        <time>2017-04-22T18:06:58Z</time>
      </trkpt>
      <trkpt lat="48.64936" lon="-4.25854">
        <ele>4.972</ele>
        <time>2017-04-22T18:07:18Z</time>
      </trkpt>
      <trkpt lat="48.64964" lon="-4.26203">
        <ele>7.585</ele>
        <time>2017-04-22T18:07:38Z</time>
      </trkpt>
      <trkpt lat="48.64964" lon="-4.26266">
        <ele>5.022</ele>
        <time>2017-04-22T18:07:58Z</time>
      </trkpt>
      <trkpt lat="48.64947" lon="-4.2628">
        <ele>5.842</ele>
        <time>2017-04-22T18:08:18Z</time>
      </trkpt>
      <trkpt lat="48.64959" lon="-4.2631">
        <ele>4.422</ele>
        <time>2017-04-22T18:08:38Z</time>
      </trkpt>
      <trkpt lat="48.64962" lon="-4.26336">
        <ele>4.214</ele>
        <time>2017-04-22T18:08:58Z</time>
      </trkpt>
      <trkpt lat="48.6496" lon="-4.26501">
        <ele>4.708</ele>
        <time>2017-04-22T18:09:18Z</time>
      </trkpt>
      <trkpt lat="48.64964" lon="-4.26564">
        <ele>5.26</ele>
        <time>2017-04-22T18:09:38Z</time>
      </trkpt>
      <trkpt lat="48.6496" lon="-4.26727">
        <ele>5.476</ele>
        <time>2017-04-22T18:09:58Z</time>
      </trkpt>
      <trkpt lat="48.64915" lon="-4.26842">
        <ele>5.357</ele>
        <time>2017-04-22T18:10:18Z</time>
      </trkpt>
      <trkpt lat="48.64908" lon="-4.26901">
        <ele>7.668</ele>
        <time>2017-04-22T18:10:38Z</time>
      </trkpt>
      <trkpt lat="48.64876" lon="-4.26968">
        <ele>8.439</ele>
        <time>2017-04-22T18:10:58Z</time>
      </trkpt>
      <trkpt lat="48.6487" lon="-4.27019">
        <ele>7.629</ele>
        <time>2017-04-22T18:11:18Z</time>
      </trkpt>
      <trkpt lat="48.64842" lon="-4.27135">
        <ele>3.332</ele>
        <time>2017-04-22T18:11:38Z</time>
      </trkpt>
      <trkpt lat="48.64798" lon="-4.27276">
        <ele>3.069</ele>
        <time>2017-04-22T18:12:38Z</time>
      </trkpt>
      <trkpt lat="48.6474" lon="-4.27375">
        <ele>1.964</ele>
        <time>2017-04-22T18:12:58Z</time>
      </trkpt>
      <trkpt lat="48.64675" lon="-4.27449">
        <ele>3.806</ele>
        <time>2017-04-22T18:13:18Z</time>
      </trkpt>
      <trkpt lat="48.64642" lon="-4.27514">
        <ele>3.116</ele>
        <time>2017-04-22T18:13:38Z</time>
      </trkpt>
      <trkpt lat="48.64593" lon="-4.27555">
        <ele>2.708</ele>
        <time>2017-04-22T18:13:58Z</time>
      </trkpt>
      <trkpt lat="48.64547" lon="-4.27601">
        <ele>3.042</ele>
        <time>2017-04-22T18:14:18Z</time>
      </trkpt>
      <trkpt lat="48.6451" lon="-4.27611">
        <ele>3.058</ele>
        <time>2017-04-22T18:14:38Z</time>
      </trkpt>
      <trkpt lat="48.64437" lon="-4.27661">
        <ele>2.629</ele>
        <time>2017-04-22T18:14:58Z</time>
      </trkpt>
      <trkpt lat="48.644" lon="-4.27692">
        <ele>2.95</ele>
        <time>2017-04-22T18:15:18Z</time>
      </trkpt>
      <trkpt lat="48.64331" lon="-4.27776">
        <ele>3.931</ele>
        <time>2017-04-22T18:15:38Z</time>
      </trkpt>
      <trkpt lat="48.64323" lon="-4.27804">
        <ele>4.651</ele>
        <time>2017-04-22T18:15:58Z</time>
      </trkpt>
      <trkpt lat="48.64283" lon="-4.27855">
        <ele>4.054</ele>
        <time>2017-04-22T18:16:18Z</time>
      </trkpt>
      <trkpt lat="48.64203" lon="-4.27989">
        <ele>2.031</ele>
        <time>2017-04-22T18:16:38Z</time>
      </trkpt>
      <trkpt lat="48.64158" lon="-4.27988">
        <ele>2.886</ele>
        <time>2017-04-22T18:16:58Z</time>
      </trkpt>
      <trkpt lat="48.64158" lon="-4.27988">
        <ele>2.86</ele>
        <time>2017-04-22T18:17:18Z</time>
      </trkpt>
      <trkpt lat="48.63878" lon="-4.27859">
        <ele>2.626</ele>
        <time>2017-04-22T18:17:38Z</time>
      </trkpt>
      <trkpt lat="48.63802" lon="-4.28393">
        <ele>3.908</ele>
        <time>2017-04-22T18:17:58Z</time>
      </trkpt>
      <trkpt lat="48.63803" lon="-4.28345">
        <ele>3.954</ele>
        <time>2017-04-22T18:18:18Z</time>
      </trkpt>
      <trkpt lat="48.63802" lon="-4.28393">
        <ele>3.94</ele>
        <time>2017-04-22T18:18:38Z</time>
      </trkpt>
      <trkpt lat="48.6381" lon="-4.28418">
        <ele>3.841</ele>
        <time>2017-04-22T18:18:58Z</time>
      </trkpt>
      <trkpt lat="48.63804" lon="-4.2844">
        <ele>3.262</ele>
        <time>2017-04-22T18:19:18Z</time>
      </trkpt>
      <trkpt lat="48.63801" lon="-4.28543">
        <ele>1.533</ele>
        <time>2017-04-22T18:19:38Z</time>
      </trkpt>
      <trkpt lat="48.63764" lon="-4.28655">
        <ele>3.083</ele>
        <time>2017-04-22T18:19:58Z</time>
      </trkpt>
      <trkpt lat="48.63727" lon="-4.28892">
        <ele>2.916</ele>
        <time>2017-04-22T18:20:18Z</time>
      </trkpt>
      <trkpt lat="48.63741" lon="-4.28905">
        <ele>2.843</ele>
        <time>2017-04-22T18:20:38Z</time>
      </trkpt>
      <trkpt lat="48.63746" lon="-4.28929">
        <ele>2.568</ele>
        <time>2017-04-22T18:20:58Z</time>
      </trkpt>
      <trkpt lat="48.63743" lon="-4.28942">
        <ele>2.142</ele>
        <time>2017-04-22T18:21:18Z</time>
      </trkpt>
      <trkpt lat="48.63781" lon="-4.28995">
        <ele>0.826</ele>
        <time>2017-04-22T18:21:38Z</time>
      </trkpt>
      <trkpt lat="48.63801" lon="-4.29042">
        <ele>0.908</ele>
        <time>2017-04-22T18:21:58Z</time>
      </trkpt>
      <trkpt lat="48.6381" lon="-4.29074">
        <ele>1.072</ele>
        <time>2017-04-22T18:22:18Z</time>
      </trkpt>
      <trkpt lat="48.63826" lon="-4.29112">
        <ele>0.738</ele>
        <time>2017-04-22T18:22:38Z</time>
      </trkpt>
      <trkpt lat="48.6382" lon="-4.29207">
        <ele>-0.569</ele>
        <time>2017-04-22T18:22:58Z</time>
      </trkpt>
      <trkpt lat="48.63803" lon="-4.29294">
        <ele>2.15</ele>
        <time>2017-04-22T18:23:18Z</time>
      </trkpt>
      <trkpt lat="48.63783" lon="-4.29323">
        <ele>2.881</ele>
        <time>2017-04-22T18:23:38Z</time>
      </trkpt>
      <trkpt lat="48.63687" lon="-4.293">
        <ele>0.951</ele>
        <time>2017-04-22T18:23:58Z</time>
      </trkpt>
      <trkpt lat="48.6336" lon="-4.29551">
        <ele>2.124</ele>
        <time>2017-04-22T18:24:18Z</time>
      </trkpt>
      <trkpt lat="48.63253" lon="-4.29642">
        <ele>4.841</ele>
        <time>2017-04-22T18:24:38Z</time>
      </trkpt>
      <trkpt lat="48.63256" lon="-4.29678">
        <ele>4.161</ele>
        <time>2017-04-22T18:24:58Z</time>
      </trkpt>
      <trkpt lat="48.63255" lon="-4.29789">
        <ele>1.021</ele>
        <time>2017-04-22T18:25:18Z</time>
      </trkpt>
      <trkpt lat="48.63275" lon="-4.29896">
        <ele>3.113</ele>
        <time>2017-04-22T18:25:38Z</time>
      </trkpt>
      <trkpt lat="48.63296" lon="-4.29938">
        <ele>2.208</ele>
        <time>2017-04-22T18:25:58Z</time>
      </trkpt>
      <trkpt lat="48.63307" lon="-4.30005">
        <ele>0.232</ele>
        <time>2017-04-22T18:26:18Z</time>
      </trkpt>
      <trkpt lat="48.63326" lon="-4.30072">
        <ele>1.748</ele>
        <time>2017-04-22T18:27:18Z</time>
      </trkpt>
      <trkpt lat="48.63319" lon="-4.30135">
        <ele>4.599</ele>
        <time>2017-04-22T18:27:38Z</time>
      </trkpt>
      <trkpt lat="48.63319" lon="-4.30184">
        <ele>3.47</ele>
        <time>2017-04-22T18:27:58Z</time>
      </trkpt>
      <trkpt lat="48.63298" lon="-4.30248">
        <ele>1.421</ele>
        <time>2017-04-22T18:28:18Z</time>
      </trkpt>
      <trkpt lat="48.63279" lon="-4.30256">
        <ele>2.071</ele>
        <time>2017-04-22T18:28:38Z</time>
      </trkpt>
      <trkpt lat="48.63397" lon="-4.30724">
        <ele>2.124</ele>
        <time>2017-04-22T18:28:58Z</time>
      </trkpt>
      <trkpt lat="48.63485" lon="-4.31066">
        <ele>1.711</ele>
        <time>2017-04-22T18:29:18Z</time>
      </trkpt>
      <trkpt lat="48.63521" lon="-4.31176">
        <ele>3.122</ele>
        <time>2017-04-22T18:29:38Z</time>
      </trkpt>
      <trkpt lat="48.63565" lon="-4.31288">
        <ele>1.762</ele>
        <time>2017-04-22T18:29:58Z</time>
      </trkpt>
      <trkpt lat="48.63651" lon="-4.31441">
        <ele>2.608</ele>
        <time>2017-04-22T18:30:18Z</time>
      </trkpt>
      <trkpt lat="48.63748" lon="-4.31588">
        <ele>2.908</ele>
        <time>2017-04-22T18:30:38Z</time>
      </trkpt>
      <trkpt lat="48.63747" lon="-4.31606">
        <ele>2.358</ele>
        <time>2017-04-22T18:30:58Z</time>
      </trkpt>
      <trkpt lat="48.63821" lon="-4.31629">
        <ele>2.634</ele>
        <time>2017-04-22T18:31:18Z</time>
      </trkpt>
      <trkpt lat="48.63818" lon="-4.31665">
        <ele>3.995</ele>
        <time>2017-04-22T18:31:38Z</time>
      </trkpt>
      <trkpt lat="48.63944" lon="-4.31816">
        <ele>3.496</ele>
        <time>2017-04-22T18:31:58Z</time>
      </trkpt>
      <trkpt lat="48.64175" lon="-4.32061">
        <ele>10.127</ele>
        <time>2017-04-22T18:32:18Z</time>
      </trkpt>
      <trkpt lat="48.6417" lon="-4.32076">
        <ele>10.667</ele>
        <time>2017-04-22T18:32:38Z</time>
      </trkpt>
      <trkpt lat="48.64185" lon="-4.32085">
        <ele>10.49</ele>
        <time>2017-04-22T18:33:38Z</time>
      </trkpt>
      <trkpt lat="48.64251" lon="-4.32182">
        <ele>8.557</ele>
        <time>2017-04-22T18:33:58Z</time>
      </trkpt>
      <trkpt lat="48.64511" lon="-4.32633">
        <ele>8.019</ele>
        <time>2017-04-22T18:34:18Z</time>
      </trkpt>
      <trkpt lat="48.64531" lon="-4.32694">
        <ele>9.109</ele>
        <time>2017-04-22T18:34:38Z</time>
      </trkpt>
      <trkpt lat="48.6454" lon="-4.32767">
        <ele>10.019</ele>
        <time>2017-04-22T18:34:58Z</time>
      </trkpt>
      <trkpt lat="48.64548" lon="-4.32807">
        <ele>10.808</ele>
        <time>2017-04-22T18:35:18Z</time>
      </trkpt>
      <trkpt lat="48.64559" lon="-4.32828">
        <ele>11.027</ele>
        <time>2017-04-22T18:35:38Z</time>
      </trkpt>
      <trkpt lat="48.64561" lon="-4.32856">
        <ele>11.093</ele>
        <time>2017-04-22T18:36:58Z</time>
      </trkpt>
      <trkpt lat="48.64617" lon="-4.32847">
        <ele>11.484</ele>
        <time>2017-04-22T18:37:18Z</time>
      </trkpt>
      <trkpt lat="48.64715" lon="-4.32622">
        <ele>9.755</ele>
        <time>2017-04-22T18:37:38Z</time>
      </trkpt>
      <trkpt lat="48.64731" lon="-4.32572">
        <ele>9.366</ele>
        <time>2017-04-22T18:37:58Z</time>
      </trkpt>
      <trkpt lat="48.64738" lon="-4.3252">
        <ele>9.656</ele>
        <time>2017-04-22T18:38:18Z</time>
      </trkpt>
      <trkpt lat="48.64828" lon="-4.32495">
        <ele>11.229</ele>
        <time>2017-04-22T18:38:38Z</time>
      </trkpt>
      <trkpt lat="48.64975" lon="-4.32427">
        <ele>18.126</ele>
        <time>2017-04-22T18:38:58Z</time>
      </trkpt>
      <trkpt lat="48.65021" lon="-4.32423">
        <ele>20.696</ele>
        <time>2017-04-22T18:39:18Z</time>
      </trkpt>
      <trkpt lat="48.65021" lon="-4.32374">
        <ele>20.331</ele>
        <time>2017-04-22T18:39:38Z</time>
      </trkpt>
      <trkpt lat="48.65035" lon="-4.32345">
        <ele>20.824</ele>
        <time>2017-04-22T18:39:58Z</time>
      </trkpt>
      <trkpt lat="48.65041" lon="-4.32321">
        <ele>21.008</ele>
        <time>2017-04-22T18:40:18Z</time>
      </trkpt>
      <trkpt lat="48.65041" lon="-4.32295">
        <ele>21.015</ele>
        <time>2017-04-22T18:40:38Z</time>
      </trkpt>
      <trkpt lat="48.65025" lon="-4.3225">
        <ele>19.881</ele>
        <time>2017-04-22T18:40:58Z</time>
      </trkpt>
      <trkpt lat="48.65015" lon="-4.32171">
        <ele>17.712</ele>
        <time>2017-04-22T18:41:18Z</time>
      </trkpt>
      <trkpt lat="48.65013" lon="-4.32114">
        <ele>16.133</ele>
        <time>2017-04-22T18:41:38Z</time>
      </trkpt>
      <trkpt lat="48.65027" lon="-4.32084">
        <ele>16.044</ele>
        <time>2017-04-22T18:41:58Z</time>
      </trkpt>
      <trkpt lat="48.65059" lon="-4.31806">
        <ele>22.014</ele>
        <time>2017-04-22T18:42:18Z</time>
      </trkpt>
      <trkpt lat="48.65038" lon="-4.31819">
        <ele>20.347</ele>
        <time>2017-04-22T18:42:38Z</time>
      </trkpt>
      <trkpt lat="48.65021" lon="-4.31758">
        <ele>21.074</ele>
        <time>2017-04-22T18:42:58Z</time>
      </trkpt>
      <trkpt lat="48.6503" lon="-4.31705">
        <ele>22.725</ele>
        <time>2017-04-22T18:43:18Z</time>
      </trkpt>
      <trkpt lat="48.65044" lon="-4.31704">
        <ele>23.326</ele>
        <time>2017-04-22T18:43:38Z</time>
      </trkpt>
      <trkpt lat="48.65038" lon="-4.31645">
        <ele>23.708</ele>
        <time>2017-04-22T18:43:58Z</time>
      </trkpt>
      <trkpt lat="48.65043" lon="-4.31628">
        <ele>23.908</ele>
        <time>2017-04-22T18:44:18Z</time>
      </trkpt>
      <trkpt lat="48.65036" lon="-4.31609">
        <ele>23.318</ele>
        <time>2017-04-22T18:44:38Z</time>
      </trkpt>
      <trkpt lat="48.65028" lon="-4.31553">
        <ele>23.084</ele>
        <time>2017-04-22T18:44:58Z</time>
      </trkpt>
      <trkpt lat="48.65005" lon="-4.31509">
        <ele>23.065</ele>
        <time>2017-04-22T18:45:18Z</time>
      </trkpt>
      <trkpt lat="48.65033" lon="-4.31454">
        <ele>22.056</ele>
        <time>2017-04-22T18:45:38Z</time>
      </trkpt>
      <trkpt lat="48.65051" lon="-4.31381">
        <ele>20.817</ele>
        <time>2017-04-22T18:45:58Z</time>
      </trkpt>
      <trkpt lat="48.65104" lon="-4.31256">
        <ele>17.467</ele>
        <time>2017-04-22T18:46:18Z</time>
      </trkpt>
      <trkpt lat="48.65139" lon="-4.312">
        <ele>17.03</ele>
        <time>2017-04-22T18:46:38Z</time>
      </trkpt>
      <trkpt lat="48.65163" lon="-4.31177">
        <ele>17.047</ele>
        <time>2017-04-22T18:46:58Z</time>
      </trkpt>
      <trkpt lat="48.65157" lon="-4.3115">
        <ele>17.028</ele>
        <time>2017-04-22T18:47:18Z</time>
      </trkpt>
      <trkpt lat="48.65141" lon="-4.31107">
        <ele>17.089</ele>
        <time>2017-04-22T18:47:38Z</time>
      </trkpt>
      <trkpt lat="48.65143" lon="-4.31015">
        <ele>15.717</ele>
        <time>2017-04-22T18:47:58Z</time>
      </trkpt>
      <trkpt lat="48.6509" lon="-4.30847">
        <ele>11.308</ele>
        <time>2017-04-22T18:48:18Z</time>
      </trkpt>
      <trkpt lat="48.6509" lon="-4.3082">
        <ele>10.548</ele>
        <time>2017-04-22T18:48:38Z</time>
      </trkpt>
      <trkpt lat="48.65104" lon="-4.30695">
        <ele>10.874</ele>
        <time>2017-04-22T18:48:58Z</time>
      </trkpt>
      <trkpt lat="48.65109" lon="-4.30608">
        <ele>9.945</ele>
        <time>2017-04-22T18:49:18Z</time>
      </trkpt>
      <trkpt lat="48.65103" lon="-4.30545">
        <ele>7.896</ele>
        <time>2017-04-22T18:49:38Z</time>
      </trkpt>
      <trkpt lat="48.65113" lon="-4.30535">
        <ele>8.437</ele>
        <time>2017-04-22T18:49:58Z</time>
      </trkpt>
      <trkpt lat="48.65119" lon="-4.3051">
        <ele>7.257</ele>
        <time>2017-04-22T18:50:18Z</time>
      </trkpt>
      <trkpt lat="48.65119" lon="-4.3051">
        <ele>7.22</ele>
        <time>2017-04-22T18:50:38Z</time>
      </trkpt>
      <trkpt lat="48.65169" lon="-4.30395">
        <ele>5.487</ele>
        <time>2017-04-22T18:50:58Z</time>
      </trkpt>
      <trkpt lat="48.65189" lon="-4.30338">
        <ele>5.848</ele>
        <time>2020-12-19T23:06:47Z</time>
      </trkpt>
      <trkpt lat="48.65204" lon="-4.30348">
        <ele>7.461</ele>
        <time>2020-12-19T23:07:07Z</time>
      </trkpt>
      <trkpt lat="48.65218" lon="-4.30294">
        <ele>8.617</ele>
        <time>2020-12-19T23:07:27Z</time>
      </trkpt>
      <trkpt lat="48.65244" lon="-4.30251">
        <ele>13.108</ele>
        <time>2020-12-19T23:07:47Z</time>
      </trkpt>
      <trkpt lat="48.65223" lon="-4.30232">
        <ele>10.21</ele>
        <time>2020-12-19T23:08:07Z</time>
      </trkpt>
      <trkpt lat="48.6525" lon="-4.30134">
        <ele>5.656</ele>
        <time>2017-04-22T18:51:38Z</time>
      </trkpt>
      <trkpt lat="48.65266" lon="-4.30069">
        <ele>3.667</ele>
        <time>2017-04-22T18:51:58Z</time>
      </trkpt>
      <trkpt lat="48.65335" lon="-4.3002">
        <ele>5.218</ele>
        <time>2017-04-22T18:52:18Z</time>
      </trkpt>
      <trkpt lat="48.65389" lon="-4.29971">
        <ele>4.989</ele>
        <time>2017-04-22T18:52:38Z</time>
      </trkpt>
      <trkpt lat="48.65411" lon="-4.29932">
        <ele>2.439</ele>
        <time>2017-04-22T18:52:58Z</time>
      </trkpt>
      <trkpt lat="48.65423" lon="-4.29933">
        <ele>2.472</ele>
        <time>2017-04-22T18:53:18Z</time>
      </trkpt>
      <trkpt lat="48.65446" lon="-4.29968">
        <ele>4.869</ele>
        <time>2017-04-22T18:53:38Z</time>
      </trkpt>
      <trkpt lat="48.65499" lon="-4.30019">
        <ele>5.789</ele>
        <time>2017-04-22T18:53:58Z</time>
      </trkpt>
      <trkpt lat="48.65531" lon="-4.30004">
        <ele>5.006</ele>
        <time>2020-12-19T23:11:07Z</time>
      </trkpt>
      <trkpt lat="48.65602" lon="-4.30036">
        <ele>6.026</ele>
        <time>2020-12-19T23:11:27Z</time>
      </trkpt>
      <trkpt lat="48.65684" lon="-4.30068">
        <ele>5.308</ele>
        <time>2017-04-22T18:54:58Z</time>
      </trkpt>
      <trkpt lat="48.65769" lon="-4.30086">
        <ele>7.644</ele>
        <time>2017-04-22T18:55:18Z</time>
      </trkpt>
      <trkpt lat="48.65782" lon="-4.3008">
        <ele>7.91</ele>
        <time>2017-04-22T18:55:38Z</time>
      </trkpt>
      <trkpt lat="48.65824" lon="-4.30085">
        <ele>6.711</ele>
        <time>2017-04-22T18:55:58Z</time>
      </trkpt>
      <trkpt lat="48.65883" lon="-4.30064">
        <ele>4.332</ele>
        <time>2017-04-22T18:56:18Z</time>
      </trkpt>
      <trkpt lat="48.65919" lon="-4.30044">
        <ele>6.793</ele>
        <time>2017-04-22T18:56:38Z</time>
      </trkpt>
      <trkpt lat="48.65961" lon="-4.29954">
        <ele>5.813</ele>
        <time>2017-04-22T18:56:58Z</time>
      </trkpt>
      <trkpt lat="48.65975" lon="-4.29859">
        <ele>4.126</ele>
        <time>2017-04-22T18:57:18Z</time>
      </trkpt>
      <trkpt lat="48.66051" lon="-4.2978">
        <ele>4.873</ele>
        <time>2017-04-22T18:57:38Z</time>
      </trkpt>
      <trkpt lat="48.66083" lon="-4.29718">
        <ele>7.817</ele>
        <time>2017-04-22T18:57:58Z</time>
      </trkpt>
      <trkpt lat="48.66098" lon="-4.29666">
        <ele>7.087</ele>
        <time>2017-04-22T18:58:18Z</time>
      </trkpt>
      <trkpt lat="48.66095" lon="-4.29589">
        <ele>6.415</ele>
        <time>2020-12-19T23:15:27Z</time>
      </trkpt>
      <trkpt lat="48.66113" lon="-4.29529">
        <ele>6.108</ele>
        <time>2017-04-22T18:59:18Z</time>
      </trkpt>
      <trkpt lat="48.66141" lon="-4.29466">
        <ele>3.777</ele>
        <time>2017-04-22T18:59:38Z</time>
      </trkpt>
      <trkpt lat="48.66164" lon="-4.29476">
        <ele>4.273</ele>
        <time>2017-04-22T19:00:18Z</time>
      </trkpt>
      <trkpt lat="48.66192" lon="-4.29502">
        <ele>6.234</ele>
        <time>2017-04-22T19:01:58Z</time>
      </trkpt>
      <trkpt lat="48.662" lon="-4.29531">
        <ele>8.935</ele>
        <time>2020-12-19T23:17:07Z</time>
      </trkpt>
      <trkpt lat="48.66259" lon="-4.29518">
        <ele>5.736</ele>
        <time>2020-12-19T23:17:27Z</time>
      </trkpt>
      <trkpt lat="48.66316" lon="-4.29574">
        <ele>7.096</ele>
        <time>2017-04-22T19:03:18Z</time>
      </trkpt>
      <trkpt lat="48.6635" lon="-4.29636">
        <ele>7.629</ele>
        <time>2017-04-22T19:04:18Z</time>
      </trkpt>
      <trkpt lat="48.66375" lon="-4.29641">
        <ele>5.716</ele>
        <time>2017-04-22T19:04:38Z</time>
      </trkpt>
      <trkpt lat="48.66405" lon="-4.29671">
        <ele>6.213</ele>
        <time>2017-04-22T19:04:58Z</time>
      </trkpt>
      <trkpt lat="48.66425" lon="-4.29667">
        <ele>4.743</ele>
        <time>2017-04-22T19:05:18Z</time>
      </trkpt>
      <trkpt lat="48.66443" lon="-4.29677">
        <ele>5.207</ele>
        <time>2017-04-22T19:05:38Z</time>
      </trkpt>
      <trkpt lat="48.6646" lon="-4.29717">
        <ele>5.008</ele>
        <time>2017-04-22T19:05:58Z</time>
      </trkpt>
      <trkpt lat="48.66464" lon="-4.29784">
        <ele>6.377</ele>
        <time>2017-04-22T19:06:18Z</time>
      </trkpt>
      <trkpt lat="48.66462" lon="-4.29846">
        <ele>6.373</ele>
        <time>2017-04-22T19:06:38Z</time>
      </trkpt>
      <trkpt lat="48.66472" lon="-4.29933">
        <ele>6.654</ele>
        <time>2017-04-22T19:06:58Z</time>
      </trkpt>
      <trkpt lat="48.66468" lon="-4.29969">
        <ele>7.385</ele>
        <time>2017-04-22T19:07:18Z</time>
      </trkpt>
      <trkpt lat="48.66482" lon="-4.30039">
        <ele>8.246</ele>
        <time>2017-04-22T19:07:38Z</time>
      </trkpt>
      <trkpt lat="48.66483" lon="-4.30124">
        <ele>7.636</ele>
        <time>2017-04-22T19:07:58Z</time>
      </trkpt>
      <trkpt lat="48.66503" lon="-4.30236">
        <ele>6.089</ele>
        <time>2017-04-22T19:09:38Z</time>
      </trkpt>
      <trkpt lat="48.66529" lon="-4.30334">
        <ele>4.956</ele>
        <time>2017-04-22T19:09:58Z</time>
      </trkpt>
      <trkpt lat="48.66558" lon="-4.30415">
        <ele>4.743</ele>
        <time>2017-04-22T19:10:18Z</time>
      </trkpt>
      <trkpt lat="48.66563" lon="-4.30461">
        <ele>4.564</ele>
        <time>2017-04-22T19:10:38Z</time>
      </trkpt>
      <trkpt lat="48.66574" lon="-4.30514">
        <ele>3.71</ele>
        <time>2017-04-22T19:10:58Z</time>
      </trkpt>
      <trkpt lat="48.66573" lon="-4.30543">
        <ele>3.708</ele>
        <time>2017-04-22T19:11:18Z</time>
      </trkpt>
      <trkpt lat="48.66583" lon="-4.30559">
        <ele>3.17</ele>
        <time>2017-04-22T19:11:38Z</time>
      </trkpt>
      <trkpt lat="48.66599" lon="-4.30621">
        <ele>3.296</ele>
        <time>2017-04-22T19:11:58Z</time>
      </trkpt>
      <trkpt lat="48.66647" lon="-4.30791">
        <ele>5.857</ele>
        <time>2017-04-22T19:12:18Z</time>
      </trkpt>
      <trkpt lat="48.66645" lon="-4.30806">
        <ele>5.568</ele>
        <time>2017-04-22T19:12:38Z</time>
      </trkpt>
      <trkpt lat="48.66681" lon="-4.30863">
        <ele>3.549</ele>
        <time>2017-04-22T19:12:58Z</time>
      </trkpt>
      <trkpt lat="48.667" lon="-4.30903">
        <ele>3.829</ele>
        <time>2017-04-22T19:13:18Z</time>
      </trkpt>
      <trkpt lat="48.66729" lon="-4.30954">
        <ele>2.842</ele>
        <time>2017-04-22T19:13:38Z</time>
      </trkpt>
      <trkpt lat="48.66744" lon="-4.31015">
        <ele>3.889</ele>
        <time>2017-04-22T19:13:58Z</time>
      </trkpt>
      <trkpt lat="48.66776" lon="-4.31092">
        <ele>6.095</ele>
        <time>2017-04-22T19:14:18Z</time>
      </trkpt>
      <trkpt lat="48.66834" lon="-4.3124">
        <ele>3.149</ele>
        <time>2017-04-22T19:14:38Z</time>
      </trkpt>
      <trkpt lat="48.66851" lon="-4.31298">
        <ele>4.023</ele>
        <time>2017-04-22T19:14:58Z</time>
      </trkpt>
      <trkpt lat="48.66878" lon="-4.31321">
        <ele>3.008</ele>
        <time>2017-04-22T19:15:18Z</time>
      </trkpt>
      <trkpt lat="48.66893" lon="-4.3133">
        <ele>2.935</ele>
        <time>2017-04-22T19:15:38Z</time>
      </trkpt>
      <trkpt lat="48.66911" lon="-4.31362">
        <ele>4.011</ele>
        <time>2017-04-22T19:15:58Z</time>
      </trkpt>
      <trkpt lat="48.66934" lon="-4.31371">
        <ele>4.472</ele>
        <time>2017-04-22T19:16:18Z</time>
      </trkpt>
      <trkpt lat="48.66937" lon="-4.31385">
        <ele>4.823</ele>
        <time>2017-04-22T19:16:38Z</time>
      </trkpt>
      <trkpt lat="48.6694" lon="-4.31373">
        <ele>4.414</ele>
        <time>2017-04-22T19:16:58Z</time>
      </trkpt>
      <trkpt lat="48.66949" lon="-4.31356">
        <ele>3.834</ele>
        <time>2017-04-22T19:17:18Z</time>
      </trkpt>
      <trkpt lat="48.66985" lon="-4.31371">
        <ele>4.367</ele>
        <time>2017-04-22T19:17:38Z</time>
      </trkpt>
      <trkpt lat="48.67035" lon="-4.31345">
        <ele>4.234</ele>
        <time>2017-04-22T19:20:58Z</time>
      </trkpt>
      <trkpt lat="48.67053" lon="-4.31323">
        <ele>4.594</ele>
        <time>2017-04-22T19:21:18Z</time>
      </trkpt>
      <trkpt lat="48.6706" lon="-4.3129">
        <ele>3.757</ele>
        <time>2017-04-22T19:21:38Z</time>
      </trkpt>
      <trkpt lat="48.67069" lon="-4.31291">
        <ele>4.522</ele>
        <time>2017-04-22T19:21:58Z</time>
      </trkpt>
      <trkpt lat="48.67081" lon="-4.31277">
        <ele>4.808</ele>
        <time>2017-04-22T19:22:18Z</time>
      </trkpt>
      <trkpt lat="48.67092" lon="-4.31279">
        <ele>5.775</ele>
        <time>2017-04-22T19:22:38Z</time>
      </trkpt>
      <trkpt lat="48.67109" lon="-4.31298">
        <ele>7.641</ele>
        <time>2017-04-22T19:22:58Z</time>
      </trkpt>
      <trkpt lat="48.67129" lon="-4.31295">
        <ele>7.092</ele>
        <time>2017-04-22T19:23:18Z</time>
      </trkpt>
      <trkpt lat="48.67143" lon="-4.31306">
        <ele>6.643</ele>
        <time>2017-04-22T19:23:38Z</time>
      </trkpt>
      <trkpt lat="48.67188" lon="-4.31281">
        <ele>3.094</ele>
        <time>2017-04-22T19:23:58Z</time>
      </trkpt>
      <trkpt lat="48.67201" lon="-4.31259">
        <ele>3.264</ele>
        <time>2017-04-22T19:24:18Z</time>
      </trkpt>
      <trkpt lat="48.67228" lon="-4.31258">
        <ele>4.097</ele>
        <time>2017-04-22T19:24:38Z</time>
      </trkpt>
      <trkpt lat="48.67241" lon="-4.31279">
        <ele>4.014</ele>
        <time>2017-04-22T19:24:58Z</time>
      </trkpt>
      <trkpt lat="48.67238" lon="-4.31306">
        <ele>4.086</ele>
        <time>2017-04-22T19:25:18Z</time>
      </trkpt>
      <trkpt lat="48.67224" lon="-4.31309">
        <ele>4.06</ele>
        <time>2017-04-22T19:25:38Z</time>
      </trkpt>
      <trkpt lat="48.67193" lon="-4.31307">
        <ele>3.026</ele>
        <time>2017-04-22T19:25:58Z</time>
      </trkpt>
      <trkpt lat="48.67167" lon="-4.31319">
        <ele>4.008</ele>
        <time>2017-04-22T19:26:18Z</time>
      </trkpt>
      <trkpt lat="48.67138" lon="-4.31368">
        <ele>5.814</ele>
        <time>2017-04-22T19:26:38Z</time>
      </trkpt>
      <trkpt lat="48.67119" lon="-4.31401">
        <ele>5.36</ele>
        <time>2017-04-22T19:26:58Z</time>
      </trkpt>
      <trkpt lat="48.67112" lon="-4.31439">
        <ele>4.971</ele>
        <time>2017-04-22T19:27:18Z</time>
      </trkpt>
      <trkpt lat="48.67108" lon="-4.31472">
        <ele>5.162</ele>
        <time>2017-04-22T19:27:38Z</time>
      </trkpt>
      <trkpt lat="48.67117" lon="-4.31543">
        <ele>5.623</ele>
        <time>2017-04-22T19:27:58Z</time>
      </trkpt>
      <trkpt lat="48.67105" lon="-4.31575">
        <ele>6.053</ele>
        <time>2017-04-22T19:28:18Z</time>
      </trkpt>
      <trkpt lat="48.67118" lon="-4.31592">
        <ele>5.996</ele>
        <time>2017-04-22T19:28:38Z</time>
      </trkpt>
      <trkpt lat="48.67123" lon="-4.3162">
        <ele>7.073</ele>
        <time>2017-04-22T19:28:58Z</time>
      </trkpt>
      <trkpt lat="48.67121" lon="-4.31637">
        <ele>7.969</ele>
        <time>2017-04-22T19:29:18Z</time>
      </trkpt>
      <trkpt lat="48.67079" lon="-4.31702">
        <ele>4.904</ele>
        <time>2017-04-22T19:29:38Z</time>
      </trkpt>
      <trkpt lat="48.67072" lon="-4.31729">
        <ele>4.224</ele>
        <time>2017-04-22T19:29:58Z</time>
      </trkpt>
      <trkpt lat="48.67044" lon="-4.31742">
        <ele>5.408</ele>
        <time>2017-04-22T19:30:18Z</time>
      </trkpt>
      <trkpt lat="48.67014" lon="-4.31774">
        <ele>3.692</ele>
        <time>2017-04-22T19:30:38Z</time>
      </trkpt>
      <trkpt lat="48.66993" lon="-4.31798">
        <ele>4.238</ele>
        <time>2017-04-22T19:30:58Z</time>
      </trkpt>
      <trkpt lat="48.66971" lon="-4.31842">
        <ele>4.119</ele>
        <time>2017-04-22T19:31:18Z</time>
      </trkpt>
      <trkpt lat="48.66957" lon="-4.31836">
        <ele>5.11</ele>
        <time>2017-04-22T19:31:38Z</time>
      </trkpt>
      <trkpt lat="48.66941" lon="-4.31838">
        <ele>6.111</ele>
        <time>2017-04-22T19:31:58Z</time>
      </trkpt>
      <trkpt lat="48.66935" lon="-4.31854">
        <ele>6.391</ele>
        <time>2017-04-22T19:32:18Z</time>
      </trkpt>
      <trkpt lat="48.66929" lon="-4.31886">
        <ele>7.544</ele>
        <time>2017-04-22T19:32:38Z</time>
      </trkpt>
      <trkpt lat="48.66907" lon="-4.3189">
        <ele>8.071</ele>
        <time>2017-04-22T19:32:58Z</time>
      </trkpt>
      <trkpt lat="48.66874" lon="-4.31939">
        <ele>9.769</ele>
        <time>2017-04-22T19:33:18Z</time>
      </trkpt>
      <trkpt lat="48.66858" lon="-4.31948">
        <ele>8.904</ele>
        <time>2017-04-22T19:33:38Z</time>
      </trkpt>
      <trkpt lat="48.66756" lon="-4.31959">
        <ele>4.224</ele>
        <time>2017-04-22T19:33:58Z</time>
      </trkpt>
      <trkpt lat="48.66732" lon="-4.31956">
        <ele>4.608</ele>
        <time>2017-04-22T19:34:18Z</time>
      </trkpt>
      <trkpt lat="48.66715" lon="-4.31937">
        <ele>5.512</ele>
        <time>2017-04-22T19:34:38Z</time>
      </trkpt>
      <trkpt lat="48.66676" lon="-4.31992">
        <ele>5.318</ele>
        <time>2017-04-22T19:34:58Z</time>
      </trkpt>
      <trkpt lat="48.66662" lon="-4.32039">
        <ele>3.569</ele>
        <time>2017-04-22T19:35:18Z</time>
      </trkpt>
      <trkpt lat="48.66612" lon="-4.32146">
        <ele>3.75</ele>
        <time>2017-04-22T19:35:38Z</time>
      </trkpt>
      <trkpt lat="48.66569" lon="-4.3229">
        <ele>5.871</ele>
        <time>2017-04-22T19:35:58Z</time>
      </trkpt>
      <trkpt lat="48.66608" lon="-4.32491">
        <ele>6.461</ele>
        <time>2017-04-22T19:36:18Z</time>
      </trkpt>
      <trkpt lat="48.66572" lon="-4.32496">
        <ele>11.674</ele>
        <time>2017-04-22T19:36:38Z</time>
      </trkpt>
      <trkpt lat="48.66517" lon="-4.32447">
        <ele>10.591</ele>
        <time>2017-04-22T19:36:58Z</time>
      </trkpt>
      <trkpt lat="48.66501" lon="-4.32405">
        <ele>9.541</ele>
        <time>2017-04-22T19:37:18Z</time>
      </trkpt>
      <trkpt lat="48.66485" lon="-4.32433">
        <ele>11.181</ele>
        <time>2017-04-22T19:37:38Z</time>
      </trkpt>
      <trkpt lat="48.66451" lon="-4.32517">
        <ele>15.109</ele>
        <time>2017-04-22T19:37:58Z</time>
      </trkpt>
      <trkpt lat="48.66429" lon="-4.32656">
        <ele>15.708</ele>
        <time>2017-04-22T19:38:18Z</time>
      </trkpt>
      <trkpt lat="48.66482" lon="-4.32622">
        <ele>16.66</ele>
        <time>2017-04-22T19:38:38Z</time>
      </trkpt>
      <trkpt lat="48.66511" lon="-4.32618">
        <ele>16.056</ele>
        <time>2017-04-22T19:38:58Z</time>
      </trkpt>
      <trkpt lat="48.66542" lon="-4.32635">
        <ele>13.177</ele>
        <time>2017-04-22T19:39:18Z</time>
      </trkpt>
      <trkpt lat="48.66639" lon="-4.32613">
        <ele>3.258</ele>
        <time>2017-04-22T19:39:38Z</time>
      </trkpt>
      <trkpt lat="48.66659" lon="-4.32679">
        <ele>2.819</ele>
        <time>2017-04-22T19:39:58Z</time>
      </trkpt>
      <trkpt lat="48.66697" lon="-4.32754">
        <ele>2.259</ele>
        <time>2017-04-22T19:40:18Z</time>
      </trkpt>
      <trkpt lat="48.66649" lon="-4.32756">
        <ele>6.452</ele>
        <time>2017-04-22T19:40:38Z</time>
      </trkpt>
      <trkpt lat="48.66738" lon="-4.3297">
        <ele>3.529</ele>
        <time>2017-04-22T19:40:58Z</time>
      </trkpt>
      <trkpt lat="48.66764" lon="-4.33007">
        <ele>3.383</ele>
        <time>2017-04-22T19:41:18Z</time>
      </trkpt>
      <trkpt lat="48.66786" lon="-4.32998">
        <ele>3.025</ele>
        <time>2017-04-22T19:41:38Z</time>
      </trkpt>
      <trkpt lat="48.66852" lon="-4.32992">
        <ele>3.117</ele>
        <time>2017-04-22T19:41:58Z</time>
      </trkpt>
      <trkpt lat="48.66883" lon="-4.33">
        <ele>4.808</ele>
        <time>2017-04-22T19:44:58Z</time>
      </trkpt>
      <trkpt lat="48.66897" lon="-4.3301">
        <ele>5.644</ele>
        <time>2017-04-22T19:45:18Z</time>
      </trkpt>
      <trkpt lat="48.66927" lon="-4.33">
        <ele>6.08</ele>
        <time>2017-04-22T19:45:38Z</time>
      </trkpt>
      <trkpt lat="48.66935" lon="-4.32987">
        <ele>6.261</ele>
        <time>2017-04-22T19:45:58Z</time>
      </trkpt>
      <trkpt lat="48.6695" lon="-4.32984">
        <ele>6.092</ele>
        <time>2017-04-22T19:46:18Z</time>
      </trkpt>
      <trkpt lat="48.66968" lon="-4.33002">
        <ele>6.113</ele>
        <time>2017-04-22T19:46:38Z</time>
      </trkpt>
      <trkpt lat="48.6699" lon="-4.33003">
        <ele>6.713</ele>
        <time>2017-04-22T19:46:58Z</time>
      </trkpt>
      <trkpt lat="48.67009" lon="-4.33028">
        <ele>8.356</ele>
        <time>2017-04-22T19:47:18Z</time>
      </trkpt>
      <trkpt lat="48.67021" lon="-4.33034">
        <ele>8.633</ele>
        <time>2017-04-22T19:47:38Z</time>
      </trkpt>
      <trkpt lat="48.67021" lon="-4.32932">
        <ele>6.137</ele>
        <time>2017-04-22T19:47:58Z</time>
      </trkpt>
      <trkpt lat="48.67031" lon="-4.32895">
        <ele>5.949</ele>
        <time>2017-04-22T19:48:18Z</time>
      </trkpt>
      <trkpt lat="48.67045" lon="-4.32871">
        <ele>5.813</ele>
        <time>2017-04-22T19:48:38Z</time>
      </trkpt>
      <trkpt lat="48.67064" lon="-4.32857">
        <ele>4.808</ele>
        <time>2017-04-22T19:48:58Z</time>
      </trkpt>
      <trkpt lat="48.67091" lon="-4.32851">
        <ele>3.759</ele>
        <time>2017-04-22T19:49:18Z</time>
      </trkpt>
      <trkpt lat="48.67112" lon="-4.32851">
        <ele>5.045</ele>
        <time>2017-04-22T19:49:38Z</time>
      </trkpt>
      <trkpt lat="48.67114" lon="-4.32807">
        <ele>0.376</ele>
        <time>2017-04-22T19:49:58Z</time>
      </trkpt>
      <trkpt lat="48.67129" lon="-4.32806">
        <ele>0.167</ele>
        <time>2017-04-22T19:50:18Z</time>
      </trkpt>
      <trkpt lat="48.67141" lon="-4.32781">
        <ele>0.078</ele>
        <time>2017-04-22T19:50:38Z</time>
      </trkpt>
      <trkpt lat="48.67219" lon="-4.3279">
        <ele>5.698</ele>
        <time>2017-04-22T19:50:58Z</time>
      </trkpt>
      <trkpt lat="48.67245" lon="-4.32787">
        <ele>5.931</ele>
        <time>2017-04-22T19:51:18Z</time>
      </trkpt>
      <trkpt lat="48.67281" lon="-4.32804">
        <ele>5.878</ele>
        <time>2017-04-22T19:51:38Z</time>
      </trkpt>
      <trkpt lat="48.67294" lon="-4.32818">
        <ele>5.224</ele>
        <time>2017-04-22T19:51:58Z</time>
      </trkpt>
      <trkpt lat="48.67295" lon="-4.3286">
        <ele>5.004</ele>
        <time>2017-04-22T19:52:18Z</time>
      </trkpt>
      <trkpt lat="48.67324" lon="-4.32786">
        <ele>4.314</ele>
        <time>2017-04-22T19:52:38Z</time>
      </trkpt>
      <trkpt lat="48.67369" lon="-4.32738">
        <ele>4.008</ele>
        <time>2017-04-22T19:52:58Z</time>
      </trkpt>
      <trkpt lat="48.67388" lon="-4.32743">
        <ele>5.028</ele>
        <time>2017-04-22T19:53:18Z</time>
      </trkpt>
      <trkpt lat="48.67446" lon="-4.32819">
        <ele>6.424</ele>
        <time>2017-04-22T19:53:38Z</time>
      </trkpt>
      <trkpt lat="48.67468" lon="-4.32867">
        <ele>5.365</ele>
        <time>2017-04-22T19:53:58Z</time>
      </trkpt>
      <trkpt lat="48.67486" lon="-4.32937">
        <ele>3.966</ele>
        <time>2017-04-22T19:54:18Z</time>
      </trkpt>
      <trkpt lat="48.67529" lon="-4.33052">
        <ele>2.027</ele>
        <time>2017-04-22T19:54:38Z</time>
      </trkpt>
      <trkpt lat="48.67552" lon="-4.33079">
        <ele>2.867</ele>
        <time>2017-04-22T19:54:58Z</time>
      </trkpt>
      <trkpt lat="48.67587" lon="-4.33087">
        <ele>4.45</ele>
        <time>2017-04-22T19:55:18Z</time>
      </trkpt>
      <trkpt lat="48.67683" lon="-4.33038">
        <ele>8.287</ele>
        <time>2020-12-20T00:02:27Z</time>
      </trkpt>
      <trkpt lat="48.67699" lon="-4.33122">
        <ele>6.625</ele>
        <time>2020-12-20T00:02:47Z</time>
      </trkpt>
      <trkpt lat="48.67641" lon="-4.33164">
        <ele>7.126</ele>
        <time>2020-12-20T00:03:07Z</time>
      </trkpt>
      <trkpt lat="48.67621" lon="-4.33266">
        <ele>5.308</ele>
        <time>2017-04-22T19:56:58Z</time>
      </trkpt>
      <trkpt lat="48.67566" lon="-4.33431">
        <ele>4.808</ele>
        <time>2017-04-22T19:57:18Z</time>
      </trkpt>
      <trkpt lat="48.67556" lon="-4.33439">
        <ele>5.818</ele>
        <time>2017-04-22T19:57:38Z</time>
      </trkpt>
      <trkpt lat="48.67552" lon="-4.33518">
        <ele>5.024</ele>
        <time>2017-04-22T19:57:58Z</time>
      </trkpt>
      <trkpt lat="48.67579" lon="-4.33576">
        <ele>5.135</ele>
        <time>2017-04-22T19:58:18Z</time>
      </trkpt>
      <trkpt lat="48.67579" lon="-4.33671">
        <ele>6.176</ele>
        <time>2017-04-22T19:58:38Z</time>
      </trkpt>
      <trkpt lat="48.67561" lon="-4.33681">
        <ele>6.177</ele>
        <time>2017-04-22T19:58:58Z</time>
      </trkpt>
      <trkpt lat="48.6758" lon="-4.33755">
        <ele>6.927</ele>
        <time>2017-04-22T19:59:18Z</time>
      </trkpt>
      <trkpt lat="48.67591" lon="-4.33845">
        <ele>5.96</ele>
        <time>2017-04-22T19:59:38Z</time>
      </trkpt>
      <trkpt lat="48.67618" lon="-4.33869">
        <ele>6.567</ele>
        <time>2020-12-20T00:06:27Z</time>
      </trkpt>
      <trkpt lat="48.67624" lon="-4.33902">
        <ele>6.741</ele>
        <time>2020-12-20T00:06:47Z</time>
      </trkpt>
      <trkpt lat="48.67641" lon="-4.33902">
        <ele>7.681</ele>
        <time>2020-12-20T00:07:07Z</time>
      </trkpt>
      <trkpt lat="48.67646" lon="-4.33924">
        <ele>7.209</ele>
        <time>2020-12-20T00:07:27Z</time>
      </trkpt>
      <trkpt lat="48.6769" lon="-4.33924">
        <ele>6.308</ele>
        <time>2020-12-20T00:07:47Z</time>
      </trkpt>
      <trkpt lat="48.67701" lon="-4.34095">
        <ele>5.06</ele>
        <time>2017-04-22T20:01:18Z</time>
      </trkpt>
      <trkpt lat="48.67678" lon="-4.34103">
        <ele>5.716</ele>
        <time>2017-04-22T20:01:38Z</time>
      </trkpt>
      <trkpt lat="48.67666" lon="-4.34295">
        <ele>3.467</ele>
        <time>2017-04-22T20:01:58Z</time>
      </trkpt>
      <trkpt lat="48.67669" lon="-4.34345">
        <ele>5.688</ele>
        <time>2017-04-22T20:02:18Z</time>
      </trkpt>
      <trkpt lat="48.67683" lon="-4.34421">
        <ele>4.279</ele>
        <time>2017-04-22T20:02:38Z</time>
      </trkpt>
      <trkpt lat="48.67685" lon="-4.34452">
        <ele>4.629</ele>
        <time>2017-04-22T20:02:58Z</time>
      </trkpt>
      <trkpt lat="48.67718" lon="-4.34527">
        <ele>0.912</ele>
        <time>2017-04-22T20:03:18Z</time>
      </trkpt>
      <trkpt lat="48.67705" lon="-4.34608">
        <ele>3.379</ele>
        <time>2017-04-22T20:03:38Z</time>
      </trkpt>
      <trkpt lat="48.67641" lon="-4.34661">
        <ele>5.164</ele>
        <time>2017-04-22T20:03:58Z</time>
      </trkpt>
      <trkpt lat="48.6765" lon="-4.34673">
        <ele>4.506</ele>
        <time>2017-04-22T20:04:18Z</time>
      </trkpt>
      <trkpt lat="48.67641" lon="-4.34693">
        <ele>4.816</ele>
        <time>2017-04-22T20:04:38Z</time>
      </trkpt>
      <trkpt lat="48.67635" lon="-4.34736">
        <ele>4.008</ele>
        <time>2017-04-22T20:04:58Z</time>
      </trkpt>
      <trkpt lat="48.67644" lon="-4.34781">
        <ele>3.162</ele>
        <time>2017-04-22T20:05:18Z</time>
      </trkpt>
      <trkpt lat="48.67637" lon="-4.34852">
        <ele>4.648</ele>
        <time>2017-04-22T20:05:38Z</time>
      </trkpt>
      <trkpt lat="48.67643" lon="-4.34925">
        <ele>4.099</ele>
        <time>2017-04-22T20:05:58Z</time>
      </trkpt>
      <trkpt lat="48.67651" lon="-4.34962">
        <ele>1.56</ele>
        <time>2017-04-22T20:06:18Z</time>
      </trkpt>
      <trkpt lat="48.67648" lon="-4.35001">
        <ele>0.731</ele>
        <time>2017-04-22T20:06:38Z</time>
      </trkpt>
      <trkpt lat="48.67623" lon="-4.3508">
        <ele>1.211</ele>
        <time>2017-04-22T20:06:58Z</time>
      </trkpt>
      <trkpt lat="48.67601" lon="-4.35127">
        <ele>0.674</ele>
        <time>2017-04-22T20:07:18Z</time>
      </trkpt>
      <trkpt lat="48.67596" lon="-4.35159">
        <ele>0.041</ele>
        <time>2017-04-22T20:07:38Z</time>
      </trkpt>
      <trkpt lat="48.67576" lon="-4.35188">
        <ele>0.442</ele>
        <time>2017-04-22T20:07:58Z</time>
      </trkpt>
      <trkpt lat="48.67548" lon="-4.35203">
        <ele>1.622</ele>
        <time>2020-12-20T00:15:07Z</time>
      </trkpt>
      <trkpt lat="48.675" lon="-4.35341">
        <ele>0.014</ele>
        <time>2020-12-20T00:15:27Z</time>
      </trkpt>
      <trkpt lat="48.67473" lon="-4.35341">
        <ele>0.008</ele>
        <time>2020-12-20T00:15:47Z</time>
      </trkpt>
      <trkpt lat="48.6744" lon="-4.35331">
        <ele>6.93</ele>
        <time>2020-12-20T00:16:07Z</time>
      </trkpt>
      <trkpt lat="48.67368" lon="-4.35468">
        <ele>5.596</ele>
        <time>2020-12-20T00:16:27Z</time>
      </trkpt>
      <trkpt lat="48.6735" lon="-4.3548">
        <ele>6.637</ele>
        <time>2017-04-22T20:11:18Z</time>
      </trkpt>
      <trkpt lat="48.6734" lon="-4.35514">
        <ele>7.768</ele>
        <time>2017-04-22T20:11:38Z</time>
      </trkpt>
      <trkpt lat="48.67338" lon="-4.35552">
        <ele>7.479</ele>
        <time>2017-04-22T20:11:58Z</time>
      </trkpt>
      <trkpt lat="48.67319" lon="-4.35603">
        <ele>6.499</ele>
        <time>2017-04-22T20:12:18Z</time>
      </trkpt>
      <trkpt lat="48.6729" lon="-4.35627">
        <ele>7.652</ele>
        <time>2020-12-20T00:18:07Z</time>
      </trkpt>
      <trkpt lat="48.67296" lon="-4.35646">
        <ele>7.319</ele>
        <time>2017-04-22T20:12:58Z</time>
      </trkpt>
      <trkpt lat="48.67282" lon="-4.35702">
        <ele>5.486</ele>
        <time>2017-04-22T20:14:58Z</time>
      </trkpt>
      <trkpt lat="48.67257" lon="-4.35721">
        <ele>5.16</ele>
        <time>2017-04-22T20:15:18Z</time>
      </trkpt>
      <trkpt lat="48.6718" lon="-4.35799">
        <ele>5.526</ele>
        <time>2017-04-22T20:15:38Z</time>
      </trkpt>
      <trkpt lat="48.67182" lon="-4.35822">
        <ele>5.408</ele>
        <time>2017-04-22T20:15:58Z</time>
      </trkpt>
      <trkpt lat="48.67195" lon="-4.35837">
        <ele>4.784</ele>
        <time>2017-04-22T20:16:18Z</time>
      </trkpt>
      <trkpt lat="48.67148" lon="-4.3592">
        <ele>3.29</ele>
        <time>2017-04-22T20:16:38Z</time>
      </trkpt>
      <trkpt lat="48.67118" lon="-4.35991">
        <ele>3.121</ele>
        <time>2017-04-22T20:16:58Z</time>
      </trkpt>
      <trkpt lat="48.67089" lon="-4.3603">
        <ele>4.762</ele>
        <time>2017-04-22T20:17:18Z</time>
      </trkpt>
      <trkpt lat="48.67074" lon="-4.36121">
        <ele>6.343</ele>
        <time>2017-04-22T20:17:38Z</time>
      </trkpt>
      <trkpt lat="48.67046" lon="-4.36246">
        <ele>3.863</ele>
        <time>2017-04-22T20:17:58Z</time>
      </trkpt>
      <trkpt lat="48.67008" lon="-4.36324">
        <ele>3.116</ele>
        <time>2017-04-22T20:18:18Z</time>
      </trkpt>
      <trkpt lat="48.66943" lon="-4.36423">
        <ele>8.073</ele>
        <time>2017-04-22T20:18:38Z</time>
      </trkpt>
      <trkpt lat="48.66923" lon="-4.36433">
        <ele>7.652</ele>
        <time>2017-04-22T20:18:58Z</time>
      </trkpt>
      <trkpt lat="48.66918" lon="-4.36463">
        <ele>6.453</ele>
        <time>2017-04-22T20:19:18Z</time>
      </trkpt>
      <trkpt lat="48.66874" lon="-4.36561">
        <ele>4.008</ele>
        <time>2017-04-22T20:19:38Z</time>
      </trkpt>
      <trkpt lat="48.66856" lon="-4.36632">
        <ele>7.308</ele>
        <time>2017-04-22T20:19:58Z</time>
      </trkpt>
      <trkpt lat="48.66836" lon="-4.36683">
        <ele>10.881</ele>
        <time>2017-04-22T20:20:18Z</time>
      </trkpt>
      <trkpt lat="48.66841" lon="-4.36724">
        <ele>10.497</ele>
        <time>2017-04-22T20:20:38Z</time>
      </trkpt>
      <trkpt lat="48.66836" lon="-4.36759">
        <ele>8.628</ele>
        <time>2017-04-22T20:20:58Z</time>
      </trkpt>
      <trkpt lat="48.66817" lon="-4.36814">
        <ele>7.079</ele>
        <time>2017-04-22T20:21:18Z</time>
      </trkpt>
      <trkpt lat="48.66826" lon="-4.36837">
        <ele>6.54</ele>
        <time>2017-04-22T20:21:38Z</time>
      </trkpt>
      <trkpt lat="48.66816" lon="-4.36907">
        <ele>8.12</ele>
        <time>2017-04-22T20:21:58Z</time>
      </trkpt>
      <trkpt lat="48.66832" lon="-4.36934">
        <ele>6.863</ele>
        <time>2017-04-22T20:22:18Z</time>
      </trkpt>
      <trkpt lat="48.66836" lon="-4.37003">
        <ele>4.74</ele>
        <time>2017-04-22T20:22:38Z</time>
      </trkpt>
      <trkpt lat="48.66843" lon="-4.37031">
        <ele>4.479</ele>
        <time>2017-04-22T20:22:58Z</time>
      </trkpt>
      <trkpt lat="48.6684" lon="-4.3709">
        <ele>7.205</ele>
        <time>2017-04-22T20:23:18Z</time>
      </trkpt>
      <trkpt lat="48.66833" lon="-4.3709">
        <ele>8.025</ele>
        <time>2017-04-22T20:23:38Z</time>
      </trkpt>
      <trkpt lat="48.66841" lon="-4.37131">
        <ele>7.708</ele>
        <time>2020-12-20T00:27:47Z</time>
      </trkpt>
      <trkpt lat="48.66851" lon="-4.37129">
        <ele>7.283</ele>
        <time>2020-12-20T00:28:07Z</time>
      </trkpt>
      <trkpt lat="48.6685" lon="-4.37242">
        <ele>6.349</ele>
        <time>2020-12-20T00:28:27Z</time>
      </trkpt>
      <trkpt lat="48.6681" lon="-4.37325">
        <ele>5.22</ele>
        <time>2020-12-20T00:28:47Z</time>
      </trkpt>
      <trkpt lat="48.66767" lon="-4.37341">
        <ele>4.911</ele>
        <time>2017-04-22T20:24:58Z</time>
      </trkpt>
      <trkpt lat="48.66728" lon="-4.37369">
        <ele>6.642</ele>
        <time>2017-04-22T20:25:18Z</time>
      </trkpt>
      <trkpt lat="48.66726" lon="-4.37379">
        <ele>6.372</ele>
        <time>2017-04-22T20:25:38Z</time>
      </trkpt>
      <trkpt lat="48.66704" lon="-4.37391">
        <ele>6.665</ele>
        <time>2017-04-22T20:25:58Z</time>
      </trkpt>
      <trkpt lat="48.66685" lon="-4.37428">
        <ele>5.582</ele>
        <time>2017-04-22T20:26:18Z</time>
      </trkpt>
      <trkpt lat="48.66663" lon="-4.37444">
        <ele>4.291</ele>
        <time>2017-04-22T20:26:38Z</time>
      </trkpt>
      <trkpt lat="48.66661" lon="-4.37478">
        <ele>4.481</ele>
        <time>2017-04-22T20:26:58Z</time>
      </trkpt>
      <trkpt lat="48.66643" lon="-4.37523">
        <ele>5.019</ele>
        <time>2017-04-22T20:27:18Z</time>
      </trkpt>
      <trkpt lat="48.66628" lon="-4.37532">
        <ele>4.708</ele>
        <time>2017-04-22T20:27:38Z</time>
      </trkpt>
      <trkpt lat="48.66608" lon="-4.37526">
        <ele>4.995</ele>
        <time>2017-04-22T20:27:58Z</time>
      </trkpt>
      <trkpt lat="48.66597" lon="-4.37533">
        <ele>4.291</ele>
        <time>2017-04-22T20:28:18Z</time>
      </trkpt>
      <trkpt lat="48.66569" lon="-4.37515">
        <ele>4.242</ele>
        <time>2017-04-22T20:28:38Z</time>
      </trkpt>
      <trkpt lat="48.66473" lon="-4.37534">
        <ele>4.053</ele>
        <time>2017-04-22T20:28:58Z</time>
      </trkpt>
      <trkpt lat="48.66394" lon="-4.37605">
        <ele>8.364</ele>
        <time>2017-04-22T20:29:18Z</time>
      </trkpt>
      <trkpt lat="48.6634" lon="-4.37674">
        <ele>4.274</ele>
        <time>2017-04-22T20:29:38Z</time>
      </trkpt>
      <trkpt lat="48.66304" lon="-4.37736">
        <ele>6.057</ele>
        <time>2017-04-22T20:29:58Z</time>
      </trkpt>
      <trkpt lat="48.66278" lon="-4.37822">
        <ele>3.064</ele>
        <time>2017-04-22T20:30:18Z</time>
      </trkpt>
      <trkpt lat="48.66258" lon="-4.37901">
        <ele>6.899</ele>
        <time>2017-04-22T20:30:38Z</time>
      </trkpt>
      <trkpt lat="48.66257" lon="-4.37996">
        <ele>5.107</ele>
        <time>2020-12-20T00:35:07Z</time>
      </trkpt>
      <trkpt lat="48.66264" lon="-4.3807">
        <ele>2.527</ele>
        <time>2020-12-20T00:35:27Z</time>
      </trkpt>
      <trkpt lat="48.66246" lon="-4.38049">
        <ele>3.008</ele>
        <time>2020-12-20T00:35:47Z</time>
      </trkpt>
      <trkpt lat="48.66208" lon="-4.37987">
        <ele>3.715</ele>
        <time>2020-12-20T00:36:07Z</time>
      </trkpt>
      <trkpt lat="48.66204" lon="-4.37907">
        <ele>2.761</ele>
        <time>2020-12-20T00:36:27Z</time>
      </trkpt>
      <trkpt lat="48.66194" lon="-4.37879">
        <ele>2.062</ele>
        <time>2017-04-22T20:32:38Z</time>
      </trkpt>
      <trkpt lat="48.66182" lon="-4.37867">
        <ele>2.033</ele>
        <time>2017-04-22T20:32:58Z</time>
      </trkpt>
      <trkpt lat="48.66059" lon="-4.37858">
        <ele>2.994</ele>
        <time>2017-04-22T20:33:18Z</time>
      </trkpt>
      <trkpt lat="48.6604" lon="-4.37852">
        <ele>2.994</ele>
        <time>2017-04-22T20:33:38Z</time>
      </trkpt>
      <trkpt lat="48.65994" lon="-4.37876">
        <ele>2.937</ele>
        <time>2017-04-22T20:33:58Z</time>
      </trkpt>
      <trkpt lat="48.65929" lon="-4.3795">
        <ele>1.714</ele>
        <time>2017-04-22T20:34:18Z</time>
      </trkpt>
      <trkpt lat="48.65924" lon="-4.37982">
        <ele>2.133</ele>
        <time>2017-04-22T20:34:38Z</time>
      </trkpt>
      <trkpt lat="48.65911" lon="-4.37997">
        <ele>2.223</ele>
        <time>2017-04-22T20:34:58Z</time>
      </trkpt>
      <trkpt lat="48.65851" lon="-4.38112">
        <ele>2.015</ele>
        <time>2017-04-22T20:35:18Z</time>
      </trkpt>
      <trkpt lat="48.65937" lon="-4.38207">
        <ele>4.408</ele>
        <time>2017-04-22T20:35:38Z</time>
      </trkpt>
      <trkpt lat="48.65987" lon="-4.38279">
        <ele>4.029</ele>
        <time>2017-04-22T20:35:58Z</time>
      </trkpt>
      <trkpt lat="48.66002" lon="-4.38325">
        <ele>3.475</ele>
        <time>2017-04-22T20:36:18Z</time>
      </trkpt>
      <trkpt lat="48.66037" lon="-4.38291">
        <ele>4.826</ele>
        <time>2017-04-22T20:36:38Z</time>
      </trkpt>
      <trkpt lat="48.66055" lon="-4.38304">
        <ele>5.097</ele>
        <time>2017-04-22T20:36:58Z</time>
      </trkpt>
      <trkpt lat="48.66088" lon="-4.38298">
        <ele>5.338</ele>
        <time>2017-04-22T20:37:18Z</time>
      </trkpt>
      <trkpt lat="48.66013" lon="-4.38435">
        <ele>5.088</ele>
        <time>2017-04-22T20:37:38Z</time>
      </trkpt>
      <trkpt lat="48.66006" lon="-4.38508">
        <ele>3.361</ele>
        <time>2017-04-22T20:37:58Z</time>
      </trkpt>
      <trkpt lat="48.65995" lon="-4.38558">
        <ele>2.668</ele>
        <time>2017-04-22T20:38:18Z</time>
      </trkpt>
      <trkpt lat="48.66002" lon="-4.38648">
        <ele>4.112</ele>
        <time>2017-04-22T20:38:38Z</time>
      </trkpt>
      <trkpt lat="48.66033" lon="-4.38687">
        <ele>0.432</ele>
        <time>2017-04-22T20:38:58Z</time>
      </trkpt>
      <trkpt lat="48.66037" lon="-4.38758">
        <ele>0.005</ele>
        <time>2017-04-22T20:39:18Z</time>
      </trkpt>
      <trkpt lat="48.66026" lon="-4.3881">
        <ele>0.008</ele>
        <time>2017-04-22T20:39:38Z</time>
      </trkpt>
      <trkpt lat="48.65986" lon="-4.38834">
        <ele>2.977</ele>
        <time>2017-04-22T20:39:58Z</time>
      </trkpt>
      <trkpt lat="48.65912" lon="-4.38964">
        <ele>4.953</ele>
        <time>2017-04-22T20:40:18Z</time>
      </trkpt>
      <trkpt lat="48.65768" lon="-4.39192">
        <ele>3.414</ele>
        <time>2017-04-22T20:40:38Z</time>
      </trkpt>
      <trkpt lat="48.65759" lon="-4.3923">
        <ele>2.415</ele>
        <time>2017-04-22T20:40:58Z</time>
      </trkpt>
      <trkpt lat="48.6572" lon="-4.3933">
        <ele>4.256</ele>
        <time>2017-04-22T20:41:18Z</time>
      </trkpt>
      <trkpt lat="48.6571" lon="-4.39385">
        <ele>3.116</ele>
        <time>2017-04-22T20:41:38Z</time>
      </trkpt>
      <trkpt lat="48.65712" lon="-4.3945">
        <ele>3.429</ele>
        <time>2017-04-22T20:41:58Z</time>
      </trkpt>
      <trkpt lat="48.6564" lon="-4.39547">
        <ele>1.166</ele>
        <time>2017-04-22T20:42:18Z</time>
      </trkpt>
      <trkpt lat="48.65601" lon="-4.39633">
        <ele>0.038</ele>
        <time>2017-04-22T20:42:38Z</time>
      </trkpt>
      <trkpt lat="48.65576" lon="-4.39719">
        <ele>1.67</ele>
        <time>2017-04-22T20:42:58Z</time>
      </trkpt>
      <trkpt lat="48.65558" lon="-4.39809">
        <ele>0.017</ele>
        <time>2017-04-22T20:43:18Z</time>
      </trkpt>
      <trkpt lat="48.65544" lon="-4.39843">
        <ele>1.908</ele>
        <time>2017-04-22T20:43:38Z</time>
      </trkpt>
      <trkpt lat="48.6554" lon="-4.39902">
        <ele>2.069</ele>
        <time>2017-04-22T20:43:58Z</time>
      </trkpt>
      <trkpt lat="48.65513" lon="-4.40059">
        <ele>4.975</ele>
        <time>2017-04-22T20:44:18Z</time>
      </trkpt>
      <trkpt lat="48.65482" lon="-4.40212">
        <ele>3.826</ele>
        <time>2017-04-22T20:44:38Z</time>
      </trkpt>
      <trkpt lat="48.65471" lon="-4.4024">
        <ele>6.177</ele>
        <time>2017-04-22T20:44:58Z</time>
      </trkpt>
      <trkpt lat="48.65473" lon="-4.40299">
        <ele>5.478</ele>
        <time>2017-04-22T20:45:18Z</time>
      </trkpt>
      <trkpt lat="48.65454" lon="-4.40511">
        <ele>3.288</ele>
        <time>2017-04-22T20:45:38Z</time>
      </trkpt>
      <trkpt lat="48.65446" lon="-4.40542">
        <ele>4.991</ele>
        <time>2017-04-22T20:45:58Z</time>
      </trkpt>
      <trkpt lat="48.65447" lon="-4.40591">
        <ele>4.668</ele>
        <time>2017-04-22T20:46:18Z</time>
      </trkpt>
      <trkpt lat="48.65437" lon="-4.40625">
        <ele>2.668</ele>
        <time>2017-04-22T20:46:38Z</time>
      </trkpt>
      <trkpt lat="48.65429" lon="-4.4077">
        <ele>-0.142</ele>
        <time>2017-04-22T20:46:58Z</time>
      </trkpt>
      <trkpt lat="48.65411" lon="-4.40916">
        <ele>3.726</ele>
        <time>2017-04-22T20:47:18Z</time>
      </trkpt>
      <trkpt lat="48.65411" lon="-4.40977">
        <ele>4.108</ele>
        <time>2017-04-22T20:47:38Z</time>
      </trkpt>
      <trkpt lat="48.65426" lon="-4.41063">
        <ele>4.472</ele>
        <time>2017-04-22T20:47:58Z</time>
      </trkpt>
      <trkpt lat="48.65437" lon="-4.41086">
        <ele>4.738</ele>
        <time>2017-04-22T20:48:18Z</time>
      </trkpt>
      <trkpt lat="48.6544" lon="-4.41125">
        <ele>5.329</ele>
        <time>2017-04-22T20:48:38Z</time>
      </trkpt>
      <trkpt lat="48.65427" lon="-4.41153">
        <ele>6.99</ele>
        <time>2017-04-22T20:48:58Z</time>
      </trkpt>
      <trkpt lat="48.65433" lon="-4.41213">
        <ele>9.031</ele>
        <time>2017-04-22T20:49:18Z</time>
      </trkpt>
      <trkpt lat="48.6542" lon="-4.41281">
        <ele>9.021</ele>
        <time>2017-04-22T20:49:38Z</time>
      </trkpt>
      <trkpt lat="48.65412" lon="-4.41361">
        <ele>8.064</ele>
        <time>2017-04-22T20:49:58Z</time>
      </trkpt>
      <trkpt lat="48.65398" lon="-4.41427">
        <ele>8.181</ele>
        <time>2017-04-22T20:50:18Z</time>
      </trkpt>
      <trkpt lat="48.65361" lon="-4.41549">
        <ele>7.292</ele>
        <time>2017-04-22T20:50:38Z</time>
      </trkpt>
      <trkpt lat="48.65466" lon="-4.41616">
        <ele>1.573</ele>
        <time>2017-04-22T20:50:58Z</time>
      </trkpt>
      <trkpt lat="48.65482" lon="-4.41669">
        <ele>0.02</ele>
        <time>2017-04-22T20:51:18Z</time>
      </trkpt>
      <trkpt lat="48.65472" lon="-4.41762">
        <ele>0.008</ele>
        <time>2017-04-22T20:51:38Z</time>
      </trkpt>
      <trkpt lat="48.6545" lon="-4.41805">
        <ele>0.055</ele>
        <time>2017-04-22T20:51:58Z</time>
      </trkpt>
      <trkpt lat="48.6543" lon="-4.4187">
        <ele>0.031</ele>
        <time>2017-04-22T20:52:18Z</time>
      </trkpt>
      <trkpt lat="48.654" lon="-4.41908">
        <ele>0.052</ele>
        <time>2017-04-22T20:52:38Z</time>
      </trkpt>
      <trkpt lat="48.65377" lon="-4.41929">
        <ele>2.023</ele>
        <time>2017-04-22T20:52:58Z</time>
      </trkpt>
      <trkpt lat="48.65384" lon="-4.41992">
        <ele>0.084</ele>
        <time>2017-04-22T20:53:18Z</time>
      </trkpt>
      <trkpt lat="48.65371" lon="-4.42025">
        <ele>0.034</ele>
        <time>2017-04-22T20:53:38Z</time>
      </trkpt>
      <trkpt lat="48.65352" lon="-4.42054">
        <ele>2.787</ele>
        <time>2017-04-22T20:53:58Z</time>
      </trkpt>
      <trkpt lat="48.65342" lon="-4.42093">
        <ele>3.234</ele>
        <time>2017-04-22T20:54:18Z</time>
      </trkpt>
      <trkpt lat="48.65308" lon="-4.42155">
        <ele>5.575</ele>
        <time>2017-04-22T20:54:38Z</time>
      </trkpt>
      <trkpt lat="48.65263" lon="-4.42198">
        <ele>5.528</ele>
        <time>2017-04-22T20:54:58Z</time>
      </trkpt>
      <trkpt lat="48.65265" lon="-4.4221">
        <ele>5.52</ele>
        <time>2017-04-22T20:55:18Z</time>
      </trkpt>
      <trkpt lat="48.65287" lon="-4.42224">
        <ele>6.008</ele>
        <time>2017-04-22T20:55:38Z</time>
      </trkpt>
      <trkpt lat="48.65273" lon="-4.4227">
        <ele>5.443</ele>
        <time>2017-04-22T20:55:58Z</time>
      </trkpt>
      <trkpt lat="48.6526" lon="-4.4237">
        <ele>3.929</ele>
        <time>2017-04-22T20:56:18Z</time>
      </trkpt>
      <trkpt lat="48.65242" lon="-4.42455">
        <ele>5.97</ele>
        <time>2017-04-22T20:56:38Z</time>
      </trkpt>
      <trkpt lat="48.65233" lon="-4.42476">
        <ele>5.521</ele>
        <time>2017-04-22T20:56:58Z</time>
      </trkpt>
      <trkpt lat="48.65215" lon="-4.42619">
        <ele>5.062</ele>
        <time>2017-04-22T20:57:18Z</time>
      </trkpt>
      <trkpt lat="48.65199" lon="-4.42676">
        <ele>6.322</ele>
        <time>2017-04-22T20:57:38Z</time>
      </trkpt>
      <trkpt lat="48.65187" lon="-4.42686">
        <ele>6.725</ele>
        <time>2017-04-22T20:57:58Z</time>
      </trkpt>
      <trkpt lat="48.65183" lon="-4.427">
        <ele>7.082</ele>
        <time>2017-04-22T20:58:18Z</time>
      </trkpt>
      <trkpt lat="48.65194" lon="-4.42725">
        <ele>6.952</ele>
        <time>2017-04-22T20:58:38Z</time>
      </trkpt>
      <trkpt lat="48.65213" lon="-4.42804">
        <ele>5.353</ele>
        <time>2017-04-22T20:59:58Z</time>
      </trkpt>
      <trkpt lat="48.65223" lon="-4.42886">
        <ele>4.808</ele>
        <time>2017-04-22T21:00:18Z</time>
      </trkpt>
      <trkpt lat="48.65244" lon="-4.42917">
        <ele>2.408</ele>
        <time>2017-04-22T21:00:38Z</time>
      </trkpt>
      <trkpt lat="48.65237" lon="-4.42945">
        <ele>3.951</ele>
        <time>2017-04-22T21:00:58Z</time>
      </trkpt>
      <trkpt lat="48.653" lon="-4.43051">
        <ele>5.297</ele>
        <time>2017-04-22T21:01:18Z</time>
      </trkpt>
      <trkpt lat="48.65334" lon="-4.43073">
        <ele>2.228</ele>
        <time>2017-04-22T21:01:38Z</time>
      </trkpt>
      <trkpt lat="48.65367" lon="-4.43117">
        <ele>5.429</ele>
        <time>2017-04-22T21:01:58Z</time>
      </trkpt>
      <trkpt lat="48.65409" lon="-4.43126">
        <ele>4.31</ele>
        <time>2017-04-22T21:02:18Z</time>
      </trkpt>
      <trkpt lat="48.65418" lon="-4.43116">
        <ele>3.48</ele>
        <time>2017-04-22T21:02:38Z</time>
      </trkpt>
      <trkpt lat="48.65417" lon="-4.43101">
        <ele>2.613</ele>
        <time>2017-04-22T21:02:58Z</time>
      </trkpt>
      <trkpt lat="48.65426" lon="-4.43094">
        <ele>2.74</ele>
        <time>2017-04-22T21:03:18Z</time>
      </trkpt>
      <trkpt lat="48.6544" lon="-4.43098">
        <ele>3.471</ele>
        <time>2017-04-22T21:03:38Z</time>
      </trkpt>
      <trkpt lat="48.65463" lon="-4.43072">
        <ele>1.841</ele>
        <time>2017-04-22T21:03:58Z</time>
      </trkpt>
      <trkpt lat="48.65484" lon="-4.43067">
        <ele>0.715</ele>
        <time>2017-04-22T21:04:18Z</time>
      </trkpt>
      <trkpt lat="48.65496" lon="-4.43087">
        <ele>1.308</ele>
        <time>2017-04-22T21:04:38Z</time>
      </trkpt>
      <trkpt lat="48.65498" lon="-4.43105">
        <ele>2.063</ele>
        <time>2017-04-22T21:04:58Z</time>
      </trkpt>
      <trkpt lat="48.65505" lon="-4.43119">
        <ele>2.279</ele>
        <time>2017-04-22T21:05:18Z</time>
      </trkpt>
      <trkpt lat="48.65511" lon="-4.43141">
        <ele>3.31</ele>
        <time>2017-04-22T21:05:38Z</time>
      </trkpt>
      <trkpt lat="48.65526" lon="-4.43159">
        <ele>2.921</ele>
        <time>2017-04-22T21:05:58Z</time>
      </trkpt>
      <trkpt lat="48.65563" lon="-4.43171">
        <ele>2.632</ele>
        <time>2017-04-22T21:06:18Z</time>
      </trkpt>
      <trkpt lat="48.6556" lon="-4.43202">
        <ele>3.552</ele>
        <time>2017-04-22T21:06:38Z</time>
      </trkpt>
      <trkpt lat="48.65546" lon="-4.43219">
        <ele>4.445</ele>
        <time>2017-04-22T21:06:58Z</time>
      </trkpt>
      <trkpt lat="48.65544" lon="-4.43256">
        <ele>4.572</ele>
        <time>2017-04-22T21:07:18Z</time>
      </trkpt>
      <trkpt lat="48.65554" lon="-4.43286">
        <ele>4.459</ele>
        <time>2017-04-22T21:07:38Z</time>
      </trkpt>
      <trkpt lat="48.6556" lon="-4.4333">
        <ele>4.803</ele>
        <time>2017-04-22T21:07:58Z</time>
      </trkpt>
      <trkpt lat="48.65559" lon="-4.4338">
        <ele>4.923</ele>
        <time>2017-04-22T21:08:18Z</time>
      </trkpt>
      <trkpt lat="48.65553" lon="-4.43417">
        <ele>5.208</ele>
        <time>2017-04-22T21:08:38Z</time>
      </trkpt>
      <trkpt lat="48.65551" lon="-4.43453">
        <ele>4.561</ele>
        <time>2017-04-22T21:08:58Z</time>
      </trkpt>
      <trkpt lat="48.65537" lon="-4.43496">
        <ele>5.537</ele>
        <time>2017-04-22T21:09:58Z</time>
      </trkpt>
      <trkpt lat="48.65514" lon="-4.43508">
        <ele>5.578</ele>
        <time>2017-04-22T21:10:18Z</time>
      </trkpt>
      <trkpt lat="48.65483" lon="-4.43512">
        <ele>5.589</ele>
        <time>2017-04-22T21:10:38Z</time>
      </trkpt>
      <trkpt lat="48.65447" lon="-4.43504">
        <ele>7.32</ele>
        <time>2017-04-22T21:10:58Z</time>
      </trkpt>
      <trkpt lat="48.65405" lon="-4.43508">
        <ele>7.97</ele>
        <time>2017-04-22T21:11:18Z</time>
      </trkpt>
      <trkpt lat="48.65359" lon="-4.4352">
        <ele>8.423</ele>
        <time>2017-04-22T21:11:38Z</time>
      </trkpt>
      <trkpt lat="48.65362" lon="-4.43482">
        <ele>9.62</ele>
        <time>2017-04-22T21:11:58Z</time>
      </trkpt>
      <trkpt lat="48.65338" lon="-4.43452">
        <ele>9.249</ele>
        <time>2017-04-22T21:12:18Z</time>
      </trkpt>
      <trkpt lat="48.6533" lon="-4.43483">
        <ele>8.902</ele>
        <time>2017-04-22T21:12:38Z</time>
      </trkpt>
      <trkpt lat="48.6528" lon="-4.43472">
        <ele>6.222</ele>
        <time>2017-04-22T21:12:58Z</time>
      </trkpt>
      <trkpt lat="48.65268" lon="-4.43438">
        <ele>6.508</ele>
        <time>2017-04-22T21:13:18Z</time>
      </trkpt>
      <trkpt lat="48.65212" lon="-4.43377">
        <ele>6.16</ele>
        <time>2017-04-22T21:13:38Z</time>
      </trkpt>
      <trkpt lat="48.65173" lon="-4.43317">
        <ele>5.826</ele>
        <time>2017-04-22T21:13:58Z</time>
      </trkpt>
      <trkpt lat="48.65121" lon="-4.43308">
        <ele>5.917</ele>
        <time>2017-04-22T21:14:18Z</time>
      </trkpt>
      <trkpt lat="48.65088" lon="-4.43289">
        <ele>7.538</ele>
        <time>2017-04-22T21:14:38Z</time>
      </trkpt>
      <trkpt lat="48.65046" lon="-4.43296">
        <ele>6.029</ele>
        <time>2017-04-22T21:14:58Z</time>
      </trkpt>
      <trkpt lat="48.64997" lon="-4.43284">
        <ele>5.649</ele>
        <time>2017-04-22T21:15:18Z</time>
      </trkpt>
      <trkpt lat="48.64953" lon="-4.43289">
        <ele>5.222</ele>
        <time>2017-04-22T21:15:38Z</time>
      </trkpt>
      <trkpt lat="48.64932" lon="-4.43305">
        <ele>4.189</ele>
        <time>2017-04-22T21:15:58Z</time>
      </trkpt>
      <trkpt lat="48.64914" lon="-4.43332">
        <ele>3.184</ele>
        <time>2017-04-22T21:16:18Z</time>
      </trkpt>
      <trkpt lat="48.64892" lon="-4.43316">
        <ele>4.507</ele>
        <time>2017-04-22T21:16:38Z</time>
      </trkpt>
      <trkpt lat="48.64882" lon="-4.43324">
        <ele>4.117</ele>
        <time>2017-04-22T21:16:58Z</time>
      </trkpt>
      <trkpt lat="48.64851" lon="-4.43312">
        <ele>3.408</ele>
        <time>2017-04-22T21:17:18Z</time>
      </trkpt>
      <trkpt lat="48.64834" lon="-4.43296">
        <ele>3.484</ele>
        <time>2017-04-22T21:17:38Z</time>
      </trkpt>
      <trkpt lat="48.64794" lon="-4.43294">
        <ele>3.44</ele>
        <time>2017-04-22T21:17:58Z</time>
      </trkpt>
      <trkpt lat="48.64773" lon="-4.43284">
        <ele>3.351</ele>
        <time>2017-04-22T21:18:18Z</time>
      </trkpt>
      <trkpt lat="48.64755" lon="-4.43262">
        <ele>2.472</ele>
        <time>2017-04-22T21:18:38Z</time>
      </trkpt>
      <trkpt lat="48.64755" lon="-4.43184">
        <ele>5.333</ele>
        <time>2017-04-22T21:18:58Z</time>
      </trkpt>
      <trkpt lat="48.64736" lon="-4.4316">
        <ele>3.693</ele>
        <time>2017-04-22T21:19:18Z</time>
      </trkpt>
      <trkpt lat="48.64732" lon="-4.43143">
        <ele>3.316</ele>
        <time>2017-04-22T21:19:38Z</time>
      </trkpt>
      <trkpt lat="48.64749" lon="-4.43073">
        <ele>5.953</ele>
        <time>2017-04-22T21:19:58Z</time>
      </trkpt>
      <trkpt lat="48.64752" lon="-4.43048">
        <ele>6.369</ele>
        <time>2017-04-22T21:20:18Z</time>
      </trkpt>
      <trkpt lat="48.64763" lon="-4.43023">
        <ele>8.104</ele>
        <time>2017-04-22T21:20:38Z</time>
      </trkpt>
      <trkpt lat="48.64761" lon="-4.42987">
        <ele>8.824</ele>
        <time>2017-04-22T21:20:58Z</time>
      </trkpt>
      <trkpt lat="48.64736" lon="-4.42933">
        <ele>7.408</ele>
        <time>2017-04-22T21:21:18Z</time>
      </trkpt>
      <trkpt lat="48.6474" lon="-4.4292">
        <ele>8.422</ele>
        <time>2017-04-22T21:21:38Z</time>
      </trkpt>
      <trkpt lat="48.64727" lon="-4.42891">
        <ele>7.458</ele>
        <time>2017-04-22T21:21:58Z</time>
      </trkpt>
      <trkpt lat="48.64716" lon="-4.42897">
        <ele>5.839</ele>
        <time>2017-04-22T21:22:18Z</time>
      </trkpt>
      <trkpt lat="48.6469" lon="-4.4287">
        <ele>3.36</ele>
        <time>2017-04-22T21:22:38Z</time>
      </trkpt>
      <trkpt lat="48.64678" lon="-4.42843">
        <ele>3.711</ele>
        <time>2017-04-22T21:22:58Z</time>
      </trkpt>
      <trkpt lat="48.6467" lon="-4.42807">
        <ele>4.521</ele>
        <time>2017-04-22T21:23:18Z</time>
      </trkpt>
      <trkpt lat="48.64646" lon="-4.42736">
        <ele>5.254</ele>
        <time>2017-04-22T21:23:38Z</time>
      </trkpt>
      <trkpt lat="48.64628" lon="-4.42713">
        <ele>4.231</ele>
        <time>2017-04-22T21:23:58Z</time>
      </trkpt>
      <trkpt lat="48.64627" lon="-4.42694">
        <ele>4.166</ele>
        <time>2017-04-22T21:24:18Z</time>
      </trkpt>
      <trkpt lat="48.6464" lon="-4.42622">
        <ele>6.229</ele>
        <time>2017-04-22T21:24:38Z</time>
      </trkpt>
      <trkpt lat="48.64672" lon="-4.42608">
        <ele>8.921</ele>
        <time>2017-04-22T21:24:58Z</time>
      </trkpt>
      <trkpt lat="48.647" lon="-4.42568">
        <ele>7.608</ele>
        <time>2017-04-22T21:25:18Z</time>
      </trkpt>
      <trkpt lat="48.64689" lon="-4.4245">
        <ele>8.662</ele>
        <time>2017-04-22T21:25:38Z</time>
      </trkpt>
      <trkpt lat="48.64666" lon="-4.42388">
        <ele>8.998</ele>
        <time>2017-04-22T21:25:58Z</time>
      </trkpt>
      <trkpt lat="48.64648" lon="-4.42368">
        <ele>7.089</ele>
        <time>2017-04-22T21:26:18Z</time>
      </trkpt>
      <trkpt lat="48.64621" lon="-4.42335">
        <ele>5.06</ele>
        <time>2017-04-22T21:26:38Z</time>
      </trkpt>
      <trkpt lat="48.64574" lon="-4.42107">
        <ele>8.081</ele>
        <time>2017-04-22T21:26:58Z</time>
      </trkpt>
      <trkpt lat="48.64544" lon="-4.42034">
        <ele>5.771</ele>
        <time>2017-04-22T21:27:18Z</time>
      </trkpt>
      <trkpt lat="48.64514" lon="-4.41989">
        <ele>5.974</ele>
        <time>2020-12-20T01:30:07Z</time>
      </trkpt>
      <trkpt lat="48.64477" lon="-4.41948">
        <ele>8.091</ele>
        <time>2020-12-20T01:30:27Z</time>
      </trkpt>
      <trkpt lat="48.6437" lon="-4.41775">
        <ele>9.747</ele>
        <time>2020-12-20T01:30:47Z</time>
      </trkpt>
      <trkpt lat="48.64333" lon="-4.41678">
        <ele>13.029</ele>
        <time>2020-12-20T01:31:07Z</time>
      </trkpt>
      <trkpt lat="48.64167" lon="-4.40995">
        <ele>2.221</ele>
        <time>2020-12-20T01:31:27Z</time>
      </trkpt>
      <trkpt lat="48.64169" lon="-4.40937">
        <ele>4.108</ele>
        <time>2017-04-22T21:40:18Z</time>
      </trkpt>
      <trkpt lat="48.64109" lon="-4.40693">
        <ele>2.07</ele>
        <time>2017-04-22T21:40:38Z</time>
      </trkpt>
      <trkpt lat="48.64124" lon="-4.40662">
        <ele>2.626</ele>
        <time>2017-04-22T21:40:58Z</time>
      </trkpt>
      <trkpt lat="48.64118" lon="-4.40572">
        <ele>4.077</ele>
        <time>2017-04-22T21:41:18Z</time>
      </trkpt>
      <trkpt lat="48.64182" lon="-4.4049">
        <ele>2.648</ele>
        <time>2017-04-22T21:41:38Z</time>
      </trkpt>
      <trkpt lat="48.64143" lon="-4.40414">
        <ele>2.239</ele>
        <time>2017-04-22T21:41:58Z</time>
      </trkpt>
      <trkpt lat="48.64105" lon="-4.40304">
        <ele>2.059</ele>
        <time>2017-04-22T21:42:18Z</time>
      </trkpt>
      <trkpt lat="48.64082" lon="-4.40231">
        <ele>1.062</ele>
        <time>2017-04-22T21:42:38Z</time>
      </trkpt>
      <trkpt lat="48.64069" lon="-4.40226">
        <ele>1.099</ele>
        <time>2017-04-22T21:42:58Z</time>
      </trkpt>
      <trkpt lat="48.6405" lon="-4.40246">
        <ele>1.299</ele>
        <time>2017-04-22T21:43:18Z</time>
      </trkpt>
      <trkpt lat="48.64027" lon="-4.40212">
        <ele>3.407</ele>
        <time>2017-04-22T21:43:38Z</time>
      </trkpt>
      <trkpt lat="48.63954" lon="-4.40212">
        <ele>3.427</ele>
        <time>2017-04-22T21:43:58Z</time>
      </trkpt>
      <trkpt lat="48.63933" lon="-4.40174">
        <ele>3.708</ele>
        <time>2017-04-22T21:44:18Z</time>
      </trkpt>
      <trkpt lat="48.63917" lon="-4.40162">
        <ele>3.015</ele>
        <time>2017-04-22T21:44:38Z</time>
      </trkpt>
      <trkpt lat="48.63901" lon="-4.40117">
        <ele>3.061</ele>
        <time>2017-04-22T21:44:58Z</time>
      </trkpt>
      <trkpt lat="48.63837" lon="-4.40059">
        <ele>2.122</ele>
        <time>2017-04-22T21:45:18Z</time>
      </trkpt>
      <trkpt lat="48.63827" lon="-4.40024">
        <ele>2.923</ele>
        <time>2017-04-22T21:45:38Z</time>
      </trkpt>
      <trkpt lat="48.63834" lon="-4.39976">
        <ele>4.074</ele>
        <time>2017-04-22T21:45:58Z</time>
      </trkpt>
      <trkpt lat="48.63833" lon="-4.39886">
        <ele>2.074</ele>
        <time>2017-04-22T21:46:18Z</time>
      </trkpt>
      <trkpt lat="48.63821" lon="-4.39814">
        <ele>2.857</ele>
        <time>2017-04-22T21:46:38Z</time>
      </trkpt>
      <trkpt lat="48.63776" lon="-4.39819">
        <ele>3.024</ele>
        <time>2017-04-22T21:46:58Z</time>
      </trkpt>
      <trkpt lat="48.63752" lon="-4.39773">
        <ele>3.043</ele>
        <time>2017-04-22T21:47:18Z</time>
      </trkpt>
      <trkpt lat="48.63742" lon="-4.39681">
        <ele>4.264</ele>
        <time>2017-04-22T21:47:38Z</time>
      </trkpt>
      <trkpt lat="48.63711" lon="-4.39698">
        <ele>4.01</ele>
        <time>2017-04-22T21:47:58Z</time>
      </trkpt>
    </trkseg>
  </trk>
</gpx>